[[{"header":{"parameterUnit":"m.s-1","parameterCategory":1,"la1":30.6,"la2":28.766,"lo1":-90.7593,"lo2":-88.6598,"dx":0.0162,"dy":0.0183,"nx":116,"ny":114,"refTime":"2023-02-02T18:00:00:Z","depth":0,"parameterNumber":2,"parameterNumberName":"U-component_of_WINDS"},"data":[0.0,0.0,0.0,0.0,0.0,0.0,0.0,0.0,0.0,0.0,0.0,0.0,0.0,0.0,0.0,0.0,0.0,0.0,0.0,0.0,0.0,0.0,0.0,0.0,0.0,0.0,0.0,0.0,0.0,0.0,0.0,0.0,0.0,0.0,0.0,0.0,0.0,0.0,0.0,0.0,0.0,0.0,0.0,0.0,0.0,0.0,0.0,0.0,0.0,0.0,0.0,0.0,0.0,0.0,0.0,0.0,0.0,0.0,0.0,0.0,0.0,0.0,0.0,0.0,0.0,0.0,0.0,0.0,0.0,0.0,0.0,0.0,0.0,0.0,0.0,0.0,0.0,0.0,0.0,0.0,0.0,0.0,0.0,0.0,0.0,0.0,0.0,0.0,0.0,0.0,0.0,0.0,0.0,0.0,0.0,0.0,0.0,0.0,0.0,0.0,0.0,0.0,0.0,0.0,0.0,0.0,0.0,0.0,0.0,0.0,0.0,0.0,0.0,0.0,0.0,0.0,0.0,0.0,0.0,0.0,0.0,0.0,0.0,0.0,0.0,0.0,0.0,0.0,0.0,0.0,0.0,0.0,0.0,0.0,0.0,0.0,0.0,0.0,0.0,0.0,0.0,0.0,0.0,0.0,0.0,0.0,0.0,0.0,0.0,0.0,0.0,0.0,0.0,0.0,0.0,0.0,0.0,0.0,0.0,0.0,0.0,0.0,0.0,0.0,0.0,0.0,0.0,0.0,0.0,0.0,0.0,0.0,0.0,0.0,0.0,0.0,0.0,0.0,0.0,0.0,0.0,0.0,0.0,0.0,0.0,0.0,0.0,0.0,0.0,0.0,0.0,0.0,0.0,0.0,0.0,0.0,0.0,0.0,0.0,0.0,0.0,0.0,0.0,0.0,0.0,0.0,0.0,0.0,0.0,0.0,0.0,0.0,0.0,0.0,0.0,0.0,0.0,0.0,0.0,0.0,0.0,0.0,0.0,0.0,0.0,0.0,0.0,0.0,0.0,0.0,0.0,0.0,0.0,0.0,0.0,0.0,0.0,0.0,0.0,0.0,0.0,0.0,0.0,0.0,0.0,0.0,0.0,0.0,0.0,0.0,0.0,0.0,0.0,0.0,0.0,0.0,0.0,0.0,0.0,0.0,0.0,0.0,0.0,0.0,0.0,0.0,0.0,0.0,0.0,0.0,0.0,0.0,0.0,0.0,0.0,0.0,0.0,0.0,0.0,0.0,0.0,0.0,0.0,0.0,0.0,0.0,0.0,0.0,0.0,0.0,0.0,0.0,0.0,0.0,0.0,0.0,0.0,0.0,0.0,0.0,0.0,0.0,0.0,0.0,0.0,0.0,0.0,0.0,0.0,0.0,0.0,0.0,0.0,0.0,0.0,0.0,0.0,0.0,0.0,0.0,0.0,0.0,0.0,0.0,0.0,0.0,0.0,0.0,0.0,0.0,0.0,0.0,0.0,0.0,0.0,0.0,0.0,0.0,0.0,0.0,0.0,0.0,0.0,0.0,0.0,0.0,0.0,0.0,0.0,0.0,0.0,0.0,0.0,0.0,0.0,0.0,0.0,0.0,0.0,0.0,0.0,0.0,0.0,0.0,0.0,0.0,0.0,0.0,0.0,0.0,0.0,0.0,0.0,0.0,0.0,0.0,0.0,0.0,0.0,0.0,0.0,0.0,0.0,0.0,0.0,0.0,0.0,0.0,0.0,0.0,0.0,0.0,0.0,0.0,0.0,0.0,0.0,0.0,0.0,0.0,0.0,0.0,0.0,0.0,0.0,0.0,0.0,0.0,0.0,0.0,0.0,0.0,0.0,0.0,0.0,0.0,0.0,0.0,0.0,0.0,0.0,0.0,0.0,0.0,0.0,0.0,0.0,0.0,0.0,0.0,0.0,0.0,0.0,0.0,0.0,0.0,0.0,0.0,0.0,0.0,0.0,0.0,0.0,0.0,0.0,0.0,0.0,0.0,0.0,0.0,0.0,0.0,0.0,0.0,0.0,0.0,0.0,0.0,0.0,0.0,0.0,0.0,0.0,0.0,0.0,0.0,0.0,0.0,0.0,0.0,0.0,0.0,0.0,0.0,0.0,0.0,0.0,0.0,0.0,0.0,0.0,0.0,0.0,0.0,0.0,0.0,0.0,0.0,0.0,0.0,0.0,0.0,0.0,0.0,0.0,0.0,0.0,0.0,0.0,0.0,0.0,0.0,0.0,0.0,0.0,0.0,0.0,0.0,0.0,0.0,0.0,0.0,0.0,0.0,0.0,0.0,0.0,0.0,0.0,0.0,0.0,0.0,0.0,0.0,0.0,0.0,0.0,0.0,0.0,0.0,0.0,0.0,0.0,0.0,0.0,0.0,0.0,0.0,0.0,0.0,0.0,0.0,0.0,0.0,0.0,0.0,0.0,0.0,0.0,0.0,0.0,0.0,0.0,0.0,0.0,0.0,0.0,0.0,0.0,0.0,0.0,0.0,0.0,0.0,0.0,0.0,0.0,0.0,0.0,0.0,0.0,0.0,0.0,0.0,0.0,0.0,0.0,0.0,0.0,0.0,0.0,0.0,0.0,0.0,0.0,0.0,0.0,0.0,0.0,0.0,0.0,0.0,0.0,0.0,0.0,0.0,0.0,0.0,0.0,0.0,0.0,0.0,0.0,0.0,0.0,0.0,0.0,0.0,0.0,0.0,0.0,0.0,0.0,0.0,0.0,0.0,0.0,0.0,0.0,0.0,0.0,0.0,0.0,0.0,0.0,0.0,0.0,0.0,0.0,0.0,0.0,0.0,0.0,0.0,0.0,0.0,0.0,0.0,0.0,0.0,0.0,0.0,0.0,0.0,0.0,0.0,0.0,0.0,0.0,0.0,0.0,0.0,0.0,0.0,0.0,0.0,0.0,0.0,0.0,0.0,0.0,0.0,0.0,0.0,0.0,0.0,0.0,0.0,0.0,0.0,0.0,0.0,0.0,0.0,0.0,0.0,0.0,0.0,0.0,0.0,0.0,0.0,0.0,0.0,0.0,0.0,0.0,0.0,0.0,0.0,0.0,0.0,0.0,0.0,0.0,0.0,0.0,0.0,0.0,0.0,0.0,0.0,0.0,0.0,0.0,0.0,0.0,0.0,0.0,0.0,0.0,0.0,0.0,0.0,0.0,0.0,0.0,0.0,0.0,0.0,0.0,0.0,0.0,0.0,0.0,0.0,0.0,0.0,0.0,0.0,0.0,0.0,0.0,0.0,0.0,0.0,0.0,0.0,0.0,0.0,0.0,0.0,0.0,0.0,0.0,0.0,0.0,0.0,0.0,0.0,0.0,0.0,0.0,0.0,0.0,0.0,0.0,0.0,0.0,0.0,0.0,0.0,0.0,0.0,0.0,0.0,0.0,0.0,0.0,0.0,0.0,0.0,0.0,0.0,0.0,0.0,0.0,0.0,0.0,0.0,0.0,0.0,0.0,0.0,0.0,0.0,0.0,0.0,0.0,0.0,0.0,0.0,0.0,0.0,0.0,0.0,0.0,0.0,0.0,0.0,0.0,0.0,0.0,0.0,0.0,0.0,0.0,0.0,0.0,0.0,0.0,0.0,0.0,0.0,0.0,0.0,0.0,0.0,0.0,0.0,0.0,0.0,0.0,0.0,0.0,0.0,0.0,0.0,0.0,0.0,0.0,0.0,0.0,0.0,0.0,0.0,0.0,0.0,0.0,0.0,0.0,0.0,0.0,0.0,0.0,0.0,0.0,0.0,0.0,0.0,0.0,0.0,0.0,0.0,0.0,0.0,0.0,0.0,0.0,0.0,0.0,0.0,0.0,0.0,0.0,0.0,0.0,0.0,0.0,0.0,0.0,0.0,0.0,0.0,0.0,0.0,0.0,0.0,0.0,0.0,0.0,0.0,0.0,0.0,0.0,0.0,0.0,0.0,0.0,0.0,0.0,0.0,0.0,0.0,0.0,0.0,0.0,0.0,0.0,0.0,0.0,0.0,0.0,0.0,0.0,0.0,0.0,0.0,0.0,0.0,0.0,0.0,0.0,0.0,0.0,0.0,0.0,0.0,0.0,0.0,0.0,0.0,0.0,0.0,0.0,0.0,0.0,0.0,0.0,0.0,0.0,0.0,0.0,0.0,0.0,0.0,0.0,0.0,0.0,0.0,0.0,0.0,0.0,0.0,0.0,0.0,0.0,0.0,0.0,0.0,0.0,0.0,0.0,0.0,0.0,0.0,0.0,0.0,0.0,0.0,0.0,0.0,0.0,0.0,0.0,0.0,0.0,0.0,0.0,0.0,0.0,0.0,0.0,0.0,0.0,0.0,0.0,0.0,0.0,0.0,0.0,0.0,0.0,0.0,0.0,0.0,0.0,0.0,0.0,0.0,0.0,0.0,0.0,0.0,0.0,0.0,0.0,0.0,0.0,0.0,0.0,0.0,0.0,0.0,0.0,0.0,0.0,0.0,0.0,0.0,0.0,0.0,0.0,0.0,0.0,0.0,0.0,0.0,0.0,0.0,0.0,0.0,0.0,0.0,0.0,0.0,0.0,0.0,0.0,0.0,0.0,0.0,0.0,0.0,0.0,0.0,0.0,0.0,0.0,0.0,0.0,0.0,0.0,0.0,0.0,0.0,0.0,0.0,0.0,0.0,0.0,0.0,0.0,0.0,0.0,0.0,0.0,0.0,0.0,0.0,0.0,0.0,0.0,0.0,0.0,0.0,0.0,0.0,0.0,0.0,0.0,0.0,0.0,0.0,0.0,0.0,0.0,0.0,0.0,0.0,0.0,0.0,0.0,0.0,0.0,0.0,0.0,0.0,0.0,0.0,0.0,0.0,0.0,0.0,0.0,0.0,0.0,0.0,0.0,0.0,0.0,0.0,0.0,0.0,0.0,0.0,0.0,0.0,0.0,0.0,0.0,0.0,0.0,0.0,0.0,0.0,0.0,0.0,0.0,0.0,0.0,0.0,0.0,0.0,0.0,0.0,0.0,0.0,0.0,0.0,0.0,0.0,0.0,0.0,0.0,0.0,0.0,0.0,0.0,0.0,0.0,0.0,0.0,0.0,0.0,0.0,0.0,0.0,0.0,0.0,0.0,0.0,0.0,0.0,0.0,0.0,0.0,0.0,0.0,0.0,0.0,0.0,0.0,0.0,0.0,0.0,0.0,0.0,0.0,0.0,0.0,0.0,0.0,0.0,0.0,0.0,0.0,0.0,0.0,0.0,0.0,0.0,0.0,0.0,0.0,0.0,0.0,0.0,0.0,0.0,0.0,0.0,0.0,0.0,0.0,0.0,0.0,0.0,0.0,0.0,0.0,0.0,0.0,0.0,0.0,0.0,0.0,0.0,0.0,0.0,0.0,0.0,0.0,0.0,0.0,0.0,0.0,0.0,0.0,0.0,0.0,0.0,0.0,0.0,0.0,0.0,0.0,0.0,0.0,0.0,0.0,0.0,0.0,0.0,0.0,0.0,0.0,0.0,0.0,0.0,0.0,0.0,0.0,0.0,0.0,0.0,0.0,0.0,0.0,0.0,0.0,0.0,0.0,0.0,0.0,0.0,0.0,0.0,0.0,0.0,0.0,0.0,0.0,0.0,0.0,0.0,0.0,0.0,0.0,0.0,0.0,0.0,0.0,0.0,0.0,0.0,0.0,0.0,0.0,0.0,0.0,0.0,0.0,0.0,0.0,0.0,0.0,0.0,0.0,0.0,0.0,0.0,0.0,0.0,0.0,0.0,0.0,0.0,0.0,0.0,0.0,0.0,0.0,0.0,0.0,0.0,0.0,0.0,0.0,0.0,0.0,0.0,0.0,0.0,0.0,0.0,0.0,0.0,0.0,0.0,0.0,0.0,0.0,0.0,0.0,0.0,0.0,0.0,0.0,0.0,0.0,0.0,0.0,0.0,0.0,0.0,0.0,0.0,0.0,0.0,0.0,0.0,0.0,0.0,0.0,0.0,0.0,0.0,0.0,0.0,0.0,0.0,0.0,0.0,0.0,0.0,0.0,0.0,0.0,0.0,0.0,0.0,0.0,0.0,0.0,0.0,0.0,0.0,0.0,0.0,0.0,0.0,0.0,0.0,0.0,0.0,0.0,0.0,0.0,0.0,2.528,0.0,0.0,0.0,0.0,0.0,0.0,0.0,0.0,0.0,0.0,0.0,0.0,0.0,0.0,0.0,0.0,0.0,0.0,0.0,0.0,0.0,0.0,0.0,0.0,0.0,0.0,0.0,0.0,0.0,0.0,0.0,0.0,0.0,0.0,0.0,0.0,0.0,0.0,0.0,0.0,0.0,0.0,0.0,0.0,0.0,0.0,0.0,0.0,0.0,0.0,0.0,0.0,0.0,0.0,0.0,0.0,0.0,0.0,0.0,0.0,0.0,0.0,0.0,0.0,0.0,0.0,0.0,0.0,0.0,0.0,0.0,0.0,0.0,0.0,0.0,0.0,0.0,0.0,0.0,0.0,0.0,0.0,0.0,0.0,0.0,0.0,0.0,0.0,0.0,0.0,0.0,0.0,0.0,0.0,0.0,0.0,0.0,0.0,0.0,0.0,0.0,0.0,0.0,0.0,0.0,0.0,0.0,0.0,0.0,0.0,0.0,0.0,0.0,0.0,0.0,0.0,2.6843,0.0,0.0,0.0,0.0,0.0,0.0,0.0,0.0,0.0,0.0,0.0,0.0,0.0,0.0,0.0,0.0,0.0,0.0,0.0,0.0,0.0,0.0,0.0,0.0,0.0,0.0,0.0,0.0,0.0,0.0,0.0,0.0,0.0,0.0,0.0,0.0,0.0,0.0,0.0,0.0,0.0,0.0,0.0,0.0,0.0,0.0,0.0,0.0,0.0,0.0,0.0,0.0,0.0,0.0,0.0,0.0,0.0,0.0,0.0,0.0,0.0,0.0,0.0,0.0,0.0,0.0,0.0,0.0,0.0,0.0,0.0,0.0,0.0,0.0,0.0,0.0,0.0,0.0,0.0,0.0,0.0,0.0,0.0,0.0,0.0,0.0,0.0,0.0,0.0,0.0,0.0,0.0,0.0,0.0,0.0,0.0,0.0,0.0,0.0,0.0,0.0,0.0,0.0,0.0,0.0,0.0,0.0,0.0,0.0,0.0,3.0859,3.1472,3.1791,3.1763,2.9989,2.924,2.9246,0.0,0.0,0.0,0.0,0.0,0.0,0.0,0.0,0.0,0.0,0.0,0.0,0.0,0.0,0.0,0.0,0.0,0.0,0.0,0.0,0.0,0.0,0.0,0.0,0.0,0.0,0.0,0.0,0.0,0.0,0.0,0.0,0.0,0.0,0.0,0.0,0.0,0.0,0.0,2.345,2.3482,2.3866,2.4428,2.3035,0.0,0.0,0.0,0.0,0.0,0.0,0.0,0.0,0.0,0.0,0.0,0.0,0.0,0.0,0.0,0.0,0.0,0.0,0.0,0.0,0.0,0.0,0.0,0.0,0.0,0.0,0.0,0.0,0.0,0.0,0.0,0.0,0.0,0.0,0.0,0.0,0.0,0.0,0.0,0.0,0.0,0.0,0.0,2.4877,2.4988,0.0,0.0,0.0,0.0,0.0,0.0,0.0,0.0,0.0,0.0,0.0,0.0,0.0,0.0,2.9929,3.0481,3.1141,3.1876,3.2022,3.2417,3.2987,3.3099,3.3478,3.4053,3.3776,0.0,3.0036,2.9912,0.0,0.0,0.0,0.0,0.0,0.0,0.0,0.0,0.0,0.0,0.0,0.0,0.0,0.0,0.0,0.0,0.0,0.0,0.0,0.0,0.0,0.0,0.0,0.0,0.0,0.0,0.0,0.0,0.0,0.0,0.0,0.0,0.0,0.0,0.0,0.0,2.149,2.2566,2.3601,2.3629,2.4025,2.4666,2.3949,2.3444,2.3095,2.2794,0.0,0.0,0.0,0.0,0.0,0.0,0.0,0.0,0.0,0.0,0.0,0.0,0.0,0.0,0.0,0.0,0.0,0.0,0.0,0.0,0.0,0.0,0.0,0.0,0.0,0.0,0.0,0.0,0.0,0.0,0.0,0.0,0.0,0.0,0.0,0.0,0.0,0.0,0.0,2.5515,2.6281,2.6281,2.5885,2.5791,0.0,0.0,0.0,0.0,0.0,0.0,0.0,0.0,0.0,3.0229,3.0941,3.1482,3.1882,3.2963,3.3685,3.4011,3.4735,3.5197,3.5428,3.5763,3.6113,3.6417,3.6417,3.5458,3.3785,3.209,3.0954,3.0208,0.0,0.0,0.0,0.0,0.0,2.9627,0.0,0.0,0.0,0.0,0.0,0.0,0.0,0.0,0.0,0.0,0.0,0.0,0.0,0.0,0.0,1.7187,0.0,0.0,0.0,0.0,0.0,0.0,0.0,0.0,0.0,0.0,0.0,2.1655,2.2429,2.3273,2.4189,2.4225,2.4611,2.5284,2.5071,2.4449,2.3545,2.3107,2.2764,0.0,0.0,0.0,0.0,0.0,0.0,0.0,0.0,0.0,0.0,0.0,0.0,0.0,0.0,0.0,0.0,0.0,0.0,0.0,0.0,0.0,0.0,0.0,0.0,0.0,0.0,0.0,0.0,0.0,0.0,0.0,0.0,0.0,0.0,0.0,0.0,0.0,0.0,2.6609,2.7506,2.7324,2.7101,2.7136,0.0,0.0,0.0,0.0,0.0,0.0,3.0317,3.0947,3.1661,3.2569,3.3279,3.3788,3.3997,3.5297,3.6028,3.6202,3.7216,3.7723,3.7805,3.8258,3.8464,3.8464,3.8464,3.8041,3.7168,3.4592,3.3045,3.2232,3.1174,3.0724,0.0,3.0693,3.1038,3.1519,0.0,0.0,0.0,0.0,0.0,0.0,0.0,0.0,0.0,0.0,0.0,0.0,0.0,0.0,1.8018,1.8038,1.847,1.8788,0.0,0.0,0.0,0.0,0.0,0.0,0.0,0.0,0.0,2.2347,2.3226,2.4374,2.5791,2.5905,2.6404,2.7136,2.6362,2.5089,2.35,2.3545,2.3182,2.2592,0.0,0.0,0.0,0.0,0.0,0.0,0.0,0.0,0.0,0.0,0.0,0.0,0.0,0.0,0.0,0.0,0.0,0.0,0.0,0.0,0.0,0.0,0.0,0.0,0.0,0.0,0.0,0.0,0.0,0.0,0.0,0.0,0.0,0.0,0.0,0.0,0.0,0.0,0.0,2.7385,2.8506,0.0,0.0,0.0,0.0,3.0464,3.0567,3.1205,3.2662,3.2766,3.3473,3.4973,3.569,3.6429,3.726,3.7908,3.854,3.9176,3.9262,3.9511,3.9956,3.9977,3.9994,3.9994,3.9994,3.9559,3.8763,3.7218,3.6096,3.5363,3.5306,3.5273,3.5273,3.5273,3.5295,3.5312,0.0,0.0,0.0,0.0,0.0,0.0,0.0,0.0,0.0,0.0,0.0,0.0,0.0,1.7884,1.8438,1.8667,1.8822,1.8871,1.8778,0.0,0.0,0.0,0.0,0.0,0.0,0.0,2.2051,2.3166,2.357,2.4544,2.6025,2.6079,2.7009,2.8646,2.8345,2.7883,2.7175,2.53,2.4055,2.3364,2.3409,2.3129,0.0,0.0,0.0,0.0,0.0,0.0,0.0,0.0,0.0,0.0,0.0,0.0,0.0,0.0,0.0,0.0,0.0,0.0,0.0,0.0,0.0,0.0,0.0,0.0,0.0,0.0,0.0,0.0,0.0,0.0,0.0,0.0,0.0,0.0,0.0,0.0,0.0,3.011,3.0662,0.0,0.0,3.1834,3.2024,3.2827,3.3327,3.4034,3.5025,3.5587,3.6329,3.7364,3.8078,3.8848,3.9675,3.9899,4.0562,4.1647,4.1086,4.0847,4.0921,4.0849,4.0798,4.0781,4.0303,4.0218,4.0341,3.9339,3.7917,3.6315,3.5797,3.56,3.56,3.56,3.56,3.56,0.0,0.0,0.0,0.0,0.0,0.0,0.0,0.0,0.0,0.0,0.0,1.757,1.7599,1.8437,1.9145,1.9504,1.9358,1.9253,1.9264,0.0,0.0,0.0,0.0,0.0,0.0,2.2088,2.2979,2.4413,2.452,2.5345,2.6846,2.7128,2.8163,2.985,3.0108,3.0212,3.0074,2.8128,2.6239,2.4525,2.4001,2.3664,2.3422,0.0,0.0,0.0,0.0,0.0,0.0,0.0,0.0,0.0,0.0,0.0,0.0,0.0,0.0,0.0,0.0,0.0,0.0,0.0,0.0,0.0,0.0,0.0,0.0,0.0,0.0,0.0,0.0,0.0,0.0,0.0,0.0,0.0,0.0,0.0,3.1438,3.2447,3.3017,3.3611,3.4397,3.4214,3.4369,3.519,3.569,3.6415,3.7387,3.8209,3.8996,3.9727,4.0486,4.11,4.1569,4.1569,4.197,4.2757,4.2189,4.1835,4.1702,4.1598,4.1576,4.1542,4.1048,4.1132,4.1525,4.1048,3.9982,3.8577,3.7792,3.7488,3.7488,3.7488,3.7335,3.7127,0.0,0.0,0.0,0.0,0.0,0.0,0.0,0.0,0.0,0.0,1.6908,1.7559,1.7654,1.9087,2.0194,2.0581,2.0056,1.9891,2.0353,1.8937,0.0,0.0,0.0,0.0,2.2709,2.3433,2.4541,2.6029,2.6098,2.6915,2.8389,2.9179,2.9989,3.0843,3.1585,3.193,3.1947,3.193,2.9765,2.6205,2.4629,2.4422,2.4919,0.0,0.0,0.0,0.0,0.0,0.0,0.0,0.0,0.0,0.0,0.0,0.0,0.0,0.0,0.0,0.0,0.0,0.0,0.0,0.0,0.0,0.0,0.0,0.0,0.0,0.0,0.0,0.0,0.0,0.0,0.0,0.0,0.0,3.0809,3.2741,3.419,3.4224,3.5518,3.6146,3.5483,3.607,3.6801,3.7616,3.7685,3.8295,3.9727,4.0555,4.1297,4.2021,4.278,4.3114,4.2932,4.2898,4.2792,4.2573,4.2539,4.2457,4.2333,4.2333,4.2333,4.2333,4.2317,4.2317,4.2333,4.2317,4.2317,4.2266,4.1508,4.1204,4.1204,4.1204,4.076,4.013,0.0,0.0,0.0,0.0,0.0,0.0,0.0,0.0,0.0,0.0,1.7605,1.8443,1.899,2.0059,2.0766,2.0875,2.0025,1.9611,1.9945,0.0,0.0,0.0,0.0,0.0,2.3332,2.3643,2.4782,2.6801,2.6915,2.8015,3.0032,3.0265,3.1378,3.3189,3.3948,3.4559,3.5025,3.449,3.3362,3.1671,2.8998,2.7412,2.6565,0.0,0.0,0.0,0.0,0.0,0.0,0.0,0.0,0.0,0.0,0.0,0.0,0.0,0.0,0.0,0.0,0.0,0.0,0.0,0.0,0.0,0.0,0.0,0.0,0.0,0.0,0.0,0.0,0.0,0.0,0.0,0.0,3.3172,3.3172,3.4638,3.6111,3.7226,3.8192,3.9112,4.0037,4.0313,4.0762,4.1567,4.1636,4.1809,4.2223,4.2447,4.2588,4.2648,4.2871,4.3186,4.3626,4.3048,4.323,4.4147,4.3586,4.322,4.3102,4.3102,4.3102,4.3068,4.2523,4.2591,4.3051,4.2523,4.2625,4.2966,4.1711,4.1204,4.1204,4.1204,4.1068,4.0899,0.0,0.0,0.0,0.0,0.0,0.0,0.0,0.0,0.0,0.0,1.7965,1.8772,1.9476,2.0424,2.0871,2.0567,1.9945,1.9498,1.9355,0.0,0.0,0.0,0.0,2.3165,2.4626,2.5058,2.6199,2.8104,2.8524,2.9722,3.1627,3.1964,3.3155,3.5069,3.5811,3.657,3.7232,3.6812,3.638,3.5794,3.3707,3.1188,2.8601,2.7489,2.6791,2.6419,2.6419,2.6592,2.6713,2.6143,0.0,0.0,0.0,0.0,0.0,0.0,0.0,0.0,0.0,0.0,0.0,0.0,0.0,0.0,0.0,0.0,0.0,0.0,0.0,0.0,0.0,0.0,0.0,0.0,3.4707,3.6311,3.7277,3.7881,3.8795,4.0331,4.09,4.1521,4.243,4.2499,4.2706,4.3155,4.3189,4.3189,4.3189,4.3483,4.3617,4.3494,4.3739,4.4026,4.4359,4.3849,4.3963,4.4706,4.4251,4.3976,4.391,4.391,4.391,0.0,4.345,4.3518,4.3876,4.345,4.3535,0.0,0.0,0.0,0.0,0.0,4.166,4.166,0.0,0.0,0.0,0.0,0.0,0.0,0.0,0.0,0.0,0.0,0.0,1.8718,1.931,2.0273,2.0639,2.0008,1.9793,1.9414,0.0,0.0,0.0,2.2541,2.3474,2.4684,2.6205,2.7092,2.8265,2.9756,3.0558,3.1757,3.33,3.3931,3.5069,3.6594,3.7312,3.8036,3.8726,3.8726,3.8726,3.8657,3.7916,3.5104,3.1171,2.9713,2.9127,2.9023,2.8937,2.8144,2.7195,2.7644,0.0,0.0,0.0,0.0,0.0,0.0,0.0,0.0,0.0,0.0,0.0,0.0,0.0,0.0,0.0,0.0,0.0,0.0,0.0,0.0,0.0,0.0,0.0,0.0,3.7922,3.9779,4.2056,4.19,4.1964,4.3069,4.3345,4.3414,4.3327,4.3396,4.35,4.3586,4.3586,4.3621,4.3707,0.0,0.0,0.0,0.0,4.526,4.5097,4.5063,4.4992,4.4866,4.4852,4.4838,4.4838,4.4838,4.4838,4.4838,4.4838,4.4838,4.4838,4.4838,4.4838,4.4753,4.3778,4.3406,4.3321,4.2675,4.2422,0.0,0.0,0.0,0.0,0.0,0.0,0.0,0.0,0.0,0.0,1.6982,1.7868,1.8478,1.8594,1.9569,2.0219,2.03,1.9502,1.8977,0.0,0.0,2.2329,2.2592,2.4544,2.6086,2.7048,2.8385,2.9817,3.1351,3.211,3.3559,3.5628,3.518,3.6122,3.8157,3.8312,3.8795,3.9503,3.9503,3.9503,3.9422,3.8692,3.7111,3.5111,3.4214,3.3517,3.2913,3.2265,3.2645,3.3189,3.1489,3.1127,3.1162,2.9981,0.0,0.0,0.0,0.0,0.0,0.0,0.0,0.0,0.0,0.0,0.0,0.0,0.0,0.0,0.0,0.0,0.0,0.0,0.0,0.0,3.7829,3.9951,4.2142,4.4428,4.5169,4.4923,4.3379,4.4251,4.4751,4.4138,4.463,4.5238,4.5889,4.5941,4.6199,4.6803,4.6406,0.0,4.5754,4.5973,4.5977,4.573,4.63,4.6563,4.6534,0.0,0.0,4.6377,4.6377,4.6377,4.6377,4.6377,4.6377,4.6377,4.6377,4.6377,4.6191,4.4184,4.3406,4.3389,4.3237,4.3186,4.3186,0.0,0.0,0.0,0.0,0.0,0.0,0.0,0.0,0.0,0.0,1.7553,1.7952,1.8369,1.9151,1.9492,1.9079,1.8835,0.0,0.0,2.1473,2.311,2.4253,2.584,2.742,2.8963,3.0093,3.1412,3.2948,3.3689,3.5025,3.6898,3.6518,3.7346,3.9158,3.9158,3.9589,4.0296,4.0296,4.0296,4.0262,3.9899,3.9296,3.8433,3.6932,3.5863,3.5207,3.5207,3.4966,3.4586,3.418,3.3542,3.2835,3.2516,3.1343,3.0024,0.0,0.0,0.0,0.0,0.0,0.0,0.0,0.0,0.0,0.0,0.0,0.0,0.0,0.0,3.331,0.0,0.0,3.875,4.1072,4.3056,4.4837,4.6341,4.722,4.7134,4.563,4.61,4.641,4.6044,4.6324,4.672,4.7117,4.7151,4.7307,4.7686,4.7358,4.7066,4.6907,4.6893,4.6855,4.67,4.7005,4.7089,4.7003,4.6915,4.6859,4.68,4.68,4.68,4.68,4.68,4.68,4.68,4.68,4.68,4.665,4.5131,4.4556,4.4505,4.4147,4.3995,4.3995,0.0,0.0,0.0,0.0,0.0,0.0,0.0,0.0,0.0,0.0,1.7182,1.7399,1.7921,1.853,1.8559,0.0,0.0,0.0,0.0,2.2018,2.395,2.6109,2.7182,2.8739,3.0878,3.1792,3.293,3.431,3.5052,3.6208,3.7719,3.7571,3.8364,3.9934,3.9779,4.0158,4.0912,4.0912,4.0969,4.1101,4.0963,4.0998,4.0912,3.8899,3.776,3.7232,3.7588,3.6329,3.4707,3.5904,3.4973,3.349,3.4276,3.4076,3.3214,3.143,3.124,0.0,0.0,0.0,0.0,0.0,0.0,0.0,0.0,0.0,3.2921,3.3818,3.488,3.6191,3.8036,3.9848,4.1836,4.4333,4.6027,4.7238,4.7824,4.8565,4.8824,4.822,4.8013,4.7858,4.772,4.7703,4.7755,4.791,4.791,4.7979,4.8134,4.7996,4.7896,4.7885,4.7801,4.7689,4.7529,4.7652,4.7576,4.7263,4.7339,4.7327,4.724,4.724,4.724,4.724,4.724,4.724,4.724,4.724,4.724,4.7141,4.643,4.6128,4.5993,4.499,4.4615,4.4615,0.0,0.0,0.0,0.0,0.0,0.0,0.0,0.0,0.0,0.0,0.0,0.0,0.0,0.0,0.0,0.0,0.0,0.0,2.1093,2.3367,2.5372,2.6816,2.8406,3.0006,3.1637,3.3103,3.4241,3.5087,3.5818,3.6967,3.8468,3.7812,3.8669,4.0727,4.002,4.0158,4.0912,4.0912,4.1279,4.1814,4.117,4.1291,4.178,4.0865,4.0463,4.0221,3.8933,3.7422,3.6077,3.6232,3.5697,3.5059,3.5818,3.599,3.5352,3.2507,0.0,3.0308,2.7945,2.7902,2.8816,3.0015,3.0947,3.2231,0.0,0.0,3.6215,3.7657,3.9641,4.1193,4.1452,4.3871,4.5945,4.6289,4.7582,4.8582,4.8654,4.9358,4.9841,4.9737,4.9117,4.8427,4.7755,4.7703,4.7979,4.862,4.8686,4.8996,4.9703,4.9065,4.8615,4.8501,4.8601,4.8308,4.761,4.8711,4.8912,4.8244,4.8608,4.878,4.8748,4.8748,4.8748,4.8748,4.8748,4.8748,4.8748,4.8748,4.8748,4.868,4.7938,4.765,4.7413,4.5362,4.4615,4.4615,0.0,0.0,0.0,0.0,0.0,0.0,0.0,0.0,0.0,0.0,0.0,0.0,0.0,0.0,0.0,0.0,0.0,0.0,2.1288,2.359,2.5777,2.7661,2.8878,3.0644,3.3086,3.3776,3.4673,3.5835,3.6146,3.7077,3.8588,3.8278,3.9123,4.0894,4.0538,4.0589,4.0912,4.0912,4.1072,4.1331,4.1021,4.1072,4.1279,4.0503,3.9675,3.8778,3.7657,3.6294,0.0,0.0,3.4421,3.4759,3.5921,3.6008,3.5232,3.3076,3.193,0.0,2.9653,2.9825,3.0524,0.0,3.3241,3.5449,3.6708,3.8364,3.9934,4.105,4.2716,4.4117,4.4596,4.6083,4.7376,0.0,4.8789,4.9496,4.9496,4.9804,4.9838,4.9358,4.9427,4.9375,4.9065,4.9031,4.9169,4.9479,4.9496,4.9651,4.9993,4.9669,4.9467,4.941,4.9467,4.9274,4.8826,4.9468,4.9547,4.9043,4.9214,4.9231,4.9107,4.9032,4.9001,4.9001,4.9001,4.9001,4.9001,4.9001,4.9001,4.8934,4.8191,4.7904,4.7684,4.5906,4.5229,4.5179,0.0,0.0,0.0,0.0,0.0,0.0,0.0,0.0,0.0,0.0,0.0,0.0,0.0,0.0,0.0,0.0,0.0,0.0,0.0,2.3689,2.5783,2.7874,2.893,3.0816,3.3707,3.3983,3.4828,3.6301,3.6525,3.7312,3.8606,3.8813,3.9623,4.0912,4.0912,4.0912,4.0912,4.0912,4.1015,4.1193,4.0981,4.0912,4.0727,3.9313,3.7847,3.6484,3.5897,3.4466,0.0,0.0,3.2352,3.3086,3.4594,3.4973,3.4552,3.28,3.161,3.0834,3.0722,0.0,0.0,3.3224,3.5932,3.8599,3.9227,4.1228,4.3216,4.4229,4.5458,4.6517,4.71,4.7824,4.8513,4.9048,4.9617,5.0011,5.0011,4.9821,4.9444,4.8875,4.9134,4.9459,4.9651,4.9873,5.0011,5.0011,5.0011,5.0011,5.0011,5.0011,5.0011,5.0011,5.0011,4.983,4.9481,4.9769,4.9607,4.8981,4.9073,4.906,4.8921,4.8986,4.9001,4.9001,4.9001,4.9001,4.9001,4.9001,4.9001,4.8951,4.8411,4.8208,4.8056,4.6771,4.6179,4.5906,0.0,0.0,0.0,0.0,0.0,0.0,0.0,0.0,0.0,0.0,0.0,0.0,0.0,0.0,0.0,0.0,0.0,0.0,0.0,2.3917,2.5423,2.7068,2.8587,3.0504,3.2886,3.3707,3.4828,3.6301,3.7088,3.7847,3.8623,3.9319,4.0106,4.0912,4.0912,4.0912,4.0912,4.0912,4.1314,4.19,4.1193,4.0912,4.0572,3.7553,3.549,3.419,3.4172,0.0,0.0,0.0,2.9618,2.992,3.1455,3.2948,0.0,3.143,2.9679,0.0,0.0,0.0,3.4552,3.676,3.9083,4.1378,4.3586,4.4716,4.5725,4.7255,4.8169,4.8689,4.8738,4.9393,4.9942,4.9959,4.9993,5.0011,5.0011,4.9324,4.8841,4.8792,4.8203,4.8048,0.0,4.9531,5.0011,5.0011,5.0011,5.0011,5.0011,5.0011,5.0011,5.0011,5.0011,4.9649,4.8929,4.9451,4.9024,4.7655,4.7982,4.816,4.8258,4.8767,4.9001,4.9001,4.9001,4.9001,4.9001,4.9001,4.9001,4.9001,4.8984,4.8968,4.8883,4.8107,4.7394,4.6665,0.0,0.0,0.0,0.0,0.0,0.0,0.0,0.0,0.0,0.0,0.0,0.0,0.0,0.0,0.0,0.0,0.0,0.0,0.0,2.3448,2.4709,2.6233,2.7309,2.899,3.1386,3.2189,3.3327,3.4845,3.5604,3.6346,3.7077,3.7881,3.8916,4.0106,4.0106,4.04,4.0912,4.0912,4.0727,4.0382,3.914,3.864,3.8243,3.4673,3.2706,3.1585,0.0,0.0,0.0,0.0,0.0,0.0,2.9799,0.0,0.0,2.9541,0.0,0.0,0.0,0.0,3.7622,3.9917,4.2199,4.4221,4.5527,4.6393,4.7065,4.7582,4.7083,4.6535,4.6535,4.6759,4.7117,4.7651,4.8565,4.9393,4.9924,4.9769,4.922,4.8203,4.8289,0.0,0.0,0.0,0.0,4.9959,5.0011,5.0011,5.0011,5.0011,5.0011,5.0011,4.9528,4.9314,4.9436,4.9269,4.9309,4.9584,4.9616,4.93,4.8751,4.8924,4.9001,4.9001,4.9001,4.9001,4.9001,4.9001,4.9001,4.9001,4.9001,4.9001,4.8917,4.8174,4.8039,4.8088,0.0,0.0,0.0,0.0,0.0,0.0,0.0,0.0,0.0,0.0,0.0,0.0,0.0,0.0,0.0,0.0,0.0,0.0,0.0,0.0,2.4078,2.5116,2.6127,2.7556,2.9446,3.0205,3.1196,3.2465,3.3473,3.4231,3.4714,3.5794,3.6794,3.7709,3.7709,3.8123,3.8847,3.8582,3.8174,3.7588,3.6346,3.5535,3.4707,3.1447,2.9722,0.0,0.0,0.0,0.0,0.0,0.0,0.0,0.0,0.0,0.0,0.0,0.0,0.0,0.0,3.7726,4.0365,4.2647,4.4531,4.61,4.7151,4.7548,4.7703,4.7703,4.6466,4.5397,4.5397,4.5186,4.5255,4.6048,4.6979,4.7962,4.9031,4.8944,4.86,4.8151,4.8289,0.0,0.0,0.0,0.0,4.9942,5.0011,5.0011,5.0011,5.0011,5.0117,5.0375,4.968,4.9708,5.0589,4.974,4.9494,4.9879,4.982,4.9442,4.8781,4.8984,4.9078,4.9078,4.9017,4.9001,4.9001,4.9001,4.9001,4.9001,4.9001,4.9001,4.8951,4.8462,4.858,4.8832,0.0,0.0,0.0,0.0,0.0,0.0,0.0,0.0,0.0,0.0,0.0,0.0,0.0,0.0,0.0,0.0,0.0,0.0,0.0,0.0,0.0,2.3729,2.5047,2.6221,2.7161,2.7902,2.8661,2.9394,3.0886,3.1627,3.1662,3.3155,3.3879,3.3931,3.3931,3.4345,3.4983,3.4276,3.3965,3.3845,3.3007,3.1834,3.0326,2.7989,0.0,0.0,0.0,0.0,0.0,0.0,0.0,0.0,0.0,0.0,0.0,0.0,0.0,3.4983,3.8019,4.0469,4.2716,4.4996,4.6117,4.7031,4.8479,4.8169,4.7582,4.7582,4.6307,4.5173,0.0,0.0,4.4384,4.5221,4.5432,4.6069,4.7651,4.7272,4.7358,0.0,0.0,0.0,0.0,0.0,0.0,5.0048,0.0,5.0028,5.0048,5.0062,5.0393,5.1134,5.0432,5.0742,5.2186,5.0841,4.9663,4.8664,4.88,4.8707,4.8464,4.8983,4.9199,4.9184,4.9063,4.9001,4.9001,4.9001,4.9001,4.9001,4.9001,4.9001,4.9001,4.9001,4.9001,4.89,0.0,0.0,0.0,0.0,0.0,0.0,0.0,0.0,0.0,0.0,0.0,0.0,0.0,0.0,0.0,0.0,0.0,0.0,0.0,0.0,0.0,0.0,0.0,0.0,0.0,0.0,0.0,2.7851,2.8799,2.9265,2.9282,3.0231,3.0989,3.1568,3.1568,3.1982,3.2645,3.2482,3.2068,3.1447,0.0,2.9317,2.8661,0.0,0.0,0.0,0.0,0.0,0.0,0.0,0.0,0.0,0.0,0.0,3.2162,0.0,0.0,3.8123,4.1188,4.3251,4.5083,4.7362,4.7669,4.7669,4.86,4.7345,4.5983,4.5983,4.3889,4.2056,0.0,0.0,0.0,4.4264,4.601,0.0,4.9944,5.0065,0.0,5.0462,0.0,4.9703,5.0444,5.0013,0.0,0.0,5.0617,5.0252,5.0789,5.0824,5.1151,5.1892,5.1244,5.1314,5.2188,5.2268,5.1342,4.9421,5.0443,5.0254,4.9014,4.9136,4.9138,4.9048,4.9017,4.9001,4.9001,4.9001,4.9001,4.9001,4.9001,4.9001,4.9001,4.9001,4.9001,4.8984,0.0,0.0,0.0,0.0,0.0,0.0,0.0,0.0,0.0,0.0,0.0,0.0,0.0,0.0,0.0,0.0,0.0,0.0,0.0,0.0,0.0,0.0,0.0,0.0,0.0,0.0,0.0,0.0,0.0,0.0,2.6394,2.717,2.7764,2.8204,2.8204,2.861,2.9282,2.8954,0.0,0.0,0.0,0.0,0.0,0.0,0.0,0.0,0.0,0.0,0.0,0.0,0.0,3.0282,3.18,3.3248,3.4783,3.6743,0.0,4.1153,4.3522,4.5255,4.6776,4.8396,4.7996,4.7324,4.7738,4.6065,4.4337,4.3979,4.2026,0.0,0.0,0.0,0.0,0.0,0.0,0.0,4.9772,5.0393,5.0858,0.0,5.122,0.0,5.1548,5.091,5.0824,0.0,5.0944,5.0789,5.1548,5.1582,5.1927,5.2703,5.2018,5.1831,5.2203,5.2884,5.2253,5.0312,5.1081,5.0767,4.9547,4.9456,4.935,4.9216,0.0,4.9063,4.9001,4.9001,4.9001,4.9001,4.9001,4.9001,4.9001,4.9001,4.9001,4.9001,0.0,0.0,0.0,0.0,0.0,0.0,0.0,0.0,0.0,0.0,0.0,0.0,0.0,0.0,0.0,0.0,0.0,0.0,0.0,0.0,0.0,0.0,0.0,0.0,0.0,0.0,0.0,0.0,0.0,0.0,0.0,0.0,0.0,0.0,0.0,0.0,0.0,0.0,0.0,0.0,0.0,0.0,0.0,0.0,0.0,0.0,0.0,0.0,0.0,0.0,3.1585,3.1464,3.3231,3.5232,3.7249,3.8991,4.14,4.3832,4.5427,4.6828,4.7996,4.8651,4.7686,4.6548,4.6337,4.454,4.2672,4.1849,0.0,3.9905,4.0607,4.0825,4.1481,4.3207,0.0,4.6414,4.891,4.9858,5.0841,5.2323,5.2323,5.2237,5.2341,5.1686,5.1289,5.1393,5.141,5.1634,5.2168,5.2306,5.272,5.3529,5.2858,5.2461,5.2358,5.3048,5.2632,5.1099,5.1099,5.0703,4.995,4.9784,4.9605,4.9458,0.0,0.0,4.9001,4.9001,4.9001,4.9001,4.9001,4.9001,4.9001,4.9001,4.9001,4.9001,0.0,0.0,0.0,0.0,0.0,0.0,0.0,0.0,0.0,0.0,0.0,0.0,0.0,0.0,0.0,0.0,0.0,0.0,0.0,0.0,0.0,0.0,0.0,0.0,0.0,0.0,0.0,0.0,0.0,0.0,0.0,0.0,0.0,0.0,0.0,0.0,0.0,0.0,0.0,0.0,0.0,0.0,0.0,0.0,0.0,0.0,0.0,0.0,0.0,0.0,3.3068,3.4103,3.7456,3.9261,4.0641,4.341,4.46,4.5496,4.762,4.841,4.8651,4.8772,4.7686,4.6268,4.4988,4.2948,0.0,0.0,0.0,3.9733,3.9882,4.0451,4.1797,4.4565,0.0,0.0,0.0,0.0,5.2392,0.0,0.0,0.0,0.0,0.0,0.0,0.0,0.0,0.0,5.2237,5.2823,5.3546,5.4287,5.4168,5.3822,5.3201,5.3339,5.2632,5.1099,5.1099,5.0627,4.9737,4.9708,4.9545,4.9245,0.0,0.0,4.9001,4.9001,4.9001,4.9001,4.9001,4.9001,4.9001,4.9001,4.9001,4.9001,0.0,0.0,0.0,0.0,0.0,0.0,0.0,0.0,0.0,0.0,0.0,0.0,0.0,0.0,0.0,0.0,0.0,0.0,0.0,0.0,0.0,0.0,0.0,0.0,0.0,0.0,0.0,0.0,0.0,0.0,0.0,0.0,0.0,0.0,0.0,0.0,0.0,0.0,0.0,0.0,0.0,0.0,0.0,0.0,0.0,0.0,0.0,0.0,0.0,0.0,3.2507,3.4197,3.837,4.0796,4.2378,4.382,4.5359,4.6841,4.7927,4.8807,4.9324,4.891,4.7393,4.5462,4.3539,0.0,0.0,0.0,3.914,3.937,4.0175,0.0,0.0,0.0,0.0,0.0,0.0,0.0,0.0,0.0,0.0,0.0,0.0,0.0,0.0,0.0,0.0,0.0,5.3392,5.3754,5.4132,5.4494,5.4496,5.4149,5.3408,5.3408,5.2822,5.1668,5.1668,5.1434,5.1012,5.1012,5.0609,4.993,0.0,0.0,4.9001,4.9001,4.9001,4.9001,4.9001,4.9001,4.9001,4.9001,4.9001,4.9001,0.0,0.0,0.0,0.0,0.0,0.0,0.0,0.0,0.0,0.0,0.0,0.0,0.0,0.0,0.0,0.0,0.0,0.0,0.0,0.0,0.0,0.0,0.0,0.0,0.0,0.0,0.0,0.0,0.0,0.0,0.0,0.0,0.0,0.0,0.0,0.0,0.0,0.0,0.0,0.0,0.0,0.0,0.0,0.0,0.0,0.0,0.0,0.0,0.0,0.0,3.1481,3.3162,3.7404,4.0451,4.2551,4.3051,4.5109,4.7307,4.7807,4.8824,4.9513,4.8565,4.6845,4.4721,4.2107,4.0003,0.0,0.0,3.8485,3.902,4.0382,0.0,0.0,0.0,0.0,0.0,0.0,0.0,0.0,0.0,0.0,0.0,0.0,0.0,0.0,0.0,0.0,0.0,0.0,5.4496,5.4496,5.4496,5.4496,5.422,5.3649,5.3477,5.308,5.2461,5.2289,5.2203,5.2203,5.2203,5.1724,5.0897,0.0,0.0,0.0,4.9084,4.9001,4.9001,4.9001,4.9001,4.9001,4.9001,4.9001,4.9001,0.0,0.0,0.0,0.0,0.0,0.0,0.0,0.0,0.0,0.0,0.0,0.0,0.0,0.0,0.0,0.0,0.0,0.0,0.0,0.0,0.0,0.0,0.0,0.0,0.0,0.0,0.0,0.0,0.0,0.0,0.0,0.0,0.0,0.0,0.0,0.0,0.0,0.0,0.0,0.0,0.0,0.0,0.0,0.0,0.0,0.0,0.0,0.0,0.0,0.0,0.0,3.1447,3.4621,3.764,4.0434,4.2568,0.0,0.0,4.8137,4.8792,4.8582,4.7151,4.61,4.4432,4.075,0.0,0.0,3.7743,3.8123,3.8847,3.9658,0.0,0.0,0.0,0.0,4.4695,0.0,0.0,0.0,0.0,0.0,0.0,0.0,0.0,0.0,0.0,0.0,0.0,0.0,5.4496,5.4496,5.4496,5.4496,5.4477,5.4392,5.3736,5.3356,5.3287,5.2548,5.2203,5.2203,5.2203,5.2077,5.1821,0.0,0.0,0.0,4.9351,4.9001,4.9001,4.9001,4.9001,4.9001,4.9001,4.9001,4.9001,0.0,0.0,0.0,0.0,0.0,0.0,0.0,0.0,0.0,0.0,0.0,0.0,0.0,0.0,0.0,0.0,0.0,0.0,0.0,0.0,0.0,0.0,0.0,0.0,0.0,0.0,0.0,0.0,0.0,0.0,0.0,0.0,0.0,0.0,0.0,0.0,0.0,0.0,0.0,0.0,0.0,0.0,0.0,0.0,0.0,0.0,0.0,0.0,0.0,0.0,0.0,0.0,3.1964,3.4259,0.0,0.0,4.2884,4.4665,4.7393,4.8448,4.8462,4.6962,4.5665,4.3854,4.0474,0.0,3.7985,3.8123,3.8399,3.8968,4.0193,4.0676,0.0,0.0,0.0,0.0,4.5682,0.0,0.0,0.0,0.0,0.0,0.0,0.0,0.0,0.0,0.0,0.0,0.0,5.4496,5.4496,5.4496,5.4496,5.4287,5.3839,5.3546,5.3408,5.3408,5.308,5.3151,5.3582,5.3582,5.3246,5.2624,0.0,0.0,0.0,4.9662,4.9332,4.9661,4.9661,4.939,4.9052,4.9492,4.9661,4.9593,0.0,0.0,0.0,0.0,0.0,0.0,0.0,0.0,0.0,0.0,0.0,0.0,0.0,0.0,0.0,0.0,0.0,0.0,0.0,0.0,0.0,0.0,0.0,0.0,0.0,0.0,0.0,0.0,0.0,0.0,0.0,0.0,0.0,0.0,0.0,0.0,0.0,0.0,0.0,0.0,0.0,0.0,0.0,0.0,0.0,0.0,0.0,0.0,0.0,0.0,0.0,0.0,0.0,0.0,0.0,0.0,4.0791,4.3086,4.5665,4.7065,4.7548,4.6496,4.4923,4.2935,0.0,0.0,3.7967,3.8485,3.8778,3.933,4.067,4.0912,4.0912,4.0912,0.0,4.1619,4.369,0.0,0.0,0.0,0.0,0.0,0.0,0.0,0.0,0.0,0.0,0.0,0.0,5.4496,5.4496,5.4496,5.4496,5.4253,5.3736,5.3736,5.3736,5.3736,5.3736,5.4011,5.4496,5.4496,5.4138,0.0,0.0,0.0,0.0,5.045,5.0002,5.0196,5.0369,4.9965,4.9407,5.0152,5.0422,5.0321,0.0,0.0,0.0,0.0,0.0,0.0,0.0,0.0,0.0,0.0,0.0,0.0,0.0,0.0,0.0,0.0,0.0,0.0,0.0,0.0,0.0,0.0,0.0,0.0,0.0,0.0,0.0,0.0,0.0,0.0,0.0,0.0,0.0,0.0,0.0,0.0,0.0,0.0,0.0,0.0,0.0,0.0,0.0,0.0,0.0,0.0,0.0,0.0,0.0,0.0,0.0,0.0,0.0,0.0,0.0,0.0,3.795,4.1257,4.281,4.432,4.5432,4.5414,4.3699,4.1624,0.0,0.0,3.8588,3.8606,3.9181,3.9951,4.0745,4.0912,4.0912,4.0912,4.0912,0.0,4.2982,0.0,0.0,0.0,0.0,0.0,0.0,0.0,0.0,0.0,0.0,0.0,0.0,0.0,5.4496,5.4496,5.4496,5.4496,5.4494,5.4494,5.4494,5.4494,5.4494,5.4478,5.4496,5.4496,0.0,0.0,0.0,0.0,0.0,5.1921,5.1064,5.0455,5.0978,5.0744,5.0184,5.0914,5.1184,5.1083,0.0,0.0,0.0,0.0,0.0,0.0,0.0,0.0,0.0,0.0,0.0,0.0,0.0,0.0,0.0,0.0,0.0,0.0,0.0,0.0,0.0,0.0,0.0,0.0,0.0,0.0,0.0,0.0,0.0,0.0,0.0,0.0,0.0,0.0,0.0,0.0,0.0,0.0,0.0,0.0,0.0,0.0,0.0,0.0,0.0,0.0,0.0,0.0,0.0,0.0,0.0,0.0,0.0,0.0,0.0,0.0,0.0,0.0,4.0929,4.2332,4.2957,4.244,4.1383,4.0037,3.8537,0.0,3.7985,3.8502,3.9192,3.9951,4.0745,4.0912,4.0912,4.0912,4.0912,0.0,0.0,0.0,0.0,0.0,0.0,0.0,0.0,0.0,0.0,0.0,0.0,0.0,0.0,0.0,5.4496,5.4496,5.4496,5.4496,5.4496,5.4496,5.4496,5.4496,5.4496,5.4496,5.4496,5.4496,0.0,0.0,0.0,0.0,0.0,5.2397,5.162,5.1359,5.2078,5.1522,5.046,5.17,5.2076,5.1775,0.0,0.0,0.0,0.0,0.0,0.0,0.0,0.0,0.0,0.0,0.0,0.0,0.0,0.0,0.0,0.0,0.0,0.0,0.0,0.0,0.0,0.0,0.0,0.0,0.0,0.0,0.0,0.0,0.0,0.0,0.0,0.0,0.0,0.0,0.0,0.0,0.0,0.0,0.0,0.0,0.0,0.0,0.0,0.0,0.0,0.0,0.0,0.0,0.0,0.0,0.0,0.0,0.0,0.0,0.0,0.0,0.0,0.0,0.0,4.0365,4.109,4.0946,3.9882,0.0,0.0,0.0,3.8054,3.8502,3.9434,4.0313,4.0808,4.0912,4.0912,0.0,0.0,0.0,0.0,0.0,0.0,0.0,0.0,0.0,0.0,0.0,0.0,0.0,0.0,0.0,0.0,0.0,5.4496,5.4496,5.4496,5.4496,5.4496,5.4496,5.4496,5.4496,5.4496,5.4496,5.4496,0.0,0.0,0.0,0.0,0.0,0.0,5.3242,5.2598,5.23,5.3039,5.2515,5.1483,5.2594,5.2938,5.2636,0.0,0.0,0.0,0.0,0.0,0.0,0.0,0.0,0.0,0.0,0.0,0.0,0.0,0.0,0.0,0.0,0.0,0.0,0.0,0.0,0.0,0.0,0.0,0.0,0.0,0.0,0.0,0.0,0.0,0.0,0.0,0.0,0.0,0.0,0.0,0.0,0.0,0.0,0.0,0.0,0.0,0.0,0.0,0.0,0.0,0.0,0.0,0.0,0.0,0.0,0.0,0.0,0.0,0.0,0.0,0.0,0.0,0.0,0.0,0.0,0.0,0.0,0.0,0.0,0.0,0.0,0.0,3.8606,3.983,4.0912,4.0912,4.0912,4.0912,0.0,0.0,0.0,0.0,0.0,0.0,0.0,0.0,0.0,0.0,0.0,0.0,0.0,0.0,0.0,0.0,0.0,0.0,5.4496,5.4496,5.4496,5.4496,5.4496,5.4496,5.4496,5.4496,5.4496,5.4496,0.0,0.0,0.0,0.0,0.0,0.0,5.4303,5.3776,5.3174,5.3803,5.3585,5.2972,5.3527,5.37,5.3548,0.0,0.0,0.0,0.0,0.0,0.0,0.0,0.0,0.0,0.0,0.0,0.0,0.0,0.0,0.0,0.0,0.0,0.0,0.0,0.0,0.0,0.0,0.0,0.0,0.0,0.0,0.0,0.0,0.0,0.0,0.0,0.0,0.0,0.0,0.0,0.0,0.0,0.0,0.0,0.0,0.0,0.0,0.0,0.0,0.0,0.0,2.7497,0.0,0.0,0.0,0.0,0.0,0.0,0.0,0.0,0.0,3.3948,0.0,0.0,0.0,0.0,0.0,0.0,0.0,0.0,0.0,0.0,0.0,0.0,4.0912,4.0912,4.0912,4.0912,0.0,0.0,0.0,0.0,0.0,0.0,0.0,0.0,0.0,0.0,0.0,0.0,0.0,0.0,0.0,0.0,0.0,0.0,5.4496,5.4496,5.4496,5.4496,5.4496,5.4496,5.4496,5.4496,5.4496,5.4496,0.0,0.0,0.0,0.0,0.0,5.4496,5.4448,5.4,5.3397,5.4108,5.384,5.3129,5.3723,5.3833,5.3497,0.0,0.0,0.0,0.0,0.0,0.0,0.0,0.0,0.0,0.0,0.0,0.0,0.0,0.0,0.0,0.0,0.0,0.0,0.0,0.0,0.0,0.0,0.0,0.0,0.0,0.0,0.0,0.0,0.0,0.0,0.0,0.0,0.0,0.0,0.0,0.0,0.0,0.0,0.0,0.0,0.0,0.0,0.0,0.0,0.0,0.0,2.7678,2.8541,0.0,2.992,3.0834,3.18,0.0,0.0,0.0,0.0,3.4103,0.0,0.0,0.0,0.0,0.0,0.0,0.0,0.0,0.0,0.0,0.0,0.0,4.0912,4.0912,4.0912,0.0,0.0,0.0,0.0,0.0,0.0,0.0,0.0,0.0,0.0,0.0,0.0,0.0,0.0,0.0,0.0,0.0,0.0,0.0,0.0,5.4496,5.4496,5.4496,5.4496,5.4496,5.4496,5.4496,5.4496,5.4496,0.0,0.0,0.0,0.0,0.0,5.4496,5.4496,5.4254,5.3927,5.4339,5.419,5.3768,5.4005,5.4012,5.3812,0.0,0.0,0.0,0.0,0.0,0.0,0.0,0.0,0.0,0.0,0.0,0.0,0.0,0.0,0.0,0.0,0.0,0.0,0.0,0.0,0.0,0.0,0.0,0.0,0.0,0.0,0.0,0.0,0.0,0.0,0.0,0.0,0.0,0.0,0.0,0.0,0.0,0.0,0.0,0.0,0.0,0.0,0.0,0.0,0.0,0.0,0.0,0.0,0.0,3.0429,3.1188,3.18,3.18,0.0,0.0,0.0,0.0,0.0,0.0,0.0,0.0,0.0,0.0,0.0,0.0,0.0,0.0,0.0,0.0,0.0,0.0,0.0,0.0,0.0,0.0,0.0,0.0,0.0,0.0,0.0,0.0,0.0,0.0,0.0,0.0,0.0,0.0,0.0,0.0,0.0,0.0,0.0,5.4496,5.4496,5.4496,5.4496,5.4496,5.4496,5.4496,5.4496,5.4496,5.4496,0.0,0.0,0.0,0.0,5.4496,5.4496,5.4496,5.4496,5.4496,5.4496,5.448,5.4271,5.419,5.4157,0.0,0.0,0.0,0.0,0.0,0.0,0.0,0.0,0.0,0.0,0.0,0.0,0.0,0.0,0.0,0.0,0.0,0.0,0.0,0.0,0.0,0.0,0.0,0.0,0.0,0.0,0.0,0.0,0.0,0.0,0.0,0.0,0.0,0.0,0.0,0.0,0.0,0.0,0.0,0.0,0.0,0.0,0.0,0.0,0.0,0.0,0.0,0.0,0.0,3.0429,3.1188,3.18,3.18,0.0,0.0,0.0,0.0,0.0,3.5904,3.6812,3.7157,3.6473,3.6898,0.0,0.0,0.0,0.0,0.0,0.0,0.0,0.0,0.0,0.0,0.0,0.0,0.0,0.0,0.0,0.0,0.0,0.0,0.0,0.0,0.0,0.0,0.0,0.0,0.0,0.0,0.0,0.0,0.0,0.0,5.4496,5.4496,5.4496,5.4496,5.4496,5.4496,5.4496,5.4496,5.4496,5.4496,0.0,0.0,5.4496,5.4496,5.4496,5.4496,5.4496,5.4496,5.4496,5.448,5.4271,5.419,5.4088,0.0,0.0,0.0,0.0,0.0,0.0,0.0,0.0,0.0,0.0,0.0,0.0,0.0,0.0,0.0,0.0,0.0,0.0,0.0,0.0,0.0,0.0,0.0,0.0,0.0,0.0,0.0,0.0,0.0,0.0,0.0,0.0,0.0,0.0,0.0,0.0,0.0,0.0,0.0,0.0,0.0,0.0,0.0,0.0,0.0,0.0,0.0,0.0,0.0,0.0,3.1524,3.18,3.18,0.0,0.0,0.0,0.0,0.0,3.5904,3.657,3.6863,3.6932,0.0,3.8485,3.7674,0.0,0.0,0.0,0.0,0.0,0.0,0.0,0.0,0.0,0.0,0.0,0.0,0.0,0.0,0.0,0.0,0.0,0.0,0.0,0.0,0.0,0.0,0.0,0.0,0.0,0.0,0.0,0.0,0.0,5.4496,5.4496,5.4496,5.4496,5.4496,5.4496,5.4496,5.4496,5.4496,5.4496,0.0,5.4496,5.4496,5.4496,5.4496,5.4496,5.4496,5.4496,5.4496,5.4399,5.4351,5.4232,0.0,0.0,0.0,0.0,0.0,0.0,0.0,0.0,0.0,0.0,0.0,0.0,0.0,0.0,0.0,0.0,0.0,0.0,0.0,0.0,0.0,0.0,0.0,0.0,0.0,0.0,0.0,0.0,0.0,0.0,0.0,0.0,0.0,0.0,0.0,0.0,0.0,0.0,0.0,0.0,0.0,0.0,0.0,0.0,0.0,0.0,0.0,0.0,0.0,0.0,0.0,0.0,0.0,0.0,0.0,0.0,3.4103,3.4414,3.5904,3.6439,3.6691,0.0,0.0,3.8985,3.8192,0.0,0.0,0.0,0.0,0.0,0.0,0.0,0.0,0.0,0.0,0.0,0.0,0.0,0.0,0.0,0.0,0.0,0.0,0.0,0.0,0.0,0.0,0.0,0.0,0.0,0.0,0.0,0.0,0.0,5.4496,5.4496,5.4496,5.4496,5.4496,5.4496,5.4496,5.4496,5.4496,5.4496,5.4496,5.4496,5.4496,5.4496,5.4496,5.4496,5.4496,5.4496,5.4496,5.4496,5.4496,5.4394,0.0,0.0,0.0,0.0,0.0,0.0,0.0,0.0,0.0,0.0,0.0,0.0,0.0,0.0,0.0,0.0,0.0,0.0,0.0,0.0,0.0,0.0,0.0,0.0,0.0,0.0,0.0,0.0,0.0,0.0,0.0,0.0,0.0,0.0,0.0,0.0,0.0,0.0,0.0,0.0,0.0,0.0,0.0,0.0,0.0,0.0,0.0,0.0,0.0,0.0,0.0,0.0,0.0,0.0,0.0,0.0,3.4103,3.4414,3.5904,3.6846,3.7243,3.6559,3.7036,0.0,3.925,4.0779,0.0,4.1849,0.0,0.0,0.0,0.0,0.0,0.0,0.0,0.0,0.0,0.0,0.0,0.0,0.0,0.0,0.0,0.0,0.0,0.0,0.0,0.0,0.0,0.0,0.0,0.0,0.0,0.0,5.4496,5.4496,5.4496,5.4496,5.4496,5.4496,5.4496,5.4496,5.4496,5.4496,5.4496,5.4496,5.4496,5.4496,5.4496,5.4496,5.4496,5.4496,5.4496,5.4496,5.4496,5.4478,0.0,0.0,0.0,0.0,0.0,0.0,0.0,0.0,0.0,0.0,0.0,0.0,0.0,0.0,0.0,0.0,0.0,0.0,0.0,0.0,0.0,0.0,0.0,0.0,0.0,0.0,0.0,0.0,0.0,0.0,0.0,0.0,0.0,0.0,0.0,0.0,0.0,0.0,0.0,0.0,0.0,0.0,0.0,0.0,0.0,0.0,0.0,0.0,0.0,0.0,0.0,0.0,0.0,0.0,0.0,0.0,3.3352,3.368,3.5197,3.6163,3.6915,3.7571,3.8312,0.0,0.0,4.1642,4.2758,0.0,0.0,0.0,0.0,0.0,0.0,0.0,0.0,0.0,0.0,0.0,0.0,0.0,0.0,0.0,0.0,0.0,0.0,0.0,0.0,0.0,0.0,0.0,0.0,0.0,0.0,0.0,0.0,5.4496,5.4496,5.4496,5.4496,5.4496,5.4496,5.4496,5.4496,5.4496,5.4496,5.4496,5.4496,5.4496,5.4496,5.4496,5.4496,5.4496,5.4496,5.4496,5.4496,5.4496,0.0,0.0,0.0,0.0,0.0,0.0,0.0,0.0,0.0,0.0,0.0,0.0,0.0,0.0,0.0,0.0,0.0,0.0,0.0,0.0,0.0,0.0,0.0,0.0,0.0,0.0,0.0,0.0,0.0,0.0,0.0,0.0,0.0,0.0,0.0,0.0,0.0,0.0,0.0,0.0,0.0,0.0,0.0,0.0,0.0,0.0,0.0,0.0,0.0,0.0,0.0,0.0,0.0,0.0,0.0,0.0,3.3076,3.3559,3.4852,3.5742,3.6611,0.0,0.0,0.0,4.1573,4.316,4.4333,0.0,0.0,0.0,0.0,0.0,0.0,0.0,0.0,0.0,0.0,0.0,0.0,0.0,0.0,0.0,0.0,0.0,0.0,0.0,0.0,0.0,0.0,0.0,0.0,0.0,0.0,0.0,0.0,5.4496,5.4496,5.4496,5.4496,5.4496,5.4496,5.4496,5.4496,5.4496,5.4496,5.4496,5.4496,5.4496,5.4496,5.4496,5.4496,5.4496,5.4496,5.4496,5.4496,5.4496,0.0,0.0,0.0,0.0,0.0,0.0,0.0,0.0,0.0,0.0,0.0,0.0,0.0,0.0,0.0,0.0,0.0,0.0,0.0,0.0,0.0,0.0,0.0,0.0,0.0,0.0,0.0,0.0,0.0,0.0,0.0,0.0,0.0,0.0,0.0,0.0,0.0,0.0,0.0,0.0,0.0,0.0,0.0,0.0,0.0,0.0,0.0,0.0,0.0,0.0,3.18,3.18,0.0,0.0,0.0,3.2679,3.3455,3.4259,3.5,3.5732,0.0,0.0,0.0,0.0,4.3448,4.5475,4.6772,0.0,0.0,0.0,0.0,0.0,0.0,0.0,0.0,0.0,0.0,0.0,0.0,0.0,0.0,0.0,0.0,0.0,0.0,0.0,0.0,0.0,0.0,0.0,0.0,0.0,0.0,0.0,0.0,5.4496,5.4496,5.4496,5.4496,5.4496,5.4496,5.4496,5.4496,5.4496,5.4496,5.4496,5.4496,5.4496,5.4496,5.4496,5.4496,5.4496,5.4496,5.4496,5.4496,5.4496,0.0,0.0,0.0,0.0,0.0,0.0,0.0,0.0,0.0,0.0,0.0,0.0,0.0,0.0,0.0,0.0,0.0,0.0,0.0,0.0,0.0,0.0,0.0,0.0,0.0,0.0,0.0,0.0,0.0,0.0,0.0,0.0,0.0,0.0,0.0,0.0,0.0,0.0,0.0,0.0,0.0,0.0,0.0,0.0,0.0,0.0,0.0,0.0,0.0,0.0,0.0,0.0,0.0,0.0,0.0,3.2214,3.3068,3.4155,3.4362,0.0,0.0,0.0,0.0,0.0,0.0,4.4613,0.0,0.0,0.0,0.0,0.0,0.0,0.0,0.0,0.0,0.0,0.0,0.0,0.0,0.0,0.0,0.0,0.0,0.0,0.0,0.0,0.0,0.0,0.0,0.0,0.0,0.0,0.0,0.0,0.0,0.0,5.4496,5.4496,5.4496,5.4496,5.4496,5.4496,5.4496,5.4496,5.4496,5.4496,5.4496,5.4496,5.4496,5.4496,5.4496,5.4496,5.4496,5.4496,5.4496,5.4496,0.0,0.0,0.0,0.0,0.0,0.0,0.0,0.0,0.0,0.0,0.0,0.0,0.0,0.0,0.0,0.0,0.0,0.0,0.0,0.0,0.0,0.0,0.0,0.0,0.0,0.0,0.0,0.0,0.0,0.0,0.0,0.0,0.0,0.0,0.0,0.0,0.0,0.0,0.0,0.0,0.0,0.0,0.0,0.0,0.0,0.0,0.0,0.0,0.0,0.0,0.0,0.0,0.0,0.0,0.0,3.2283,3.312,3.4155,3.4448,0.0,0.0,0.0,0.0,0.0,0.0,0.0,0.0,0.0,0.0,0.0,0.0,0.0,0.0,0.0,0.0,0.0,0.0,0.0,0.0,0.0,0.0,0.0,0.0,0.0,0.0,0.0,0.0,0.0,0.0,0.0,0.0,0.0,0.0,0.0,0.0,0.0,0.0,5.4063,5.4063,5.422,5.4496,5.4496,5.4496,5.4496,5.4496,5.4636,5.485,5.485,5.5,5.5209,5.5209,5.5209,5.5209,5.5209,5.5209,5.5209,0.0,0.0,0.0,0.0,0.0,0.0,0.0,0.0,0.0,0.0,0.0,0.0,0.0,0.0,0.0,0.0,0.0,0.0,0.0,0.0,0.0,0.0,0.0,0.0,0.0,0.0,0.0,0.0,0.0,0.0,0.0,0.0,0.0,0.0,0.0,0.0,0.0,0.0,0.0,0.0,0.0,0.0,0.0,0.0,0.0,0.0,0.0,0.0,0.0,0.0,0.0,0.0,3.1809,3.1913,3.2137,3.2714,3.3559,3.4448,0.0,0.0,0.0,0.0,0.0,0.0,0.0,0.0,0.0,0.0,0.0,0.0,0.0,0.0,0.0,0.0,0.0,0.0,0.0,0.0,0.0,0.0,0.0,0.0,0.0,0.0,0.0,0.0,0.0,0.0,0.0,0.0,0.0,0.0,0.0,0.0,0.0,0.0,5.3979,0.0,5.3383,5.373,5.4392,5.4392,5.4474,5.4573,5.4573,5.4926,5.5473,5.5473,5.5819,5.6303,5.6303,5.6303,5.6303,5.6303,5.6303,5.6303,0.0,0.0,0.0,0.0,0.0,0.0,0.0,0.0,0.0,0.0,0.0,0.0,0.0,0.0,0.0,0.0,0.0,0.0,0.0,0.0,0.0,0.0,0.0,0.0,0.0,0.0,0.0,0.0,0.0,0.0,0.0,0.0,0.0,0.0,0.0,0.0,0.0,0.0,0.0,0.0,0.0,0.0,0.0,0.0,0.0,0.0,0.0,0.0,0.0,0.0,0.0,0.0,3.1827,3.2637,3.3517,3.3041,3.4283,0.0,0.0,3.6777,0.0,0.0,0.0,0.0,0.0,0.0,0.0,0.0,0.0,0.0,0.0,0.0,0.0,0.0,0.0,0.0,0.0,0.0,0.0,0.0,0.0,0.0,0.0,0.0,0.0,0.0,0.0,0.0,0.0,0.0,0.0,0.0,0.0,5.3839,5.4254,5.322,5.2927,0.0,5.3184,5.3274,5.3649,5.3649,5.4204,5.5209,5.5209,5.5546,5.6111,5.6111,5.618,5.6303,5.6303,5.6303,5.6303,5.6303,5.6303,5.6303,0.0,0.0,0.0,0.0,0.0,0.0,0.0,0.0,0.0,0.0,0.0,0.0,0.0,0.0,0.0,0.0,0.0,0.0,0.0,0.0,0.0,0.0,0.0,0.0,0.0,0.0,0.0,0.0,0.0,0.0,0.0,0.0,0.0,0.0,0.0,0.0,0.0,0.0,0.0,0.0,0.0,0.0,0.0,0.0,0.0,0.0,0.0,0.0,0.0,0.0,0.0,0.0,0.0,0.0,3.4017,3.3603,3.4559,0.0,0.0,0.0,0.0,0.0,0.0,0.0,0.0,0.0,0.0,0.0,0.0,0.0,0.0,0.0,0.0,0.0,0.0,0.0,0.0,0.0,0.0,0.0,0.0,0.0,0.0,0.0,0.0,0.0,0.0,0.0,0.0,0.0,0.0,0.0,5.341,5.3013,5.3392,5.2599,5.2371,5.2685,5.2932,5.325,5.366,5.4137,5.4901,5.583,5.583,5.6166,5.6673,5.6673,5.6861,5.7109,5.7109,5.7109,5.7109,5.7109,5.7109,5.7054,0.0,0.0,0.0,0.0,0.0,0.0,0.0,0.0,0.0,0.0,0.0,0.0,0.0,0.0,0.0,0.0,0.0,0.0,0.0,0.0,0.0,0.0,0.0,0.0,0.0,0.0,0.0,0.0,0.0,0.0,0.0,0.0,0.0,0.0,0.0,0.0,0.0,0.0,0.0,0.0,0.0,0.0,0.0,0.0,0.0,0.0,0.0,0.0,0.0,3.2032,0.0,0.0,0.0,0.0,3.4293,3.4323,0.0,0.0,0.0,0.0,4.0003,0.0,0.0,0.0,0.0,0.0,0.0,0.0,0.0,0.0,0.0,0.0,0.0,0.0,0.0,0.0,0.0,0.0,0.0,0.0,0.0,0.0,0.0,0.0,0.0,0.0,0.0,0.0,0.0,0.0,5.3822,5.4289,5.2944,5.2231,5.2336,5.2092,5.2001,5.2036,5.2711,5.3433,5.4228,5.5088,5.5758,5.6242,5.6367,5.6757,5.7271,5.7271,5.7546,5.7997,5.7997,5.7997,5.7978,5.7831,5.7795,5.7685,0.0,0.0,0.0,0.0,0.0,0.0,0.0,0.0,0.0,0.0,0.0,0.0,0.0,0.0,0.0,0.0,0.0,0.0,0.0,0.0,0.0,0.0,0.0,0.0,0.0,0.0,0.0,0.0,0.0,0.0,0.0,0.0,0.0,0.0,0.0,0.0,0.0,0.0,0.0,0.0,0.0,0.0,0.0,0.0,0.0,0.0,0.0,0.0,0.0,0.0,3.291,0.0,0.0,0.0,0.0,0.0,0.0,0.0,0.0,0.0,4.121,0.0,0.0,0.0,0.0,0.0,0.0,0.0,0.0,0.0,0.0,0.0,0.0,0.0,0.0,0.0,0.0,0.0,0.0,0.0,0.0,0.0,0.0,0.0,0.0,0.0,0.0,0.0,0.0,5.441,5.4115,5.3563,5.2668,5.2424,5.2882,5.1616,5.1532,5.2588,5.2695,5.3666,5.5373,5.5692,5.5891,5.599,5.6695,5.7333,5.7886,5.7886,5.792,5.7997,5.7997,5.7997,5.7923,5.7226,5.6957,5.6847,0.0,0.0,0.0,0.0,0.0,0.0,0.0,0.0,0.0,0.0,0.0,0.0,0.0,0.0,0.0,0.0,0.0,0.0,0.0,0.0,0.0,0.0,0.0,0.0,0.0,0.0,0.0,0.0,0.0,0.0,0.0,2.9729,3.0317,0.0,0.0,0.0,0.0,0.0,0.0,0.0,0.0,0.0,0.0,0.0,0.0,0.0,0.0,0.0,0.0,0.0,0.0,0.0,0.0,0.0,0.0,0.0,0.0,0.0,3.7904,3.9542,4.1447,0.0,0.0,0.0,0.0,0.0,0.0,0.0,0.0,0.0,0.0,0.0,0.0,0.0,0.0,0.0,0.0,0.0,0.0,0.0,0.0,0.0,0.0,0.0,0.0,0.0,0.0,0.0,5.3873,5.3348,5.3075,5.3162,5.2323,0.0,5.2825,5.1785,5.1905,5.3199,5.3507,5.4335,5.5611,5.6154,5.6664,5.7102,5.7448,5.7762,5.7997,5.7997,5.7997,5.7997,5.7997,5.7997,5.7905,5.7097,5.6792,5.6609,0.0,0.0,0.0,0.0,0.0,0.0,0.0,0.0,0.0,0.0,0.0,0.0,0.0,0.0,0.0,0.0,0.0,0.0,0.0,0.0,0.0,0.0,0.0,0.0,0.0,0.0,0.0,0.0,0.0,0.0,2.8755,3.0145,3.0942,0.0,3.1168,0.0,0.0,0.0,0.0,0.0,0.0,0.0,0.0,0.0,0.0,0.0,0.0,0.0,0.0,0.0,0.0,0.0,0.0,0.0,0.0,0.0,0.0,0.0,0.0,0.0,4.0896,4.2926,4.4156,0.0,0.0,0.0,0.0,0.0,0.0,0.0,0.0,0.0,0.0,0.0,0.0,0.0,0.0,0.0,0.0,0.0,0.0,0.0,0.0,0.0,0.0,0.0,0.0,0.0,5.326,5.259,5.2411,5.2919,5.2235,5.2121,5.2622,5.2215,5.2521,5.351,5.4107,5.4821,5.5622,5.6268,5.6984,5.7767,5.7951,5.8042,5.8042,5.8095,5.7966,5.7749,5.7749,5.7609,5.7281,5.6492,5.6187,5.5985,0.0,0.0,0.0,0.0,0.0,0.0,0.0,0.0,0.0,0.0,0.0,0.0,0.0,0.0,0.0,0.0,0.0,0.0,0.0,0.0,0.0,0.0,0.0,0.0,0.0,0.0,0.0,0.0,0.0,0.0,2.9642,3.043,3.1237,3.2047,3.21,3.2118,3.2108,0.0,0.0,0.0,0.0,0.0,0.0,0.0,0.0,0.0,0.0,0.0,0.0,0.0,0.0,0.0,0.0,0.0,0.0,0.0,0.0,0.0,0.0,3.8466,0.0,4.0763,0.0,0.0,0.0,0.0,0.0,0.0,0.0,0.0,0.0,0.0,0.0,0.0,0.0,0.0,0.0,0.0,0.0,0.0,0.0,0.0,0.0,0.0,0.0,0.0,0.0,0.0,5.2992,5.2979,5.2858,5.2716,5.2661,5.257,5.2422,5.2886,5.315,5.3237,5.4021,5.4821,5.5603,5.5775,5.6279,5.71,5.7854,5.8186,5.8197,5.8338,5.7844,5.7063,5.7063,5.65,5.5622,5.4821,5.4528,5.4399,0.0,0.0,0.0,0.0,0.0,0.0,0.0,0.0,0.0,0.0,0.0,0.0,0.0,0.0,0.0,0.0,0.0,0.0,0.0,0.0,0.0,0.0,0.0,0.0,0.0,0.0,0.0,0.0,0.0,2.985,2.9737,3.1029,3.1803,3.2099,3.2117,3.2144,3.2161,3.2144,0.0,0.0,0.0,0.0,0.0,0.0,0.0,0.0,0.0,0.0,0.0,0.0,0.0,0.0,0.0,0.0,0.0,0.0,0.0,0.0,0.0,0.0,0.0,4.0429,0.0,0.0,0.0,0.0,0.0,0.0,0.0,0.0,0.0,0.0,0.0,0.0,0.0,0.0,0.0,0.0,0.0,0.0,0.0,0.0,0.0,0.0,0.0,0.0,0.0,0.0,5.2768,5.2677,5.2572,5.2516,5.2836,5.2978,5.2912,5.3092,5.3209,5.3264,5.4083,5.4659,5.5036,5.5602,5.6029,5.6306,5.6686,5.6805,5.673,5.6773,5.6607,5.6287,5.6287,5.6057,5.5628,5.4782,5.4445,5.4216,0.0,0.0,0.0,0.0,0.0,0.0,0.0,0.0,0.0,0.0,0.0,0.0,0.0,0.0,0.0,0.0,0.0,0.0,0.0,0.0,0.0,0.0,0.0,0.0,0.0,0.0,0.0,0.0,0.0,0.0,0.0,0.0,3.2099,3.2099,3.2099,0.0,0.0,0.0,0.0,3.2731,0.0,0.0,3.3761,0.0,0.0,0.0,0.0,0.0,0.0,0.0,0.0,0.0,0.0,0.0,0.0,0.0,0.0,0.0,3.7252,0.0,0.0,0.0,0.0,0.0,0.0,0.0,0.0,0.0,0.0,0.0,0.0,0.0,0.0,0.0,0.0,0.0,0.0,0.0,0.0,0.0,0.0,0.0,0.0,0.0,0.0,0.0,0.0,0.0,5.2559,5.248,5.2477,5.2654,5.3017,5.3217,5.323,5.323,5.3274,5.3388,5.418,5.4617,5.4716,5.5293,5.5554,5.5564,5.5399,5.5564,5.596,5.602,5.5844,5.5572,5.5512,5.5291,5.4891,5.4289,5.4041,5.3812,0.0,0.0,0.0,0.0,0.0,0.0,0.0,0.0,0.0,0.0,0.0,0.0,0.0,0.0,0.0,0.0,0.0,0.0,0.0,0.0,0.0,0.0,0.0,0.0,0.0,0.0,0.0,0.0,0.0,0.0,0.0,0.0,3.2099,0.0,3.2099,3.2099,3.2108,0.0,3.2818,3.3412,0.0,3.393,3.4539,0.0,0.0,0.0,3.5496,3.5953,0.0,0.0,0.0,0.0,0.0,0.0,0.0,0.0,0.0,0.0,0.0,0.0,0.0,0.0,0.0,0.0,0.0,0.0,0.0,0.0,0.0,0.0,0.0,0.0,0.0,0.0,0.0,0.0,0.0,0.0,0.0,0.0,0.0,0.0,0.0,0.0,0.0,0.0,0.0,5.1873,5.2408,5.2431,5.2665,5.3185,5.3206,5.3241,5.3318,5.3318,5.3369,5.3509,5.4302,5.4671,5.4671,5.4812,5.488,5.4825,5.4117,5.4654,5.6029,5.6159,5.5685,5.4852,5.4714,5.4131,5.3308,5.323,5.3206,5.3067,0.0,0.0,0.0,0.0,0.0,0.0,0.0,0.0,0.0,0.0,0.0,0.0,0.0,0.0,0.0,0.0,0.0,0.0,0.0,0.0,0.0,0.0,0.0,0.0,0.0,0.0,0.0,0.0,0.0,0.0,0.0,0.0,0.0,0.0,3.2099,3.2117,3.2205,3.2853,0.0,0.0,3.4017,3.4709,0.0,0.0,0.0,0.0,0.0,3.649,0.0,0.0,3.6651,3.6534,0.0,0.0,0.0,0.0,0.0,0.0,3.6544,0.0,0.0,0.0,0.0,0.0,0.0,0.0,0.0,0.0,0.0,0.0,0.0,0.0,0.0,0.0,0.0,0.0,0.0,0.0,0.0,0.0,0.0,0.0,0.0,0.0,0.0,0.0,5.2915,5.304,5.3185,5.3196,5.3266,5.3408,5.3427,5.3429,5.344,5.344,5.3509,5.3646,5.3868,5.399,5.405,5.4079,5.4099,5.4099,5.3886,5.4053,5.4433,5.4481,5.4351,5.4089,5.407,5.3862,5.3596,5.3566,5.3437,5.3064,0.0,0.0,0.0,0.0,0.0,0.0,0.0,0.0,0.0,0.0,0.0,0.0,0.0,0.0,0.0,0.0,0.0,0.0,0.0,0.0,0.0,0.0,0.0,0.0,0.0,0.0,0.0,0.0,0.0,0.0,0.0,0.0,0.0,0.0,0.0,0.0,0.0,0.0,0.0,0.0,3.4763,0.0,0.0,3.6088,3.6337,0.0,0.0,0.0,3.7172,3.7213,3.7113,0.0,0.0,0.0,0.0,0.0,0.0,0.0,0.0,0.0,0.0,0.0,0.0,0.0,0.0,4.1458,0.0,0.0,0.0,0.0,0.0,0.0,0.0,0.0,0.0,0.0,0.0,0.0,0.0,0.0,0.0,0.0,0.0,0.0,0.0,0.0,5.3469,5.3509,5.3509,5.3177,5.3158,5.3491,5.3177,5.3197,5.3588,5.3588,5.3637,5.3735,5.3735,5.3764,5.3803,5.3803,5.3803,5.3803,5.3803,5.3803,5.3803,5.3803,5.3803,5.3803,5.3774,5.3725,5.3685,5.3636,5.3268,5.2618,0.0,0.0,0.0,0.0,0.0,0.0,0.0,0.0,0.0,0.0,0.0,0.0,0.0,0.0,0.0,0.0,0.0,0.0,0.0,0.0,0.0,0.0,0.0,0.0,0.0,0.0,0.0,0.0,0.0,0.0,0.0,0.0,0.0,0.0,0.0,0.0,0.0,0.0,0.0,3.489,3.5617,3.6278,0.0,0.0,3.6821,0.0,3.6901,3.7376,3.7958,3.8056,3.7934,0.0,0.0,0.0,0.0,0.0,3.7089,0.0,0.0,0.0,0.0,0.0,0.0,0.0,4.1153,4.1318,4.1412,0.0,0.0,0.0,0.0,0.0,0.0,0.0,0.0,0.0,0.0,0.0,0.0,0.0,0.0,0.0,0.0,0.0,5.2614,5.3316,5.3381,5.341,5.341,5.2726,5.2708,5.3502,5.2671,5.2691,5.3705,5.3612,5.3661,5.3803,5.3803,5.3803,5.3803,5.3803,5.3803,5.3803,5.3803,5.3803,5.3803,5.3803,5.3803,5.3793,5.3651,5.3575,5.3547,5.3329,5.2796,5.2006,0.0,0.0,0.0,0.0,0.0,0.0,0.0,0.0,0.0,0.0,0.0,0.0,0.0,0.0,0.0,0.0,0.0,0.0,0.0,0.0,0.0,0.0,0.0,0.0,0.0,0.0,0.0,0.0,0.0,0.0,0.0,0.0,0.0,0.0,0.0,0.0,0.0,0.0,0.0,3.5652,3.6336,0.0,3.6958,3.6849,3.7226,3.7819,3.7783,3.8231,3.8827,0.0,3.8614,3.8525,0.0,0.0,0.0,0.0,0.0,0.0,0.0,0.0,0.0,0.0,0.0,0.0,4.2047,4.2316,4.23,0.0,0.0,0.0,0.0,0.0,0.0,0.0,0.0,0.0,0.0,0.0,0.0,0.0,0.0,0.0,0.0,0.0,5.2443,5.2591,5.2715,5.279,5.279,5.2642,5.2911,5.3708,5.2317,5.2299,5.3774,5.3143,5.3153,5.3803,5.3803,5.3803,5.3803,5.3803,5.3803,5.3803,5.3803,5.3803,5.3803,5.3803,5.3803,5.3729,5.306,5.2809,5.2735,5.2048,5.2028,5.2137,0.0,0.0,0.0,0.0,0.0,0.0,0.0,0.0,0.0,0.0,0.0,0.0,0.0,0.0,0.0,0.0,0.0,0.0,0.0,0.0,0.0,0.0,0.0,0.0,0.0,0.0,0.0,0.0,0.0,0.0,0.0,0.0,0.0,0.0,0.0,0.0,0.0,0.0,3.6009,3.6443,3.6753,0.0,3.698,3.6928,3.7394,3.8101,3.8057,3.8886,3.9971,3.9803,3.9707,0.0,0.0,3.8929,3.8701,0.0,3.896,3.9225,0.0,0.0,0.0,4.1096,0.0,0.0,0.0,4.2602,4.2563,0.0,0.0,0.0,0.0,0.0,0.0,0.0,0.0,0.0,0.0,0.0,0.0,0.0,0.0,0.0,0.0,0.0,5.1909,5.1909,5.2345,5.2605,5.2605,5.2605,5.2977,5.3766,5.2624,5.2587,5.3784,5.3394,5.3394,5.3803,5.3803,5.3803,5.3803,5.3803,5.3803,5.3803,5.3803,5.3803,5.3803,5.3803,5.3803,5.3766,5.3367,5.2958,5.2605,5.2605,5.2002,5.1139,0.0,0.0,0.0,0.0,0.0,0.0,0.0,0.0,0.0,0.0,0.0,0.0,0.0,0.0,0.0,0.0,0.0,0.0,0.0,0.0,0.0,0.0,0.0,3.18,0.0,0.0,0.0,0.0,0.0,0.0,0.0,0.0,0.0,0.0,0.0,0.0,0.0,0.0,0.0,3.7007,0.0,3.7198,3.7196,3.7178,3.7757,3.8544,3.8684,3.9799,4.1162,4.0884,0.0,4.0627,4.0038,3.9617,0.0,0.0,0.0,0.0,0.0,0.0,0.0,0.0,0.0,4.2687,0.0,0.0,0.0,4.2782,0.0,0.0,0.0,0.0,0.0,0.0,0.0,0.0,0.0,0.0,0.0,0.0,0.0,0.0,0.0,0.0,5.1082,5.0933,5.1825,5.2364,5.2364,5.2512,5.2977,5.3766,5.2865,5.2828,5.3784,5.3654,5.3654,5.3803,5.3803,5.3803,5.3803,5.3803,5.3803,5.3803,5.3803,5.3803,5.3803,5.3803,5.3803,5.3766,5.345,5.294,5.2419,5.2735,5.1668,5.0083,2.7152,2.7092,0.0,0.0,0.0,0.0,0.0,0.0,0.0,0.0,0.0,0.0,0.0,0.0,0.0,0.0,0.0,0.0,3.1662,0.0,0.0,0.0,0.0,0.0,3.18,0.0,0.0,0.0,0.0,0.0,0.0,0.0,0.0,0.0,3.4954,0.0,0.0,0.0,3.6909,0.0,3.7707,3.7945,0.0,3.7891,3.88,4.0143,4.0779,4.1587,4.2189,0.0,4.1279,4.1481,0.0,4.1039,0.0,0.0,0.0,0.0,0.0,0.0,0.0,0.0,4.3032,0.0,0.0,0.0,4.3809,4.3747,0.0,0.0,0.0,0.0,0.0,0.0,0.0,0.0,0.0,0.0,0.0,0.0,0.0,0.0,0.0,0.0,0.0,4.9243,5.0655,5.1546,5.1546,5.2215,5.2977,5.3766,5.2327,5.2271,5.3784,5.3088,5.3088,5.3803,5.3803,5.3803,5.3803,5.3803,5.3803,5.3803,5.3803,5.3803,5.3803,5.3803,5.3803,5.3664,5.2234,5.1621,5.1361,4.9968,4.9754,5.0043,2.7307,2.7307,0.0,0.0,0.0,0.0,0.0,0.0,0.0,0.0,0.0,0.0,0.0,0.0,0.0,0.0,0.0,3.18,0.0,0.0,0.0,0.0,0.0,0.0,0.0,0.0,0.0,0.0,3.2748,0.0,0.0,0.0,0.0,0.0,3.5362,0.0,3.6513,0.0,0.0,0.0,0.0,0.0,0.0,3.9065,3.9945,4.1145,4.1426,4.2167,4.2922,0.0,4.2118,0.0,0.0,0.0,0.0,0.0,0.0,0.0,0.0,0.0,0.0,0.0,0.0,0.0,0.0,0.0,4.3997,0.0,0.0,0.0,0.0,0.0,0.0,0.0,0.0,0.0,0.0,0.0,0.0,0.0,0.0,0.0,0.0,0.0,0.0,0.0,0.0,5.0878,5.1361,5.2159,5.2977,5.3766,5.3144,5.3125,5.3784,5.3469,5.3469,5.3803,5.3803,5.3803,5.3803,5.3803,5.3803,5.3803,5.3803,5.3803,5.3803,5.3803,5.3803,5.3701,5.2549,5.1806,5.1361,5.1138,5.0376,4.944,2.7307,0.0,0.0,0.0,0.0,0.0,0.0,0.0,0.0,0.0,0.0,0.0,3.1731,3.2179,0.0,0.0,0.0,3.2541,0.0,0.0,3.2093,0.0,0.0,0.0,0.0,0.0,0.0,0.0,0.0,0.0,0.0,0.0,0.0,0.0,0.0,3.6339,3.7286,0.0,0.0,3.7833,3.8342,3.9347,4.0534,4.0601,4.1171,4.1928,4.1883,4.2586,4.3424,4.2903,4.2687,0.0,4.3042,0.0,0.0,0.0,0.0,0.0,4.2678,0.0,0.0,0.0,0.0,0.0,0.0,0.0,0.0,0.0,0.0,0.0,0.0,0.0,0.0,0.0,0.0,0.0,0.0,0.0,0.0,0.0,0.0,0.0,0.0,0.0,0.0,0.0,4.9643,0.0,5.1361,5.2159,5.2977,5.3766,5.3803,5.3803,5.3803,5.3803,5.3803,5.3803,5.3803,5.3803,5.3803,5.3803,5.3803,5.3803,5.3803,5.3803,5.3803,5.3803,5.3803,5.372,5.2921,5.2104,5.1435,5.1788,5.0636,4.8957,2.7307,2.7307,0.0,0.0,0.0,0.0,0.0,0.0,0.0,0.0,0.0,0.0,0.0,0.0,0.0,0.0,0.0,3.4466,3.2955,0.0,3.2869,0.0,0.0,3.3231,0.0,0.0,0.0,0.0,0.0,0.0,0.0,0.0,0.0,0.0,0.0,3.7053,3.8066,3.7981,3.8687,3.9839,4.0249,4.1291,4.2592,0.0,4.2439,4.2485,4.2554,0.0,0.0,4.28,4.2755,0.0,0.0,0.0,0.0,0.0,0.0,0.0,0.0,0.0,0.0,0.0,0.0,0.0,0.0,0.0,4.4005,0.0,0.0,0.0,0.0,0.0,0.0,0.0,0.0,0.0,0.0,0.0,0.0,0.0,0.0,0.0,0.0,0.0,0.0,4.8909,4.9643,5.0479,5.1361,5.2159,5.2977,5.3766,5.3803,5.3803,5.3803,5.3803,5.3803,5.3803,5.3803,5.3803,5.3803,5.3803,5.3803,5.3803,5.3803,5.3803,5.3803,5.3803,5.3803,5.372,5.2921,5.2104,5.1305,5.0479,4.9643,4.8883,0.0,0.0,0.0,0.0,0.0,0.0,0.0,2.9782,0.0,0.0,0.0,0.0,0.0,0.0,3.5439,0.0,0.0,3.549,3.449,3.4421,0.0,0.0,0.0,3.3827,0.0,0.0,0.0,0.0,0.0,0.0,0.0,0.0,0.0,0.0,0.0,3.7074,0.0,0.0,0.0,0.0,0.0,4.158,4.2121,0.0,0.0,4.3294,4.2786,4.3123,0.0,4.316,4.2995,4.3078,4.3285,4.3222,4.3105,4.3363,4.3545,0.0,0.0,0.0,4.3777,4.3934,0.0,0.0,0.0,0.0,0.0,0.0,0.0,0.0,0.0,0.0,0.0,0.0,0.0,0.0,0.0,0.0,0.0,0.0,0.0,0.0,0.0,0.0,0.0,4.8909,4.915,4.993,0.0,5.1658,5.2419,5.3766,5.3803,5.3803,5.3803,5.3803,5.3803,5.3803,5.3803,5.3803,5.3803,5.3803,5.3803,5.3803,5.3803,5.3803,5.3803,5.3803,5.3487,5.2977,5.2717,5.1769,5.0506,5.02,4.9587,4.8883,2.7686,0.0,0.0,0.0,0.0,0.0,0.0,0.0,0.0,0.0,3.4552,0.0,3.6197,0.0,3.7008,0.0,3.7208,3.6956,3.568,3.5863,0.0,3.4535,3.4742,0.0,0.0,0.0,0.0,0.0,0.0,3.5835,0.0,0.0,0.0,0.0,0.0,0.0,0.0,0.0,3.9045,0.0,0.0,4.2205,0.0,0.0,4.2355,0.0,0.0,4.325,4.3661,4.341,4.3286,4.3276,4.3678,4.3573,4.3399,4.38,4.3913,4.4008,4.4361,4.4451,0.0,0.0,4.4896,0.0,4.4896,0.0,0.0,0.0,0.0,0.0,0.0,0.0,0.0,0.0,0.0,0.0,0.0,0.0,0.0,0.0,0.0,0.0,0.0,0.0,4.8909,4.8909,4.8909,4.9633,0.0,0.0,5.2141,5.3757,5.3803,5.3803,5.3803,5.3803,5.3803,5.3803,5.3803,5.3803,5.3803,5.3803,5.3803,5.3803,5.3803,5.3803,5.3803,5.3803,5.3487,5.2977,5.2401,5.1509,5.0525,5.0237,4.964,4.8949,0.0,0.0,0.0,0.0,2.804,0.0,0.0,0.0,3.3266,0.0,3.5501,3.6439,3.6525,3.7847,3.8433,3.7737,3.8951,0.0,3.6611,3.7191,0.0,0.0,3.6008,3.6353,3.6353,0.0,0.0,0.0,0.0,0.0,0.0,0.0,0.0,0.0,3.6395,0.0,3.8992,3.8918,4.0303,4.2562,4.3022,4.3205,4.3196,4.3214,0.0,4.236,4.3214,4.3515,4.3513,4.3573,4.3599,4.3615,4.3763,4.3835,4.3907,4.3907,4.3971,4.4246,4.5072,4.5332,4.5536,4.6308,0.0,0.0,0.0,0.0,4.655,0.0,0.0,0.0,0.0,0.0,0.0,0.0,0.0,0.0,0.0,0.0,0.0,0.0,0.0,0.0,0.0,4.8909,4.8909,4.8909,4.8909,4.9633,0.0,0.0,0.0,5.3757,5.3803,5.3803,5.3803,5.3803,5.3803,5.3803,5.3803,5.3803,5.3803,5.3803,5.3803,5.3803,5.3803,5.3803,5.3803,5.3803,5.3775,5.358,5.2011,5.1342,5.1175,5.0413,4.9699,4.9104,2.9222,2.9222,2.9351,0.0,2.9981,3.0239,0.0,0.0,0.0,0.0,3.707,3.845,3.9589,4.0072,4.0227,4.0037,4.0365,0.0,0.0,0.0,0.0,3.7778,3.7381,3.7191,3.7191,3.6622,0.0,3.6301,0.0,0.0,3.6301,0.0,0.0,0.0,0.0,0.0,3.8918,3.9766,4.1263,4.3032,4.3151,4.3178,0.0,0.0,4.332,4.2932,4.3513,4.3719,4.3711,4.3634,4.3599,4.359,4.3583,4.3694,4.3829,4.3829,4.4368,4.5016,4.5239,4.5732,4.6242,4.6438,4.6494,4.6494,0.0,0.0,0.0,0.0,0.0,0.0,0.0,0.0,0.0,0.0,0.0,0.0,0.0,0.0,0.0,0.0,0.0,0.0,0.0,4.8909,4.8909,4.8909,4.8909,4.9633,0.0,0.0,0.0,5.3757,5.3803,5.3803,5.3803,5.3803,5.3803,5.3803,5.3803,5.3803,5.3803,5.3803,5.3803,5.3803,5.3803,5.3803,5.3803,5.3803,5.346,5.281,5.1788,5.0636,4.9522,4.9317,4.9178,4.9104,3.0024,0.0,0.0,3.1533,0.0,0.0,3.2189,0.0,0.0,3.6639,3.814,0.0,4.0279,4.0687,4.0912,4.0912,4.0912,0.0,0.0,0.0,0.0,3.8657,3.8502,3.8312,3.7985,3.7226,0.0,3.6829,0.0,0.0,3.6301,0.0,0.0,0.0,0.0,3.7948,0.0,4.0567,4.1866,4.2798,4.3205,0.0,0.0,4.3734,4.3707,4.3525,4.379,4.3843,4.3788,4.3719,4.3694,4.3676,4.3634,4.3736,4.3909,4.426,4.481,4.5462,4.616,4.668,4.7107,4.746,4.7553,4.7553,4.7553,4.7906,4.8221,0.0,0.0,0.0,0.0,0.0,0.0,0.0,0.0,0.0,0.0,0.0,0.0,0.0,0.0,0.0,4.8909,4.8909,4.8909,4.8909,4.8909,4.9633,0.0,0.0,0.0,5.3757,5.3803,5.3803,5.3803,5.3803,5.3803,5.3803,5.3803,5.3803,5.3803,5.3803,5.3803,5.3803,5.3803,5.3803,5.3803,5.3803,5.333,5.2475,5.1286,5.0042,4.8926,4.9061,4.9196,4.9351,0.0,0.0,0.0,0.0,0.0,0.0,0.0,3.5173,0.0,3.7467,0.0,3.9853,3.9853,4.0486,4.0912,4.0912,0.0,4.0589,3.9899,4.0503,4.0296,3.8968,3.9416,3.9388,3.8761,3.7933,0.0,0.0,0.0,0.0,3.6301,0.0,0.0,0.0,0.0,0.0,0.0,4.1318,4.2277,0.0,4.3267,4.3667,4.3769,4.3859,4.3921,4.3974,4.3974,4.3905,4.381,4.382,4.3812,4.3812,4.3804,4.3861,4.4064,4.486,4.5278,4.5796,4.7293,4.7776,4.8036,4.8723,4.8909,4.8909,4.8909,4.8909,4.8909,4.8909,4.8909,0.0,0.0,0.0,0.0,0.0,0.0,0.0,0.0,0.0,0.0,0.0,0.0,0.0,0.0,0.0,4.8909,4.8909,4.8909,4.9577,0.0,0.0,0.0,0.0,5.3757,0.0,5.3803,0.0,5.3803,5.3803,5.3803,5.3803,5.3803,5.3803,5.3803,5.3803,5.3803,5.3803,5.3784,5.3701,5.3097,5.2141,5.0664,4.9641,4.9002,4.9318,4.9548,4.971,0.0,0.0,0.0,0.0,0.0,3.5449,3.6719,3.7536,3.8105,3.8364,3.9744,0.0,4.0687,4.0825,4.0912,4.0912,4.0912,0.0,0.0,0.0,0.0,4.0503,3.9986,3.9629,3.9508,3.8192,3.7502,0.0,3.668,3.6301,0.0,0.0,0.0,0.0,0.0,0.0,4.16,4.2029,0.0,4.3286,4.3513,4.3607,4.3651,4.3769,4.381,4.3845,4.3845,4.3899,4.3968,4.3897,4.3891,4.3875,4.382,4.3861,4.4064,4.486,4.5667,4.6494,4.7441,4.8184,4.8723,4.8872,4.8909,4.8909,4.8909,4.8909,4.8909,4.8909,4.8909,4.8909,4.8909,0.0,0.0,0.0,0.0,0.0,0.0,0.0,0.0,0.0,0.0,0.0,0.0,0.0,0.0,0.0,0.0,0.0,0.0,0.0,0.0,0.0,0.0,0.0,0.0,0.0,0.0,5.3803,5.3803,5.3803,5.3803,5.3803,5.3803,5.3803,5.3803,5.3803,5.3757,5.3088,5.1918,5.0497,5.02,4.9777,4.9334,4.9566,4.9793,5.0018,0.0,0.0,0.0,0.0,0.0,0.0,0.0,3.9296,0.0,3.9227,3.983,4.0279,4.0279,4.0641,4.0912,4.0912,4.0912,4.0912,4.0912,4.0912,4.0912,4.0912,4.052,0.0,4.0313,3.883,3.8261,3.864,3.7484,3.6915,0.0,0.0,0.0,0.0,0.0,4.002,0.0,0.0,0.0,4.3205,4.3488,4.3599,4.3607,4.3744,4.3796,4.3796,4.3796,4.3867,4.3945,4.3905,4.3921,4.3953,4.3913,4.4244,4.4785,4.5593,4.6442,4.7293,4.8091,4.8612,4.8909,4.8909,4.8909,4.9011,4.942,4.9206,4.902,4.9439,4.9179,4.8909,4.8909,4.8574,0.0,0.0,0.0,0.0,0.0,0.0,0.0,0.0,0.0,0.0,0.0,0.0,0.0,0.0,0.0,0.0,0.0,0.0,0.0,0.0,0.0,0.0,0.0,0.0,0.0,5.3803,5.3803,5.3803,5.3803,5.3803,5.3803,5.3803,5.3803,5.3562,5.3088,5.1825,5.0841,5.0069,4.9832,4.9594,4.9434,4.9776,4.9993,5.0114,0.0,3.4811,0.0,0.0,3.745,0.0,0.0,4.0382,4.0676,4.0037,3.9968,3.9968,3.9968,4.052,4.0912,4.0912,4.0912,4.0912,4.0912,4.0912,4.0912,4.0912,4.0912,4.0912,4.0912,3.9537,3.9037,0.0,3.8295,3.7571,0.0,0.0,0.0,0.0,0.0,0.0,0.0,0.0,4.2939,4.305,4.3436,4.3573,4.3582,4.3694,4.3746,4.3746,4.3746,4.3777,4.3832,4.3832,4.3921,4.4005,4.4005,4.4599,4.5462,4.6252,4.707,4.7887,4.8686,4.8909,4.8909,4.8909,4.8909,4.9113,4.9921,4.9606,4.9336,4.9977,4.9457,4.8909,4.8909,4.8909,0.0,0.0,0.0,0.0,0.0,0.0,0.0,0.0,0.0,0.0,0.0,0.0,0.0,0.0,0.0,0.0,4.981,5.0822,0.0,0.0,0.0,5.3803,5.3803,0.0,5.3803,0.0,5.3803,5.3803,5.3803,5.3803,5.3803,5.3803,5.3803,5.3246,5.2234,5.072,5.0049,4.9902,4.9549,4.9472,4.9605,4.9962,5.015,5.0207,0.0,0.0,0.0,0.0,0.0,0.0,0.0,4.0382,4.0865,4.0808,4.0791,4.0791,4.0791,4.0848,4.0912,4.0912,4.0912,4.0912,4.0912,4.0912,4.0912,4.0912,4.0912,4.0912,4.0912,4.0037,3.9313,0.0,0.0,3.7778,0.0,0.0,0.0,0.0,0.0,0.0,0.0,4.2863,4.3105,4.3444,4.3479,4.3515,4.3515,4.3513,4.3532,4.3532,4.3532,4.3565,4.3624,4.3624,4.3798,4.4005,4.4005,4.4599,4.5462,4.6252,4.707,4.7887,4.8686,4.8909,4.8909,4.8909,4.8909,4.9113,4.9921,5.0033,5.0014,5.007,4.9457,4.8909,4.8909,4.8909,4.915,0.0,0.0,0.0,0.0,0.0,0.0,0.0,0.0,0.0,0.0,0.0,0.0,0.0,0.0,4.8927,4.9011,5.0525,5.1435,5.1509,0.0,5.3803,5.3803,5.3803,0.0,5.3803,5.3803,5.3803,5.3803,5.3803,5.3803,5.3803,5.3803,5.294,5.1435,5.0488,4.986,4.9454,4.941,4.9698,5.0117,5.0101,5.0242,5.0457,0.0,0.0,0.0,0.0,0.0,0.0,0.0,4.0693,4.0912,4.0912,4.0912,4.0912,4.0912,4.0912,4.0912,4.0912,4.0912,4.0912,4.0912,4.0912,4.0912,4.0912,4.0912,4.0912,4.0912,4.0106,3.9796,0.0,0.0,3.8939,3.8353,0.0,0.0,0.0,0.0,4.2098,4.2929,4.3169,4.3348,4.3506,4.3506,4.3506,4.3506,4.3506,4.3506,4.3506,4.3506,4.3539,4.3599,4.3599,4.3749,4.4019,4.4501,4.5283,4.6186,4.6977,4.7794,4.85,4.8816,4.8909,4.8909,4.8909,4.9262,4.9829,5.0692,5.0878,5.1026,5.15,5.0534,4.9624,4.9624,4.9243,4.9011,0.0,0.0,0.0,0.0,0.0,0.0,0.0,0.0,0.0,0.0,0.0,0.0,0.0,0.0,4.8909,4.8909,5.0488,5.1156,5.0627,0.0,5.3571,5.3088,5.3562,5.3803,5.3803,5.3803,5.3803,5.3803,5.3803,5.3553,5.3051,5.2568,5.1813,5.0856,5.0023,4.967,4.9663,4.9817,4.9994,5.0153,5.0294,5.0376,5.0429,3.8814,0.0,3.9118,0.0,4.0227,4.0572,4.1153,4.121,4.121,4.121,4.1032,4.0912,4.0912,4.0912,4.0912,4.0912,4.0912,4.0912,4.0912,4.0912,4.0912,4.0912,4.0912,0.0,4.0912,4.0348,4.0227,4.0538,4.0227,0.0,0.0,0.0,0.0,0.0,4.1567,4.2302,4.3105,4.3375,4.3506,4.3506,4.3506,4.3506,4.3506,4.3506,4.3506,4.3506,4.3506,4.3522,4.3565,4.3565,4.3832,4.4268,4.4899,4.5733,4.6661,4.746,4.8277,4.8909,4.8909,4.8909,4.8964,4.9179,4.968,5.0386,5.1509,5.1751,5.1918,5.2475,5.1463,5.0479,5.0479,5.0023,4.9707,0.0,0.0,0.0,0.0,0.0,0.0,0.0,0.0,0.0,0.0,0.0,0.0,0.0,0.0,0.0,4.8909,5.0488,0.0,0.0,0.0,0.0,0.0,5.3524,5.3803,5.3803,5.3803,5.3803,5.3784,5.3562,5.3182,5.2659,5.1615,5.0991,5.0666,4.9853,4.9684,4.9949,5.0135,5.0231,5.0274,5.0443,5.0462,5.0396,3.9311,3.9489,3.9776,4.0721,4.1486,4.1987,4.1987,4.1987,4.1987,4.1987,4.1348,4.0912,4.0912,4.0912,4.0912,4.0912,4.0912,4.0912,4.0912,4.0912,4.0912,0.0,0.0,4.0912,4.0912,4.0883,4.0503,3.9715,0.0,0.0,3.864,0.0,4.0582,4.2188,4.2198,4.2675,4.3479,4.3506,4.3506,4.3506,4.3506,4.3506,4.3506,4.3506,4.3506,4.3506,4.3506,4.3506,4.3506,4.3506,4.4072,4.4838,4.5024,4.5733,4.6661,4.746,4.8277,4.8909,4.8909,4.8909,4.9094,4.9884,5.0089,5.0534,5.2215,5.2587,5.2587,5.2605,5.1955,5.1379,5.1379,5.1379,5.1639,5.2438,0.0,0.0,0.0,0.0,0.0,0.0,0.0,0.0,0.0,0.0,0.0,0.0,0.0,0.0,0.0,0.0,0.0,5.1379,5.2958,0.0,5.3784,5.3803,5.3803,5.3803,5.3803,5.3803,5.3766,5.2977,5.2751,5.2911,5.1298,5.076,5.0938,5.0138,4.9943,5.0195,5.0201,5.0366,5.0588,5.0521,5.0462,5.0396,4.0136,4.0259,4.0417,4.0722,4.103,4.1245,4.1245,4.1676,4.1814,4.1314,4.1469,4.1464,4.0963,4.0912,4.0912,0.0,4.0912,4.0912,0.0,4.0912,4.0912,4.0912,4.0912,4.0912,4.0912,4.0912,4.0762,4.052,0.0,0.0,0.0,4.0699,4.1211,4.1756,4.2398,4.2826,4.3114,4.3383,4.3506,4.3506,4.3506,4.3506,4.3506,4.3506,4.3506,4.3506,4.3506,4.3506,4.3579,4.4121,4.4523,4.5015,4.6209,4.6894,4.7421,4.8279,4.8704,4.8909,4.8909,4.9299,4.9773,5.0033,5.0971,5.1936,5.2475,5.3032,5.3423,5.3423,5.2791,5.2215,5.2215,5.1769,5.1472,5.1732,0.0,0.0,0.0,0.0,0.0,0.0,0.0,0.0,0.0,4.9401,0.0,0.0,0.0,0.0,0.0,0.0,0.0,0.0,5.2958,0.0,5.2995,5.3524,5.3803,5.3803,5.3803,5.3609,5.3255,5.2993,5.2419,5.162,5.1091,5.0701,5.0437,5.0176,5.0254,5.0539,5.0497,5.0492,5.0521,5.0457,5.0401,5.0325,4.0468,4.0571,4.066,4.0757,4.1064,4.1314,4.1314,4.1693,4.1935,4.1774,4.1659,4.1521,4.1331,4.1067,0.0,4.0912,4.0912,4.0912,4.0912,4.0912,4.0912,4.0912,4.0912,4.0912,4.0912,0.0,0.0,4.0912,4.0912,4.0912,4.0912,4.1152,4.1445,4.1789,4.2378,4.2817,4.3133,4.3392,4.3506,4.3506,4.3506,4.3506,4.3506,4.3506,4.3506,4.3506,4.3506,4.369,4.403,4.4535,4.5121,4.5863,4.6948,4.7591,4.8059,4.8692,4.9105,4.9373,4.9355,4.9959,5.0655,5.0962,5.1825,5.2679,5.2977,5.3432,5.3803,5.3803,5.3394,5.3051,5.3051,5.2642,5.2308,5.2308,0.0,5.2958,0.0,0.0,0.0,0.0,0.0,0.0,0.0,5.0098,0.0,0.0,0.0,0.0,0.0,0.0,0.0,5.1844,5.3246,0.0,5.3235,5.3854,5.4168,5.4168,5.3841,5.3512,5.3171,5.255,5.185,5.1171,5.0835,5.0576,5.038,5.038,5.0504,5.0683,5.0623,5.0567,5.0495,5.0429,5.0367,5.0302,4.0419,4.0497,0.0,0.0,4.1469,0.0,4.1918,4.2004,4.2314,4.2948,4.1878,4.1291,4.1849,4.1309,4.0912,4.0912,0.0,0.0,0.0,4.0912,4.0912,4.0912,4.0912,0.0,4.0912,4.0912,4.0912,4.0912,4.0912,4.0912,4.0912,4.093,4.1373,4.2146,4.2208,4.2703,4.3453,4.3497,4.3506,4.3506,4.3506,4.3506,4.3506,4.3506,4.3506,4.3506,4.3506,4.4011,4.4718,4.4755,4.581,4.7131,4.7307,4.7887,4.8541,4.8724,4.9442,5.0163,5.0098,5.0776,5.1658,5.2419,5.2633,5.2874,5.3636,5.3803,5.3793,5.3803,5.3803,5.3803,5.3803,5.3803,5.3803,5.3803,5.3757,5.345,5.2717,0.0,0.0,0.0,0.0,0.0,0.0,5.0971,5.1119,0.0,0.0,0.0,0.0,0.0,5.1844,5.2661,5.3722,5.4306,5.4306,5.4631,5.4761,5.4704,5.3882,5.3461,5.3305,5.175,5.1178,5.141,5.0587,5.0416,5.0707,5.0707,5.0707,5.0697,5.0618,5.0542,5.0489,5.0424,5.0342,5.0283,0.0,0.0,4.0522,4.0583,4.0918,4.117,4.117,4.2154,4.2568,4.1567,4.2154,4.2275,4.1274,4.1003,4.0912,4.0912,4.0912,4.0912,4.0912,4.0912,4.0912,4.0912,4.0912,4.0912,4.0912,4.0912,4.0912,4.0912,4.0912,4.0912,4.0923,4.1203,4.1468,4.1692,4.2418,4.2854,4.3059,4.3366,4.3506,4.3506,4.3506,4.3506,4.3506,4.3506,4.3506,4.3506,4.3506,4.4011,4.4792,4.5406,4.6278,4.7214,4.7848,4.8263,4.8513,4.8615,4.9306,5.0046,5.0027,5.1157,5.2364,5.2549,5.3022,5.3503,5.3738,5.3764,5.3744,5.3793,5.3803,5.3803,5.3803,5.3803,5.3803,5.3803,5.3283,5.2828,5.2624,0.0,0.0,0.0,5.1639,5.1769,5.1156,5.1825,5.1974,0.0,0.0,0.0,0.0,0.0,5.2679,5.3487,5.4022,5.4306,5.4306,5.4631,5.4477,5.3806,5.3598,5.2954,5.1955,5.1555,5.1191,5.0872,5.0666,5.0624,5.0707,5.0707,5.0663,5.0618,5.0542,5.0484,5.0418,5.0342,5.0314,5.0206,4.0175,4.0585,4.0943,4.1067,4.1219,4.1328,4.14,4.1826,4.1964,4.1469,4.1843,4.1964,4.1464,4.14,4.1274,4.0917,4.0912,4.0912,4.0912,4.0912,4.0912,4.0912,4.0912,4.0912,4.0912,4.0912,4.0912,4.0912,4.0912,4.0983,4.1186,4.1401,4.1724,4.2157,4.2673,4.2995,4.3196,4.3401,4.3506,4.3506,4.3506,4.3506,4.3506,4.3506,4.3506,4.3506,4.3506,4.4259,4.5324,4.5755,4.6691,4.7728,4.815,4.8353,4.8484,4.8927,4.9741,5.05,5.05,5.1722,5.3001,5.3001,5.3362,5.3705,5.3745,5.3745,5.3754,5.3793,5.3803,5.3803,5.3803,5.3803,5.3803,5.3803,5.3125,5.2475,5.2104,5.1676,0.0,5.0896,5.1881,5.2438,5.1992,5.2679,5.281,5.2011,0.0,0.0,5.2605,5.2958,5.3433,5.4017,5.4347,5.4607,5.4769,5.5052,5.4791,5.3951,5.3544,5.2772,5.1675,5.1291,5.0989,5.0707,5.0707,5.0707,5.0707,5.0707,5.0653,5.0593,5.0521,5.0462,5.0357,4.9905,4.9754,4.9633,4.0391,4.087,4.1333,4.1679,4.177,4.1832,4.1955,4.1561,4.1429,4.1935,4.1452,4.1262,4.178,4.1831,4.1573,4.0963,4.0912,4.0912,4.0912,4.0912,4.0912,4.0912,4.0912,4.0912,4.0912,4.0912,4.0912,4.0912,4.0912,4.1076,4.1412,4.1539,4.2032,4.2806,4.2929,4.3187,4.3506,4.3506,4.3506,4.3506,4.3506,4.3506,4.3506,4.3506,4.3506,4.3506,4.3506,4.4534,4.5902,4.5902,4.6966,4.8296,4.8296,4.8296,4.8471,4.9344,5.0298,5.1069,5.1217,5.2344,5.3509,5.3509,5.3568,5.3646,5.3694,5.3725,5.3756,5.3784,5.3803,5.3803,5.3803,5.3803,5.3803,5.3803,5.3032,5.2215,5.1658,0.0,5.1193,5.0618,5.1881,5.2791,5.2791,5.3394,5.3524,5.2828,5.3423,0.0,0.0,5.3479,5.4026,5.4355,5.4654,5.4981,5.5358,5.559,5.5304,5.4491,5.376,5.287,5.1885,5.1183,5.0803,5.0707,5.0707,5.0707,5.0707,5.0697,5.0643,5.0582,5.0511,5.0432,5.0308,4.9541,4.92,4.897,4.0925,4.0739,4.0674,4.1354,4.1646,4.1812,4.182,4.2408,4.2637,4.2073,4.19,4.1642,4.1136,4.1067,4.1021,4.09,4.0912,4.0912,4.0912,4.0912,4.0912,4.0912,4.0912,4.0912,4.0912,4.0912,4.0912,4.0912,4.0912,4.093,4.1012,4.1753,4.2167,4.2348,4.3078,4.3436,4.3506,4.3506,4.3506,4.3506,4.3506,4.3506,4.3506,4.3506,4.3506,4.3506,4.3506,4.4534,4.5902,4.5902,4.6966,4.8296,4.8296,4.8296,4.8471,4.9344,5.0189,5.1019,5.1745,5.2701,5.3509,5.3509,5.342,5.3429,5.3646,5.3617,5.358,5.3756,5.3803,5.3803,5.3803,5.3803,5.3803,5.3803,5.2549,5.1788,5.2345,0.0,5.1602,5.2159,5.3051,5.3599,5.3599,5.3729,5.3757,5.3617,5.3729,5.3757,5.3617,5.3997,5.4372,5.4708,5.4769,5.5078,5.5629,5.5687,5.5304,5.4491,5.4357,5.3453,5.1904,5.1774,5.1337,5.0707,5.0707,5.0707,5.0707,5.0633,5.0582,5.0511,5.0446,5.0365,5.0294,5.0149,4.9671,4.897,4.054,4.0697,4.0913,4.1325,4.1882,4.2188,4.1851,4.2228,4.2275,4.1504,4.14,4.1417,4.1486,4.1486,4.1486,4.1486,4.1486,4.1314,4.0929,4.0912,4.0912,4.0912,4.0912,4.0912,4.0912,4.0912,4.0912,4.0912,4.0912,4.1146,4.16,4.2001,4.245,4.2912,4.3321,4.3506,4.3506,4.3506,4.3506,4.3506,4.3506,4.3506,4.3506,4.3506,4.3506,4.3561,4.3993,4.4892,4.5975,4.6406,4.7324,4.8296,4.8296,4.8296,4.8471,4.9344,5.0482,5.162,5.2461,5.3009,5.3334,5.3334,5.3378,5.343,5.3568,5.3619,5.3697,5.3784,5.3803,5.3803,5.3803,5.3803,5.3803,5.3803,5.281,0.0,0.0,5.2289,5.2178,5.2568,5.3302,5.3803,5.3803,5.3803,5.3803,5.3803,5.3803,5.3803,5.3803,5.4125,5.4455,5.4791,5.5125,5.5418,5.5703,5.5708,5.5304,5.4491,5.4491,5.3587,5.1904,5.1904,5.1467,5.0707,5.0707,5.0707,5.0683,5.0623,5.0567,5.0495,5.0429,5.0354,5.0187,4.9284,4.8711,4.822,4.032,4.0675,4.1039,4.1312,4.1959,4.23,4.1819,4.1894,4.1797,4.1228,4.117,4.1309,4.1693,4.19,4.1935,4.1762,4.1745,4.1504,4.0946,4.0912,4.0912,4.0912,4.0912,4.0912,4.0912,4.0912,4.0912,4.0912,4.0912,4.13,4.2043,4.2146,4.2625,4.3366,4.3453,4.3506,4.3506,4.3506,4.3506,4.3506,4.3506,4.3616,4.3763,4.3561,4.3726,4.4112,4.4553,4.5342,4.626,4.6902,4.7636,4.8296,4.8296,4.8296,4.8471,4.9344,5.0739,5.2189,5.2976,5.3217,5.322,5.322,5.3357,5.3509,5.3539,5.3676,5.3774,5.3803,5.3803,5.3803,5.3803,5.3803,5.3803,5.3803,0.0,0.0,0.0,5.2717,5.2679,5.2865,5.3423,5.3803,5.3803,5.3803,5.3803,5.3803,5.387,5.3926,5.3926,5.4305,5.4674,5.5009,5.5454,5.5708,5.5708,5.5708,5.5401,5.478,5.4587,5.3683,5.2197,5.1981,5.1467,5.0707,5.0707,5.0683,5.0663,5.0608,5.0532,5.0473,5.0407,5.0228,4.9862,4.8577,4.7851,4.7316,4.0984,4.0608,4.04,4.1098,4.1465,4.1672,4.1616,4.1827,4.1987,4.1935,4.1918,4.1676,4.105,4.159,4.1711,4.1038,4.0981,4.0963,4.0912,4.0912,4.0912,4.0912,4.0912,4.0912,4.0912,4.0912,4.0912,4.0912,4.0912,4.1117,4.1561,4.199,4.2468,4.2957,4.333,4.3506,4.3506,4.3506,4.3506,4.3506,4.3506,4.3956,4.4535,4.3781,4.4424,4.5626,4.4938,4.5709,4.7021,4.7076,4.7636,4.8296,4.8296,4.8296,4.8471,4.9344,5.0739,5.2189,5.2976,5.3251,5.3297,5.3297,5.339,5.3529,5.3656,5.3704,5.3724,5.3784,5.3803,5.3803,5.3803,5.3803,5.3803,5.3803,0.0,0.0,5.3599,5.306,5.2884,5.3617,5.3766,5.3803,5.3803,5.3803,5.3803,5.3803,5.4089,5.4264,5.4264,5.488,5.5345,5.5629,5.5687,5.5708,5.5708,5.5708,5.567,5.5593,5.4857,5.401,5.3082,5.2274,5.1467,5.0707,5.0707,5.0658,5.0603,5.0532,5.0473,5.0407,5.0331,4.9849,4.9161,4.9047,4.7971,4.6571,4.0455,4.0286,4.0185,4.0472,4.112,4.145,4.0988,4.1535,4.1831,4.1383,4.1314,4.1395,4.1555,4.1417,4.1383,4.1573,4.117,4.0912,4.0912,4.0912,4.0912,4.0912,4.0912,4.0912,4.0912,4.0912,4.0912,4.0912,4.0912,4.1255,4.1938,4.2115,4.2568,4.3286,4.3427,4.3506,4.3506,4.3506,4.3506,4.3506,4.3506,4.369,4.3975,4.4176,4.4617,4.525,4.5948,4.626,4.6516,4.7507,4.7728,4.7636,4.8131,4.8296,4.8573,4.9991,5.0807,5.1567,5.3005,5.3305,5.3261,5.3297,5.34,5.3529,5.3666,5.3734,5.3774,5.3793,5.3803,5.3803,5.3803,5.3803,5.3803,5.3803,0.0,5.346,5.3766,5.3553,5.345,5.3766,5.3803,5.3803,5.3803,5.399,5.4116,5.4116,5.4413,5.4615,5.4615,5.5043,5.5419,5.5678,5.5228,5.5208,5.5708,5.5708,5.5708,5.5689,5.4876,5.4049,5.3159,5.2294,5.1467,5.0707,5.0707,5.0653,5.0593,5.0527,5.0462,5.0396,5.0319,4.9805,4.9028,4.8487,4.7526,4.6424,4.0096,4.0096,4.0096,4.0096,4.0746,4.1091,4.0578,4.1157,4.1469,4.0981,4.1101,4.1348,4.1624,4.14,4.1348,4.1624,4.1193,4.0912,4.0912,4.0912,4.0912,4.0912,4.0912,4.0912,4.0912,4.0912,4.0912,4.0912,4.0912,4.1357,4.2198,4.2198,4.2674,4.3506,4.3506,4.3506,4.3506,4.3506,4.3506,4.3524,4.3781,4.4038,4.4295,4.4599,4.5177,4.5874,4.6214,4.6315,4.6416,4.726,4.7177,4.6865,4.7672,4.8278,4.8986,5.0433,5.1039,5.1536,5.3021,5.3357,5.3314,5.3398,5.3519,5.3619,5.3706,5.3774,5.3803,5.3803,5.3803,5.3803,5.3803,5.3803,5.372,5.345,5.3636,5.371,5.345,5.3636,5.3803,5.3803,5.3803,5.3841,5.3944,5.4178,5.4338,5.4446,5.4769,5.4995,5.5085,5.5071,5.5132,5.5318,5.478,5.4626,5.4914,5.4914,5.4914,5.4914,5.4357,5.3645,5.2774,5.2178,5.1467,5.0707,5.0687,5.0628,5.0553,5.0495,5.0435,5.0335,5.0033,4.9423,4.8582,4.7717,4.6858,4.6042,4.0096,4.0096,4.0096,4.0096,4.032,4.051,4.051,4.0728,4.0912,4.0912,4.1538,4.1711,4.0981,4.1555,4.1693,4.0963,4.0912,4.0912,4.0912,4.0912,4.0883,4.0883,4.0912,4.0912,4.0912,4.0912,4.0912,4.0894,4.0894,4.1339,4.2198,4.2198,4.2674,4.3488,4.3506,4.3506,4.3506,4.3506,4.3506,4.3561,4.437,4.5177,4.5792,4.5012,4.6205,4.7966,4.5581,4.5746,4.6947,4.6177,4.5902,4.603,4.6847,4.8251,4.9729,5.0563,5.1415,5.226,5.3079,5.34,5.3529,5.3666,5.3745,5.3803,5.3784,5.3803,5.3803,5.3784,5.3803,5.3803,5.3784,5.3803,5.3553,5.2735,5.3283,5.3524,5.2717,5.3311,5.3803,5.3794,5.3794,5.3935,5.4253,5.4296,5.4428,5.4758,5.5098,5.5394,5.5673,5.4914,5.4491,5.4491,5.4472,5.4068,5.3197,5.3197,5.3197,5.3197,5.3197,5.2736,5.1904,5.1885,5.1447,5.0707,5.0623,5.0553,5.0495,5.0429,5.0354,5.0225,4.941,4.8563,4.7693,4.6819,4.5984,4.5302,4.0096,4.0096,4.0138,4.0226,4.0387,4.0534,4.0636,4.0793,4.0912,4.0912,4.1101,4.1153,4.0929,4.1101,4.1153,4.0929,4.1366,4.1659,4.1659,4.0658,4.0055,4.0055,4.109,4.1417,4.09,4.14,4.1567,4.1328,4.1328,4.1485,4.1788,4.2402,4.2677,4.2671,4.3249,4.3506,4.3543,4.4103,4.4011,4.3616,4.4984,4.5351,4.5159,4.6058,4.648,4.6599,4.6443,4.5975,4.5471,4.5792,4.5516,4.5305,4.6672,4.7452,4.8242,5.0285,5.1052,5.1461,5.2401,5.3135,5.3498,5.2935,5.326,5.3587,5.3088,5.3385,5.3636,5.306,5.3423,5.3627,5.307,5.3423,5.372,5.3478,5.3636,5.372,5.3478,5.3654,5.3889,5.4115,5.4142,5.4037,5.3765,5.394,5.3874,5.3365,5.3646,5.3859,5.3948,5.3722,5.3587,5.3587,5.2986,5.2544,5.2294,5.289,5.3197,5.3197,5.2582,5.2159,5.1885,5.1318,5.0894,5.0623,5.0608,5.0546,5.0429,5.0412,5.0354,5.0225,4.941,4.8563,4.7693,4.6819,4.5984,4.5302,4.0096,4.0096,4.015,4.028,4.0412,4.0546,4.0685,4.0817,4.0912,4.0912,4.0912,4.0912,4.0912,4.0912,4.0912,4.0912,4.1573,4.2004,4.2004,4.0848,4.0175,4.0175,4.0762,4.0745,4.0014,4.0434,4.0631,4.06,4.06,4.077,4.1135,4.166,4.1886,4.1856,4.2323,4.2543,4.258,4.3067,4.2993,4.2653,4.3956,4.4176,4.3892,4.5177,4.5571,4.5461,4.5617,4.5269,4.4718,4.4892,4.4837,4.4865,4.5828,4.6581,4.7407,4.8942,4.9883,5.0622,5.155,5.2498,5.3084,5.2527,5.3085,5.3615,5.3181,5.32,5.319,5.2698,5.2995,5.3181,5.2698,5.3255,5.3692,5.3385,5.358,5.358,5.294,5.3218,5.3446,5.3315,5.34,5.3387,5.319,5.3366,5.3313,5.2935,5.308,5.3197,5.3197,5.3197,5.3044,5.2697,5.2178,5.1755,5.1433,5.1952,5.2202,5.2202,5.2005,5.1736,5.1414,5.1241,5.0961,5.0598,5.0577,5.0495,5.0401,5.0359,5.014,4.9729,4.8907,4.8048,4.7182,4.6347,4.5722,4.5302,4.0096,4.0113,4.0163,4.0288,4.0424,4.0558,4.0697,4.0829,4.0912,4.0912,4.0912,4.0912,4.0912,4.0912,4.0912,4.0912,4.1452,4.1814,4.19,4.1072,4.0601,4.0601,3.983,3.91,3.8454,3.8644,3.8916,3.9248,3.929,3.967,4.0355,4.0428,4.0648,4.1012,4.1058,4.1095,4.1095,4.1168,4.1177,4.1168,4.2039,4.2415,4.2506,4.3304,4.4066,4.4608,4.3873,4.403,4.448,4.3745,4.3993,4.4608,4.4681,4.57,4.6929,4.7131,4.8336,4.9765,5.0566,5.1616,5.2436,5.2241,5.2938,5.3663,5.3599,5.3032,5.2475,5.2401,5.2438,5.2475,5.2401,5.3042,5.3357,5.2717,5.3144,5.3116,5.1741,5.2331,5.2636,5.196,5.2099,5.2348,5.2601,5.2549,5.2656,5.2951,5.2991,5.2991,5.2991,5.2991,5.2601,5.1813,5.1793,5.1428,5.0707,5.0707,5.0707,5.0707,5.1428,5.1414,5.0726,5.1442,5.1355,5.0588,5.0516,5.0457,5.0396,5.0319,4.9824,4.9008,4.8138,4.7278,4.6399,4.5607,4.5302,4.5283,4.0096,4.0188,4.0288,4.0436,4.0576,4.0709,4.084,4.0888,4.0912,4.0912,4.0912,4.0912,4.0912,4.0912,4.0912,4.0912,4.0469,4.0469,4.1101,3.9324,3.8237,3.8237,3.7467,3.7109,3.7276,3.902,3.9838,3.967,3.9997,4.0094,4.0026,4.0658,4.0663,4.0194,4.0828,4.1095,4.114,4.1764,4.1672,4.1232,4.2653,4.3231,4.3341,4.414,4.4553,4.4681,4.4498,4.4158,4.3726,4.3561,4.3616,4.3873,4.4498,4.4938,4.5599,4.7489,4.8382,4.8937,4.9728,5.1133,5.2043,5.0824,5.1611,5.2566,5.2048,5.1788,5.1472,5.0776,5.1175,5.1454,5.0766,5.1342,5.2067,5.2531,5.2215,5.2093,5.258,5.2307,5.2173,5.2471,5.2564,5.2455,5.2118,5.1492,5.1152,5.1241,5.1246,5.1246,5.1246,5.1246,5.1169,5.0976,5.0957,5.088,5.0707,5.0707,5.0707,5.0707,5.088,5.0861,5.0707,5.0831,5.0741,5.0516,5.0451,5.0376,5.0319,5.0302,4.9824,4.9008,4.8138,4.7278,4.6399,4.5607,4.5302,4.5206,4.0201,4.03,4.0436,4.0571,4.066,4.0745,4.0888,4.0912,4.0912,4.0912,4.0912,4.0745,4.0365,4.0331,4.0331,4.0331,3.9951,3.9882,4.0296,3.8882,3.8019,3.8019,3.7099,3.6761,3.7175,3.854,3.9167,3.8995,3.9201,3.9312,3.9331,3.9764,3.9727,3.935,3.9764,3.9966,3.9984,4.0406,4.0333,4.0039,4.0873,4.1203,4.1295,4.2103,4.2415,4.2506,4.3269,4.3534,4.3496,4.3549,4.354,4.3597,4.4115,4.4476,4.4947,4.6241,4.7243,4.8108,4.8918,5.0137,5.1092,5.0676,5.0963,5.1362,5.1389,5.1082,5.0655,5.0182,5.0785,5.1138,5.0256,5.1138,5.1974,5.2029,5.1676,5.1505,5.1801,5.161,5.1436,5.1502,5.1656,5.1645,5.1341,5.0957,5.0707,5.0707,5.1048,5.1106,5.0726,5.1048,5.1106,5.0707,5.0707,5.0707,5.0707,5.0707,5.0707,5.0707,5.0707,5.0673,5.0648,5.0613,5.0556,5.0451,5.0418,5.0354,5.0302,5.0302,4.9576,4.843,4.7985,4.703,4.587,4.5455,4.5034,4.4571,4.0342,4.0424,4.0546,4.0673,4.0721,4.0769,4.0871,4.0791,4.0693,4.0693,4.0589,4.0244,3.9589,3.9508,3.9508,3.9508,3.9399,3.933,3.933,3.8623,3.8242,3.8319,3.74,3.7116,3.7593,3.7935,3.8068,3.8008,3.8135,3.8377,3.8699,3.8699,3.8699,3.8699,3.8699,3.8699,3.8699,3.8699,3.8699,3.8699,3.8699,3.8773,3.8982,3.9643,4.0,4.0286,4.1625,4.2598,4.3313,4.3519,4.3558,4.3532,4.3694,4.4196,4.4772,4.497,4.6119,4.7481,4.8292,4.9233,5.0102,5.0639,5.0472,5.0321,5.085,5.0413,4.9884,4.9884,5.0469,5.0748,5.0042,5.1017,5.1788,5.1268,5.1117,5.0968,5.0707,5.0787,5.0722,5.0331,5.0539,5.0707,5.0707,5.0707,5.0707,5.0707,5.1318,5.1395,5.0745,5.1337,5.1395,5.0726,5.0707,5.0707,5.0707,5.0707,5.0707,5.0707,5.0697,5.0648,5.0598,5.0593,5.053,5.0401,5.0396,5.0342,5.0283,5.0149,4.9188,4.7788,4.7641,4.6634,4.5283,4.513,4.4532,4.3687,4.0448,4.0497,4.0546,4.0673,4.0793,4.0888,4.09,4.0313,3.9853,3.9853,3.9313,3.8864,3.8761,3.8744,3.8744,3.8744,3.8174,3.7795,3.7795,3.7042,3.6762,3.7106,3.6975,3.7261,3.8006,3.808,3.793,3.7587,3.8277,3.8661,3.8699,3.8699,3.8699,3.8699,3.8699,3.8699,3.8699,3.8699,3.8699,3.8699,3.8699,3.9129,3.9761,3.9853,4.0322,4.0975,4.1177,4.1782,4.2561,4.3276,4.3515,4.3496,4.3532,4.4145,4.5016,4.5714,4.6624,4.7562,4.8375,4.9196,4.9704,4.925,4.9583,4.9888,4.9365,4.915,4.9057,4.9057,4.9169,4.9206,4.9076,4.9243,4.9587,5.0182,4.9946,4.9979,5.0839,5.0583,5.0394,5.0618,5.0673,5.0707,5.0707,5.0707,5.0707,5.0707,5.0803,5.0803,5.0707,5.0803,5.0803,5.0707,5.0707,5.0707,5.0707,5.0707,5.0707,5.0707,5.0638,5.0608,5.0598,5.0532,5.0473,5.0401,5.0331,5.0308,5.0245,4.9543,4.8678,4.7736,4.6972,4.6118,4.5206,4.4451,4.3668,4.2832,3.9389,3.9712,3.9937,3.9588,3.9589,3.9623,3.9623,3.9313,3.9089,3.9089,3.8795,3.8433,3.8036,3.7588,3.7329,3.7329,3.7019,3.6829,3.6829,3.6714,3.6701,3.689,3.7339,3.7632,3.7756,3.8211,3.8236,3.7844,3.8427,3.8699,3.8699,3.8699,3.8699,3.8699,3.8699,3.8699,3.8699,3.8699,3.8699,3.8699,3.8699,3.8909,3.9239,3.9239,3.9748,4.0604,4.1598,4.2402,4.3105,4.3564,4.3615,4.3605,4.42,4.4885,4.5625,4.6506,4.7389,4.8153,4.8504,4.8946,4.9231,4.8932,4.9117,4.9293,4.8966,4.8909,4.8909,4.8909,4.9262,4.942,4.8974,4.9425,4.9812,4.9718,4.9656,4.9839,5.0463,5.0358,5.0317,5.0663,5.0707,5.0707,5.0707,5.0707,5.0707,5.0707,5.0707,5.0707,5.0707,5.0707,5.0707,5.0707,5.0707,5.0707,5.0707,5.0707,5.0673,5.0638,5.0613,5.0582,5.0537,5.0473,5.0418,5.0337,5.0314,5.0302,5.0245,4.9429,4.8582,4.7717,4.6839,4.5712,4.447,4.3629,4.2794,4.2011]},{"header":{"parameterUnit":"m.s-1","parameterCategory":1,"la1":30.6,"la2":28.766,"lo1":-90.7593,"lo2":-88.6598,"dx":0.0162,"dy":0.0183,"nx":116,"ny":114,"refTime":"2023-02-02T18:00:00:Z","depth":0,"parameterNumber":3,"parameterNumberName":"V-component_of_WINDS"},"data":[0.0,0.0,0.0,0.0,0.0,0.0,0.0,0.0,0.0,0.0,0.0,0.0,0.0,0.0,0.0,0.0,0.0,0.0,0.0,0.0,0.0,0.0,0.0,0.0,0.0,0.0,0.0,0.0,0.0,0.0,0.0,0.0,0.0,0.0,0.0,0.0,0.0,0.0,0.0,0.0,0.0,0.0,0.0,0.0,0.0,0.0,0.0,0.0,0.0,0.0,0.0,0.0,0.0,0.0,0.0,0.0,0.0,0.0,0.0,0.0,0.0,0.0,0.0,0.0,0.0,0.0,0.0,0.0,0.0,0.0,0.0,0.0,0.0,0.0,0.0,0.0,0.0,0.0,0.0,0.0,0.0,0.0,0.0,0.0,0.0,0.0,0.0,0.0,0.0,0.0,0.0,0.0,0.0,0.0,0.0,0.0,0.0,0.0,0.0,0.0,0.0,0.0,0.0,0.0,0.0,0.0,0.0,0.0,0.0,0.0,0.0,0.0,0.0,0.0,0.0,0.0,0.0,0.0,0.0,0.0,0.0,0.0,0.0,0.0,0.0,0.0,0.0,0.0,0.0,0.0,0.0,0.0,0.0,0.0,0.0,0.0,0.0,0.0,0.0,0.0,0.0,0.0,0.0,0.0,0.0,0.0,0.0,0.0,0.0,0.0,0.0,0.0,0.0,0.0,0.0,0.0,0.0,0.0,0.0,0.0,0.0,0.0,0.0,0.0,0.0,0.0,0.0,0.0,0.0,0.0,0.0,0.0,0.0,0.0,0.0,0.0,0.0,0.0,0.0,0.0,0.0,0.0,0.0,0.0,0.0,0.0,0.0,0.0,0.0,0.0,0.0,0.0,0.0,0.0,0.0,0.0,0.0,0.0,0.0,0.0,0.0,0.0,0.0,0.0,0.0,0.0,0.0,0.0,0.0,0.0,0.0,0.0,0.0,0.0,0.0,0.0,0.0,0.0,0.0,0.0,0.0,0.0,0.0,0.0,0.0,0.0,0.0,0.0,0.0,0.0,0.0,0.0,0.0,0.0,0.0,0.0,0.0,0.0,0.0,0.0,0.0,0.0,0.0,0.0,0.0,0.0,0.0,0.0,0.0,0.0,0.0,0.0,0.0,0.0,0.0,0.0,0.0,0.0,0.0,0.0,0.0,0.0,0.0,0.0,0.0,0.0,0.0,0.0,0.0,0.0,0.0,0.0,0.0,0.0,0.0,0.0,0.0,0.0,0.0,0.0,0.0,0.0,0.0,0.0,0.0,0.0,0.0,0.0,0.0,0.0,0.0,0.0,0.0,0.0,0.0,0.0,0.0,0.0,0.0,0.0,0.0,0.0,0.0,0.0,0.0,0.0,0.0,0.0,0.0,0.0,0.0,0.0,0.0,0.0,0.0,0.0,0.0,0.0,0.0,0.0,0.0,0.0,0.0,0.0,0.0,0.0,0.0,0.0,0.0,0.0,0.0,0.0,0.0,0.0,0.0,0.0,0.0,0.0,0.0,0.0,0.0,0.0,0.0,0.0,0.0,0.0,0.0,0.0,0.0,0.0,0.0,0.0,0.0,0.0,0.0,0.0,0.0,0.0,0.0,0.0,0.0,0.0,0.0,0.0,0.0,0.0,0.0,0.0,0.0,0.0,0.0,0.0,0.0,0.0,0.0,0.0,0.0,0.0,0.0,0.0,0.0,0.0,0.0,0.0,0.0,0.0,0.0,0.0,0.0,0.0,0.0,0.0,0.0,0.0,0.0,0.0,0.0,0.0,0.0,0.0,0.0,0.0,0.0,0.0,0.0,0.0,0.0,0.0,0.0,0.0,0.0,0.0,0.0,0.0,0.0,0.0,0.0,0.0,0.0,0.0,0.0,0.0,0.0,0.0,0.0,0.0,0.0,0.0,0.0,0.0,0.0,0.0,0.0,0.0,0.0,0.0,0.0,0.0,0.0,0.0,0.0,0.0,0.0,0.0,0.0,0.0,0.0,0.0,0.0,0.0,0.0,0.0,0.0,0.0,0.0,0.0,0.0,0.0,0.0,0.0,0.0,0.0,0.0,0.0,0.0,0.0,0.0,0.0,0.0,0.0,0.0,0.0,0.0,0.0,0.0,0.0,0.0,0.0,0.0,0.0,0.0,0.0,0.0,0.0,0.0,0.0,0.0,0.0,0.0,0.0,0.0,0.0,0.0,0.0,0.0,0.0,0.0,0.0,0.0,0.0,0.0,0.0,0.0,0.0,0.0,0.0,0.0,0.0,0.0,0.0,0.0,0.0,0.0,0.0,0.0,0.0,0.0,0.0,0.0,0.0,0.0,0.0,0.0,0.0,0.0,0.0,0.0,0.0,0.0,0.0,0.0,0.0,0.0,0.0,0.0,0.0,0.0,0.0,0.0,0.0,0.0,0.0,0.0,0.0,0.0,0.0,0.0,0.0,0.0,0.0,0.0,0.0,0.0,0.0,0.0,0.0,0.0,0.0,0.0,0.0,0.0,0.0,0.0,0.0,0.0,0.0,0.0,0.0,0.0,0.0,0.0,0.0,0.0,0.0,0.0,0.0,0.0,0.0,0.0,0.0,0.0,0.0,0.0,0.0,0.0,0.0,0.0,0.0,0.0,0.0,0.0,0.0,0.0,0.0,0.0,0.0,0.0,0.0,0.0,0.0,0.0,0.0,0.0,0.0,0.0,0.0,0.0,0.0,0.0,0.0,0.0,0.0,0.0,0.0,0.0,0.0,0.0,0.0,0.0,0.0,0.0,0.0,0.0,0.0,0.0,0.0,0.0,0.0,0.0,0.0,0.0,0.0,0.0,0.0,0.0,0.0,0.0,0.0,0.0,0.0,0.0,0.0,0.0,0.0,0.0,0.0,0.0,0.0,0.0,0.0,0.0,0.0,0.0,0.0,0.0,0.0,0.0,0.0,0.0,0.0,0.0,0.0,0.0,0.0,0.0,0.0,0.0,0.0,0.0,0.0,0.0,0.0,0.0,0.0,0.0,0.0,0.0,0.0,0.0,0.0,0.0,0.0,0.0,0.0,0.0,0.0,0.0,0.0,0.0,0.0,0.0,0.0,0.0,0.0,0.0,0.0,0.0,0.0,0.0,0.0,0.0,0.0,0.0,0.0,0.0,0.0,0.0,0.0,0.0,0.0,0.0,0.0,0.0,0.0,0.0,0.0,0.0,0.0,0.0,0.0,0.0,0.0,0.0,0.0,0.0,0.0,0.0,0.0,0.0,0.0,0.0,0.0,0.0,0.0,0.0,0.0,0.0,0.0,0.0,0.0,0.0,0.0,0.0,0.0,0.0,0.0,0.0,0.0,0.0,0.0,0.0,0.0,0.0,0.0,0.0,0.0,0.0,0.0,0.0,0.0,0.0,0.0,0.0,0.0,0.0,0.0,0.0,0.0,0.0,0.0,0.0,0.0,0.0,0.0,0.0,0.0,0.0,0.0,0.0,0.0,0.0,0.0,0.0,0.0,0.0,0.0,0.0,0.0,0.0,0.0,0.0,0.0,0.0,0.0,0.0,0.0,0.0,0.0,0.0,0.0,0.0,0.0,0.0,0.0,0.0,0.0,0.0,0.0,0.0,0.0,0.0,0.0,0.0,0.0,0.0,0.0,0.0,0.0,0.0,0.0,0.0,0.0,0.0,0.0,0.0,0.0,0.0,0.0,0.0,0.0,0.0,0.0,0.0,0.0,0.0,0.0,0.0,0.0,0.0,0.0,0.0,0.0,0.0,0.0,0.0,0.0,0.0,0.0,0.0,0.0,0.0,0.0,0.0,0.0,0.0,0.0,0.0,0.0,0.0,0.0,0.0,0.0,0.0,0.0,0.0,0.0,0.0,0.0,0.0,0.0,0.0,0.0,0.0,0.0,0.0,0.0,0.0,0.0,0.0,0.0,0.0,0.0,0.0,0.0,0.0,0.0,0.0,0.0,0.0,0.0,0.0,0.0,0.0,0.0,0.0,0.0,0.0,0.0,0.0,0.0,0.0,0.0,0.0,0.0,0.0,0.0,0.0,0.0,0.0,0.0,0.0,0.0,0.0,0.0,0.0,0.0,0.0,0.0,0.0,0.0,0.0,0.0,0.0,0.0,0.0,0.0,0.0,0.0,0.0,0.0,0.0,0.0,0.0,0.0,0.0,0.0,0.0,0.0,0.0,0.0,0.0,0.0,0.0,0.0,0.0,0.0,0.0,0.0,0.0,0.0,0.0,0.0,0.0,0.0,0.0,0.0,0.0,0.0,0.0,0.0,0.0,0.0,0.0,0.0,0.0,0.0,0.0,0.0,0.0,0.0,0.0,0.0,0.0,0.0,0.0,0.0,0.0,0.0,0.0,0.0,0.0,0.0,0.0,0.0,0.0,0.0,0.0,0.0,0.0,0.0,0.0,0.0,0.0,0.0,0.0,0.0,0.0,0.0,0.0,0.0,0.0,0.0,0.0,0.0,0.0,0.0,0.0,0.0,0.0,0.0,0.0,0.0,0.0,0.0,0.0,0.0,0.0,0.0,0.0,0.0,0.0,0.0,0.0,0.0,0.0,0.0,0.0,0.0,0.0,0.0,0.0,0.0,0.0,0.0,0.0,0.0,0.0,0.0,0.0,0.0,0.0,0.0,0.0,0.0,0.0,0.0,0.0,0.0,0.0,0.0,0.0,0.0,0.0,0.0,0.0,0.0,0.0,0.0,0.0,0.0,0.0,0.0,0.0,0.0,0.0,0.0,0.0,0.0,0.0,0.0,0.0,0.0,0.0,0.0,0.0,0.0,0.0,0.0,0.0,0.0,0.0,0.0,0.0,0.0,0.0,0.0,0.0,0.0,0.0,0.0,0.0,0.0,0.0,0.0,0.0,0.0,0.0,0.0,0.0,0.0,0.0,0.0,0.0,0.0,0.0,0.0,0.0,0.0,0.0,0.0,0.0,0.0,0.0,0.0,0.0,0.0,0.0,0.0,0.0,0.0,0.0,0.0,0.0,0.0,0.0,0.0,0.0,0.0,0.0,0.0,0.0,0.0,0.0,0.0,0.0,0.0,0.0,0.0,0.0,0.0,0.0,0.0,0.0,0.0,0.0,0.0,0.0,0.0,0.0,0.0,0.0,0.0,0.0,0.0,0.0,0.0,0.0,0.0,0.0,0.0,0.0,0.0,0.0,0.0,0.0,0.0,0.0,0.0,0.0,0.0,0.0,0.0,0.0,0.0,0.0,0.0,0.0,0.0,0.0,0.0,0.0,0.0,0.0,0.0,0.0,0.0,0.0,0.0,0.0,0.0,0.0,0.0,0.0,0.0,0.0,0.0,0.0,0.0,0.0,0.0,0.0,0.0,0.0,0.0,0.0,0.0,0.0,0.0,0.0,0.0,0.0,0.0,0.0,0.0,0.0,0.0,0.0,0.0,0.0,0.0,0.0,0.0,0.0,0.0,0.0,0.0,0.0,0.0,0.0,0.0,0.0,0.0,0.0,0.0,0.0,0.0,0.0,0.0,0.0,0.0,0.0,0.0,0.0,0.0,0.0,0.0,0.0,0.0,0.0,0.0,0.0,0.0,0.0,0.0,0.0,0.0,0.0,0.0,0.0,0.0,0.0,0.0,0.0,0.0,0.0,0.0,0.0,0.0,0.0,0.0,0.0,0.0,0.0,0.0,0.0,0.0,0.0,0.0,0.0,0.0,0.0,0.0,0.0,0.0,0.0,0.0,0.0,0.0,0.0,0.0,0.0,0.0,0.0,0.0,0.0,0.0,0.0,0.0,0.0,0.0,0.0,0.0,0.0,0.0,0.0,0.0,0.0,0.0,0.0,0.0,0.0,0.0,0.0,0.0,0.0,0.0,0.0,0.0,0.0,0.0,0.0,0.0,0.0,0.0,0.0,0.0,0.0,0.0,0.0,0.0,0.0,0.0,0.0,0.0,0.0,0.0,0.0,0.0,0.0,0.0,0.0,0.0,0.0,0.0,0.0,0.0,0.0,0.0,0.0,0.0,0.0,0.0,0.0,0.0,0.0,0.0,0.0,0.0,0.0,0.0,0.0,0.0,0.0,0.0,0.0,0.0,0.0,0.0,0.0,0.0,0.0,0.0,0.0,0.0,0.0,0.0,0.0,0.0,0.0,0.0,1.3815,0.0,0.0,0.0,0.0,0.0,0.0,0.0,0.0,0.0,0.0,0.0,0.0,0.0,0.0,0.0,0.0,0.0,0.0,0.0,0.0,0.0,0.0,0.0,0.0,0.0,0.0,0.0,0.0,0.0,0.0,0.0,0.0,0.0,0.0,0.0,0.0,0.0,0.0,0.0,0.0,0.0,0.0,0.0,0.0,0.0,0.0,0.0,0.0,0.0,0.0,0.0,0.0,0.0,0.0,0.0,0.0,0.0,0.0,0.0,0.0,0.0,0.0,0.0,0.0,0.0,0.0,0.0,0.0,0.0,0.0,0.0,0.0,0.0,0.0,0.0,0.0,0.0,0.0,0.0,0.0,0.0,0.0,0.0,0.0,0.0,0.0,0.0,0.0,0.0,0.0,0.0,0.0,0.0,0.0,0.0,0.0,0.0,0.0,0.0,0.0,0.0,0.0,0.0,0.0,0.0,0.0,0.0,0.0,0.0,0.0,0.0,0.0,0.0,0.0,0.0,0.0,1.4784,0.0,0.0,0.0,0.0,0.0,0.0,0.0,0.0,0.0,0.0,0.0,0.0,0.0,0.0,0.0,0.0,0.0,0.0,0.0,0.0,0.0,0.0,0.0,0.0,0.0,0.0,0.0,0.0,0.0,0.0,0.0,0.0,0.0,0.0,0.0,0.0,0.0,0.0,0.0,0.0,0.0,0.0,0.0,0.0,0.0,0.0,0.0,0.0,0.0,0.0,0.0,0.0,0.0,0.0,0.0,0.0,0.0,0.0,0.0,0.0,0.0,0.0,0.0,0.0,0.0,0.0,0.0,0.0,0.0,0.0,0.0,0.0,0.0,0.0,0.0,0.0,0.0,0.0,0.0,0.0,0.0,0.0,0.0,0.0,0.0,0.0,0.0,0.0,0.0,0.0,0.0,0.0,0.0,0.0,0.0,0.0,0.0,0.0,0.0,0.0,0.0,0.0,0.0,0.0,0.0,0.0,0.0,0.0,0.0,0.0,1.7326,1.767,1.7941,1.8108,1.6881,1.6459,1.6568,0.0,0.0,0.0,0.0,0.0,0.0,0.0,0.0,0.0,0.0,0.0,0.0,0.0,0.0,0.0,0.0,0.0,0.0,0.0,0.0,0.0,0.0,0.0,0.0,0.0,0.0,0.0,0.0,0.0,0.0,0.0,0.0,0.0,0.0,0.0,0.0,0.0,0.0,0.0,1.3049,1.295,1.3144,1.3541,1.295,0.0,0.0,0.0,0.0,0.0,0.0,0.0,0.0,0.0,0.0,0.0,0.0,0.0,0.0,0.0,0.0,0.0,0.0,0.0,0.0,0.0,0.0,0.0,0.0,0.0,0.0,0.0,0.0,0.0,0.0,0.0,0.0,0.0,0.0,0.0,0.0,0.0,0.0,0.0,0.0,0.0,0.0,0.0,1.3245,1.3286,0.0,0.0,0.0,0.0,0.0,0.0,0.0,0.0,0.0,0.0,0.0,0.0,0.0,0.0,1.5934,1.6679,1.7262,1.7669,1.7888,1.8341,1.8997,1.9038,1.928,1.9611,1.9427,0.0,1.7037,1.7096,0.0,0.0,0.0,0.0,0.0,0.0,0.0,0.0,0.0,0.0,0.0,0.0,0.0,0.0,0.0,0.0,0.0,0.0,0.0,0.0,0.0,0.0,0.0,0.0,0.0,0.0,0.0,0.0,0.0,0.0,0.0,0.0,0.0,0.0,0.0,0.0,1.1912,1.2508,1.3099,1.3047,1.33,1.3796,1.3515,1.318,1.2802,1.2376,0.0,0.0,0.0,0.0,0.0,0.0,0.0,0.0,0.0,0.0,0.0,0.0,0.0,0.0,0.0,0.0,0.0,0.0,0.0,0.0,0.0,0.0,0.0,0.0,0.0,0.0,0.0,0.0,0.0,0.0,0.0,0.0,0.0,0.0,0.0,0.0,0.0,0.0,0.0,1.3585,1.3974,1.3974,1.3763,1.3731,0.0,0.0,0.0,0.0,0.0,0.0,0.0,0.0,0.0,1.62,1.6691,1.7005,1.7086,1.7921,1.8432,1.8611,1.9279,1.9813,2.0198,2.0596,2.085,2.1025,2.1025,2.042,1.9334,1.8364,1.7714,1.7287,0.0,0.0,0.0,0.0,0.0,1.7083,0.0,0.0,0.0,0.0,0.0,0.0,0.0,0.0,0.0,0.0,0.0,0.0,0.0,0.0,0.0,1.1785,0.0,0.0,0.0,0.0,0.0,0.0,0.0,0.0,0.0,0.0,0.0,1.2096,1.2433,1.2884,1.3408,1.3342,1.3572,1.4051,1.3951,1.3622,1.3119,1.2579,1.2392,0.0,0.0,0.0,0.0,0.0,0.0,0.0,0.0,0.0,0.0,0.0,0.0,0.0,0.0,0.0,0.0,0.0,0.0,0.0,0.0,0.0,0.0,0.0,0.0,0.0,0.0,0.0,0.0,0.0,0.0,0.0,0.0,0.0,0.0,0.0,0.0,0.0,0.0,1.4148,1.4625,1.4509,1.4429,1.4447,0.0,0.0,0.0,0.0,0.0,0.0,1.612,1.6433,1.6879,1.75,1.7952,1.8202,1.8267,1.9065,1.9562,1.9733,2.0523,2.1099,2.1471,2.1977,2.2207,2.2207,2.2207,2.1963,2.1405,1.9771,1.8935,1.8586,1.784,1.7605,0.0,1.7698,1.792,1.822,0.0,0.0,0.0,0.0,0.0,0.0,0.0,0.0,0.0,0.0,0.0,0.0,0.0,0.0,1.2196,1.2167,1.15,1.1012,0.0,0.0,0.0,0.0,0.0,0.0,0.0,0.0,0.0,1.2659,1.2808,1.3355,1.4223,1.3974,1.4076,1.4447,1.4072,1.3675,1.3279,1.3119,1.2767,1.2298,0.0,0.0,0.0,0.0,0.0,0.0,0.0,0.0,0.0,0.0,0.0,0.0,0.0,0.0,0.0,0.0,0.0,0.0,0.0,0.0,0.0,0.0,0.0,0.0,0.0,0.0,0.0,0.0,0.0,0.0,0.0,0.0,0.0,0.0,0.0,0.0,0.0,0.0,0.0,1.4561,1.5157,0.0,0.0,0.0,0.0,1.6176,1.6231,1.657,1.7367,1.7422,1.7798,1.8595,1.9202,1.96,1.9785,2.0396,2.1034,2.166,2.1707,2.2184,2.2981,2.3023,2.3033,2.3033,2.3033,2.281,2.2352,2.1434,2.084,2.0468,2.041,2.039,2.039,2.039,2.0429,2.0439,0.0,0.0,0.0,0.0,0.0,0.0,0.0,0.0,0.0,0.0,0.0,0.0,0.0,1.3098,1.3167,1.2874,1.2576,1.2037,1.1144,0.0,0.0,0.0,0.0,0.0,0.0,0.0,1.2066,1.2957,1.2831,1.3205,1.4039,1.3939,1.4436,1.5392,1.525,1.512,1.4909,1.3737,1.2959,1.2554,1.2512,1.233,0.0,0.0,0.0,0.0,0.0,0.0,0.0,0.0,0.0,0.0,0.0,0.0,0.0,0.0,0.0,0.0,0.0,0.0,0.0,0.0,0.0,0.0,0.0,0.0,0.0,0.0,0.0,0.0,0.0,0.0,0.0,0.0,0.0,0.0,0.0,0.0,0.0,1.601,1.6303,0.0,0.0,1.6927,1.7027,1.7431,1.7697,1.8073,1.8623,1.8897,1.9291,1.984,2.0327,2.071,2.1068,2.1271,2.1852,2.276,2.2687,2.2875,2.33,2.3466,2.3555,2.3545,2.324,2.3191,2.3291,2.2684,2.1864,2.0967,2.0693,2.0605,2.0605,2.0605,2.0605,2.0605,0.0,0.0,0.0,0.0,0.0,0.0,0.0,0.0,0.0,0.0,0.0,1.3031,1.2993,1.3534,1.3688,1.3171,1.2934,1.231,1.1164,0.0,0.0,0.0,0.0,0.0,0.0,1.204,1.2444,1.3446,1.3209,1.353,1.4368,1.4462,1.5053,1.6039,1.6178,1.6233,1.6159,1.4995,1.397,1.3075,1.2812,1.2615,1.2487,0.0,0.0,0.0,0.0,0.0,0.0,0.0,0.0,0.0,0.0,0.0,0.0,0.0,0.0,0.0,0.0,0.0,0.0,0.0,0.0,0.0,0.0,0.0,0.0,0.0,0.0,0.0,0.0,0.0,0.0,0.0,0.0,0.0,0.0,0.0,1.6716,1.723,1.7532,1.7871,1.8265,1.8192,1.8275,1.8686,1.8952,1.9337,1.9879,2.0289,2.068,2.1095,2.1498,2.1882,2.2248,2.2248,2.2699,2.3579,2.3476,2.3549,2.3744,2.3926,2.4004,2.3984,2.3669,2.3718,2.3975,2.3669,2.3054,2.2245,2.1847,2.1671,2.1671,2.1671,2.1583,2.1435,0.0,0.0,0.0,0.0,0.0,0.0,0.0,0.0,0.0,0.0,1.3033,1.3112,1.3049,1.3568,1.3685,1.3096,1.2426,1.1717,1.0979,1.0229,0.0,0.0,0.0,0.0,1.2122,1.2509,1.3169,1.4114,1.3986,1.4405,1.5334,1.5597,1.5945,1.6378,1.6772,1.6955,1.6964,1.6955,1.5826,1.3952,1.313,1.302,1.325,0.0,0.0,0.0,0.0,0.0,0.0,0.0,0.0,0.0,0.0,0.0,0.0,0.0,0.0,0.0,0.0,0.0,0.0,0.0,0.0,0.0,0.0,0.0,0.0,0.0,0.0,0.0,0.0,0.0,0.0,0.0,0.0,0.0,1.636,1.7386,1.8155,1.8173,1.886,1.9219,1.8842,1.9153,1.9567,1.9948,1.9985,2.0335,2.1095,2.1535,2.1929,2.2314,2.2717,2.3045,2.3341,2.3322,2.3598,2.4148,2.4129,2.4235,2.441,2.441,2.441,2.441,2.4401,2.4401,2.441,2.4401,2.4401,2.4371,2.3965,2.3789,2.3789,2.3789,2.3503,2.311,0.0,0.0,0.0,0.0,0.0,0.0,0.0,0.0,0.0,0.0,1.36,1.3788,1.4068,1.4324,1.4406,1.4247,1.3129,1.218,1.1588,0.0,0.0,0.0,0.0,0.0,1.2817,1.2737,1.3299,1.4533,1.4405,1.4915,1.6031,1.6092,1.6662,1.7624,1.8027,1.8375,1.8623,1.8339,1.7715,1.6818,1.5439,1.4594,1.4106,0.0,0.0,0.0,0.0,0.0,0.0,0.0,0.0,0.0,0.0,0.0,0.0,0.0,0.0,0.0,0.0,0.0,0.0,0.0,0.0,0.0,0.0,0.0,0.0,0.0,0.0,0.0,0.0,0.0,0.0,0.0,0.0,1.7615,1.7615,1.8393,1.9201,1.9767,2.028,2.0796,2.126,2.1407,2.1645,2.2044,2.208,2.2172,2.2391,2.251,2.2704,2.3005,2.3126,2.3448,2.4027,2.3739,2.4056,2.4977,2.466,2.4671,2.4916,2.4916,2.4916,2.4896,2.4551,2.459,2.4887,2.4551,2.4609,2.4838,2.4082,2.3789,2.3789,2.3789,2.3711,2.3613,0.0,0.0,0.0,0.0,0.0,0.0,0.0,0.0,0.0,0.0,1.3708,1.4066,1.4527,1.4653,1.4631,1.4451,1.3108,1.2066,1.1587,0.0,0.0,0.0,0.0,1.2512,1.3423,1.3446,1.4004,1.5121,1.5206,1.5783,1.6817,1.6973,1.7605,1.8622,1.9016,1.9419,1.9797,1.9547,1.9318,1.9007,1.7899,1.6561,1.5187,1.4616,1.4264,1.4047,1.4047,1.4139,1.4203,1.3901,0.0,0.0,0.0,0.0,0.0,0.0,0.0,0.0,0.0,0.0,0.0,0.0,0.0,0.0,0.0,0.0,0.0,0.0,0.0,0.0,0.0,0.0,0.0,0.0,1.843,1.9282,1.9795,2.0115,2.0601,2.1416,2.1718,2.2048,2.2501,2.2538,2.2648,2.2885,2.2904,2.2904,2.2904,2.3059,2.3222,2.337,2.3656,2.4029,2.4557,2.4431,2.4746,2.5455,2.5228,2.5198,2.5352,2.5352,2.5352,0.0,2.5054,2.5093,2.5332,2.5054,2.5103,0.0,0.0,0.0,0.0,0.0,2.4053,2.4053,0.0,0.0,0.0,0.0,0.0,0.0,0.0,0.0,0.0,0.0,0.0,1.4105,1.4584,1.4628,1.4451,1.4058,1.2625,1.1565,0.0,0.0,0.0,1.227,1.2762,1.3316,1.3952,1.4405,1.5029,1.5843,1.6248,1.6863,1.7706,1.8018,1.8622,1.9457,1.9813,2.0198,2.0564,2.0564,2.0564,2.0527,2.0134,1.864,1.6552,1.5799,1.5487,1.5432,1.5386,1.4964,1.446,1.4698,0.0,0.0,0.0,0.0,0.0,0.0,0.0,0.0,0.0,0.0,0.0,0.0,0.0,0.0,0.0,0.0,0.0,0.0,0.0,0.0,0.0,0.0,0.0,0.0,2.0163,2.1123,2.2332,2.2249,2.2254,2.284,2.2986,2.3023,2.2977,2.3014,2.3068,2.3114,2.3114,2.3133,2.3178,0.0,0.0,0.0,0.0,2.4702,2.4998,2.5301,2.5585,2.5805,2.583,2.5854,2.5854,2.5854,2.5854,2.5854,2.5854,2.5854,2.5854,2.5854,2.5854,2.5806,2.5307,2.5092,2.5043,2.4639,2.4492,0.0,0.0,0.0,0.0,0.0,0.0,0.0,0.0,0.0,0.0,1.3539,1.3866,1.4099,1.4204,1.4169,1.3961,1.3564,1.2171,1.1192,0.0,0.0,1.2045,1.2298,1.3205,1.3925,1.4363,1.5093,1.5854,1.667,1.7073,1.7844,1.8944,1.8705,1.9181,2.0262,2.0344,2.0601,2.0976,2.0976,2.0976,2.0961,2.0546,1.9732,1.8669,1.8192,1.7798,1.7477,1.7156,1.7358,1.7624,1.6743,1.6551,1.6569,1.592,0.0,0.0,0.0,0.0,0.0,0.0,0.0,0.0,0.0,0.0,0.0,0.0,0.0,0.0,0.0,0.0,0.0,0.0,0.0,0.0,2.0088,2.1214,2.2378,2.3654,2.4048,2.3886,2.3004,2.3529,2.3794,2.3407,2.373,2.4085,2.44,2.4427,2.4565,2.4886,2.4675,0.0,2.5102,2.5026,2.5224,2.5708,2.6129,2.6378,2.6428,0.0,0.0,2.6742,2.6742,2.6742,2.6742,2.6742,2.6742,2.6742,2.6742,2.6742,2.6635,2.5542,2.5092,2.5082,2.4994,2.4965,2.4965,0.0,0.0,0.0,0.0,0.0,0.0,0.0,0.0,0.0,0.0,1.3667,1.3885,1.4079,1.3613,1.3225,1.3067,1.1984,0.0,0.0,1.178,1.2531,1.3168,1.3848,1.4579,1.538,1.6001,1.668,1.7495,1.7889,1.8623,1.9593,1.9392,1.9831,2.0793,2.0793,2.1022,2.1398,2.1398,2.1398,2.1379,2.1187,2.0866,2.0408,1.9611,1.9044,1.8695,1.8695,1.8567,1.8366,1.8174,1.7834,1.7458,1.7266,1.6644,1.5964,0.0,0.0,0.0,0.0,0.0,0.0,0.0,0.0,0.0,0.0,0.0,0.0,0.0,0.0,1.7688,0.0,0.0,2.0604,2.181,2.2863,2.384,2.4672,2.5141,2.5095,2.4262,2.4544,2.4709,2.4482,2.4663,2.4874,2.5086,2.5104,2.5186,2.5388,2.5214,2.5223,2.5435,2.5461,2.5572,2.5853,2.6189,2.6439,2.6593,2.6746,2.6884,2.6986,2.6986,2.6986,2.6986,2.6986,2.6986,2.6986,2.6986,2.6986,2.6934,2.6089,2.5757,2.5727,2.5488,2.54,2.54,0.0,0.0,0.0,0.0,0.0,0.0,0.0,0.0,0.0,0.0,1.3349,1.3578,1.3798,1.3172,1.2651,0.0,0.0,0.0,0.0,1.2126,1.3072,1.4213,1.4567,1.526,1.6396,1.6882,1.7486,1.8219,1.8613,1.9227,2.0003,1.995,2.0372,2.1205,2.1123,2.1324,2.1696,2.1696,2.1755,2.1797,2.1723,2.1742,2.1696,2.0656,2.0051,1.9797,1.996,1.9291,1.843,1.9091,1.8595,1.7807,1.8201,1.8119,1.766,1.6689,1.6589,0.0,0.0,0.0,0.0,0.0,0.0,0.0,0.0,0.0,1.7504,1.7981,1.8521,1.9218,2.0198,2.1159,2.2245,2.3541,2.4473,2.515,2.5462,2.5857,2.5994,2.5673,2.5563,2.548,2.5407,2.5398,2.5425,2.5508,2.5508,2.5544,2.5627,2.5554,2.5534,2.5595,2.5752,2.596,2.621,2.6312,2.661,2.7082,2.6988,2.705,2.724,2.724,2.724,2.724,2.724,2.724,2.724,2.724,2.724,2.7217,2.6807,2.6666,2.6588,2.5942,2.5693,2.5693,0.0,0.0,0.0,0.0,0.0,0.0,0.0,0.0,0.0,0.0,0.0,0.0,0.0,0.0,0.0,0.0,0.0,0.0,1.198,1.2753,1.3686,1.475,1.5303,1.5955,1.6799,1.7578,1.8182,1.8631,1.9045,1.963,2.0427,2.0079,2.0506,2.1627,2.1251,2.1324,2.1696,2.1696,2.192,2.2204,2.1833,2.1897,2.2185,2.17,2.1458,2.133,2.0674,1.9897,1.9182,1.9265,1.8981,1.8641,1.9045,1.9136,1.8797,1.7284,0.0,1.6094,1.4839,1.4836,1.5322,1.5938,1.6433,1.7138,0.0,0.0,1.9256,1.9996,2.105,2.1874,2.2011,2.3327,2.4461,2.4645,2.5333,2.5866,2.5938,2.6279,2.6536,2.6481,2.615,2.5783,2.5425,2.5398,2.5544,2.592,2.5921,2.6086,2.6462,2.6123,2.6053,2.6265,2.608,2.6537,2.7731,2.7419,2.7779,2.8809,2.8347,2.8128,2.8144,2.8144,2.8144,2.8144,2.8144,2.8144,2.8144,2.8144,2.8144,2.8105,2.7712,2.7545,2.7409,2.6157,2.5693,2.5693,0.0,0.0,0.0,0.0,0.0,0.0,0.0,0.0,0.0,0.0,0.0,0.0,0.0,0.0,0.0,0.0,0.0,0.0,1.1952,1.2875,1.3923,1.5078,1.5497,1.6294,1.7569,1.7935,1.8411,1.9054,1.9219,1.9714,2.0491,2.0326,2.0775,2.1687,2.1526,2.1553,2.1696,2.1696,2.181,2.1947,2.1782,2.181,2.192,2.1508,2.1068,2.0592,1.9996,1.9273,0.0,0.0,1.8302,1.8457,1.91,1.9146,1.8733,1.7587,1.6955,0.0,1.5746,1.5838,1.623,0.0,1.7651,1.8824,1.9492,2.0372,2.1205,2.1769,2.2712,2.3488,2.3712,2.4535,2.5223,0.0,2.5976,2.6352,2.6352,2.6481,2.6499,2.6279,2.6315,2.6288,2.6123,2.6104,2.6178,2.6343,2.6352,2.6435,2.6582,2.6444,2.6406,2.6514,2.6406,2.6684,2.7414,2.7104,2.7323,2.8101,2.7879,2.7889,2.8067,2.8237,2.8291,2.8291,2.8291,2.8291,2.8291,2.8291,2.8291,2.8252,2.7858,2.7692,2.7565,2.6504,2.6113,2.6084,0.0,0.0,0.0,0.0,0.0,0.0,0.0,0.0,0.0,0.0,0.0,0.0,0.0,0.0,0.0,0.0,0.0,0.0,0.0,1.2979,1.4035,1.5095,1.5524,1.6428,1.7899,1.8045,1.8494,1.9301,1.9421,1.9813,2.05,2.061,2.104,2.1696,2.1696,2.1696,2.1696,2.1696,2.1751,2.1874,2.1733,2.1696,2.1627,2.0875,2.0097,1.9373,1.9062,1.8302,0.0,0.0,1.7202,1.7569,1.8394,1.8595,1.8347,1.744,1.6807,1.6395,1.6314,0.0,0.0,1.7642,1.908,2.047,2.083,2.1892,2.2978,2.3486,2.417,2.4799,2.5076,2.5462,2.5829,2.6114,2.6416,2.6591,2.6591,2.649,2.6325,2.6022,2.6159,2.6298,2.6435,2.6518,2.6591,2.6591,2.6591,2.6591,2.6591,2.6591,2.6591,2.6591,2.6591,2.6845,2.7322,2.6917,2.7215,2.8208,2.8048,2.8111,2.8352,2.8318,2.8291,2.8291,2.8291,2.8291,2.8291,2.8291,2.8291,2.8262,2.7985,2.7868,2.778,2.7037,2.6695,2.6504,0.0,0.0,0.0,0.0,0.0,0.0,0.0,0.0,0.0,0.0,0.0,0.0,0.0,0.0,0.0,0.0,0.0,0.0,0.0,1.3172,1.4002,1.4697,1.5461,1.6391,1.7486,1.7899,1.8494,1.9301,1.9694,2.0097,2.0509,2.0906,2.1297,2.1696,2.1696,2.1696,2.1696,2.1696,2.1938,2.2249,2.1874,2.1696,2.1544,1.9941,1.8871,1.8155,1.8146,0.0,0.0,0.0,1.5769,1.5909,1.6725,1.7495,0.0,1.6689,1.578,0.0,0.0,0.0,1.8347,1.952,2.0726,2.1943,2.3114,2.3776,2.4376,2.5159,2.5645,2.5957,2.5948,2.6297,2.6554,2.6564,2.6582,2.6591,2.6591,2.626,2.6003,2.6012,2.5664,2.5581,0.0,2.6371,2.6591,2.6591,2.6591,2.6591,2.6591,2.6591,2.6591,2.6591,2.6591,2.7098,2.8143,2.7376,2.8055,3.0214,2.9692,2.944,2.9428,2.8654,2.8291,2.8291,2.8291,2.8291,2.8291,2.8291,2.8291,2.8291,2.8281,2.8271,2.8223,2.7809,2.7363,2.6908,0.0,0.0,0.0,0.0,0.0,0.0,0.0,0.0,0.0,0.0,0.0,0.0,0.0,0.0,0.0,0.0,0.0,0.0,0.0,1.2931,1.3556,1.4392,1.4866,1.5618,1.6688,1.7092,1.7697,1.8503,1.8906,1.93,1.9714,2.0115,2.0665,2.1297,2.1297,2.1453,2.1696,2.1696,2.1627,2.1443,2.0784,2.0518,2.0308,1.8411,1.7367,1.6772,0.0,0.0,0.0,0.0,0.0,0.0,1.5845,0.0,0.0,1.5707,0.0,0.0,0.0,0.0,1.9978,2.1196,2.2437,2.3543,2.4207,2.47,2.5058,2.5333,2.5067,2.4808,2.4808,2.4927,2.5086,2.537,2.5857,2.6297,2.6545,2.6463,2.6205,2.5664,2.571,0.0,0.0,0.0,0.0,2.6564,2.6591,2.6591,2.6591,2.6591,2.6591,2.6591,2.7278,2.7582,2.7403,2.7663,2.8147,2.8844,2.8827,2.8787,2.8681,2.8424,2.8291,2.8291,2.8291,2.8291,2.8291,2.8291,2.8291,2.8291,2.8291,2.8291,2.8242,2.7848,2.777,2.7764,0.0,0.0,0.0,0.0,0.0,0.0,0.0,0.0,0.0,0.0,0.0,0.0,0.0,0.0,0.0,0.0,0.0,0.0,0.0,0.0,1.3244,1.3708,1.426,1.4903,1.5636,1.6039,1.6587,1.7239,1.7798,1.8201,1.8458,1.9007,1.9538,2.0024,2.0024,2.0243,2.0628,2.0461,2.0271,1.996,1.93,1.8869,1.843,1.6699,1.5783,0.0,0.0,0.0,0.0,0.0,0.0,0.0,0.0,0.0,0.0,0.0,0.0,0.0,0.0,2.0033,2.1434,2.2676,2.3709,2.4544,2.5104,2.5315,2.5398,2.5398,2.4771,2.4202,2.4202,2.4058,2.4094,2.4516,2.5012,2.5535,2.6104,2.6058,2.5875,2.5636,2.571,0.0,0.0,0.0,0.0,2.6554,2.6591,2.6591,2.6591,2.6591,2.6683,2.682,2.7326,2.7518,2.7289,2.75,2.786,2.8292,2.8474,2.8582,2.8591,2.8281,2.8157,2.8157,2.8264,2.8291,2.8291,2.8291,2.8291,2.8291,2.8291,2.8291,2.8262,2.8015,2.8083,2.8193,0.0,0.0,0.0,0.0,0.0,0.0,0.0,0.0,0.0,0.0,0.0,0.0,0.0,0.0,0.0,0.0,0.0,0.0,0.0,0.0,0.0,1.27,1.367,1.4292,1.4442,1.4836,1.5239,1.565,1.6422,1.6817,1.6835,1.7605,1.799,1.8018,1.8018,1.8237,1.8576,1.8201,1.8036,1.7972,1.755,1.6927,1.6103,1.4882,0.0,0.0,0.0,0.0,0.0,0.0,0.0,0.0,0.0,0.0,0.0,0.0,0.0,1.8576,2.0189,2.1489,2.2712,2.3957,2.4553,2.504,2.5811,2.5645,2.5333,2.5333,2.4654,2.4082,0.0,0.0,2.3569,2.4076,2.422,2.456,2.537,2.5168,2.5214,0.0,0.0,0.0,0.0,0.0,0.0,2.6646,0.0,2.66,2.6646,2.6619,2.6829,2.7224,2.6921,2.7087,2.7784,2.7068,2.7316,2.8522,2.8638,2.8834,2.9012,2.8245,2.7906,2.7933,2.8184,2.8291,2.8291,2.8291,2.8291,2.8291,2.8291,2.8291,2.8291,2.8291,2.8291,2.8232,0.0,0.0,0.0,0.0,0.0,0.0,0.0,0.0,0.0,0.0,0.0,0.0,0.0,0.0,0.0,0.0,0.0,0.0,0.0,0.0,0.0,0.0,0.0,0.0,0.0,0.0,0.0,1.4808,1.5313,1.556,1.557,1.6074,1.6477,1.6763,1.6763,1.6983,1.7358,1.7248,1.7028,1.6699,0.0,1.5588,1.5239,0.0,0.0,0.0,0.0,0.0,0.0,0.0,0.0,0.0,0.0,0.0,1.7101,0.0,0.0,2.0243,2.1842,2.2997,2.4002,2.5249,2.5379,2.5379,2.5875,2.524,2.4514,2.4514,2.3336,2.2332,0.0,0.0,0.0,2.3504,2.4464,0.0,2.6591,2.6655,0.0,2.6866,0.0,2.6462,2.6857,2.6628,0.0,0.0,2.6949,2.6719,2.7041,2.7059,2.7233,2.7628,2.8332,2.8407,2.7822,2.8085,2.7949,2.743,2.8285,2.8541,2.8191,2.7977,2.8014,2.8211,2.8264,2.8291,2.8291,2.8291,2.8291,2.8291,2.8291,2.8291,2.8291,2.8291,2.8291,2.8281,0.0,0.0,0.0,0.0,0.0,0.0,0.0,0.0,0.0,0.0,0.0,0.0,0.0,0.0,0.0,0.0,0.0,0.0,0.0,0.0,0.0,0.0,0.0,0.0,0.0,0.0,0.0,0.0,0.0,0.0,1.4053,1.4466,1.4763,1.4976,1.4976,1.5212,1.557,1.5395,0.0,0.0,0.0,0.0,0.0,0.0,0.0,0.0,0.0,0.0,0.0,0.0,0.0,1.6101,1.6908,1.7678,1.8495,1.9511,0.0,2.1824,2.3111,2.4094,2.4937,2.58,2.5554,2.5196,2.5416,2.4526,2.3574,2.3415,2.2346,0.0,0.0,0.0,0.0,0.0,0.0,0.0,2.6499,2.6829,2.7077,0.0,2.727,0.0,2.7444,2.7105,2.7059,0.0,2.7123,2.7041,2.7444,2.7463,2.7646,2.8059,2.8464,2.8399,2.7793,2.8341,2.8113,2.7104,2.7735,2.778,2.7323,2.7449,2.7638,2.7916,0.0,2.8184,2.8291,2.8291,2.8291,2.8291,2.8291,2.8291,2.8291,2.8291,2.8291,2.8291,0.0,0.0,0.0,0.0,0.0,0.0,0.0,0.0,0.0,0.0,0.0,0.0,0.0,0.0,0.0,0.0,0.0,0.0,0.0,0.0,0.0,0.0,0.0,0.0,0.0,0.0,0.0,0.0,0.0,0.0,0.0,0.0,0.0,0.0,0.0,0.0,0.0,0.0,0.0,0.0,0.0,0.0,0.0,0.0,0.0,0.0,0.0,0.0,0.0,0.0,1.6772,1.6708,1.7669,1.8733,1.9806,2.0732,2.1984,2.3275,2.4186,2.4964,2.5554,2.5902,2.5388,2.4783,2.4638,2.3651,2.2629,2.2222,0.0,2.1218,2.1562,2.165,2.1998,2.2913,0.0,2.4744,2.604,2.6545,2.7068,2.7858,2.7858,2.7812,2.7867,2.7518,2.7307,2.7362,2.7371,2.749,2.7775,2.7848,2.8069,2.8462,2.8142,2.7931,2.7876,2.8243,2.7985,2.7206,2.7206,2.6995,2.6664,2.689,2.7179,2.7485,0.0,0.0,2.8291,2.8291,2.8291,2.8291,2.8291,2.8291,2.8291,2.8291,2.8291,2.8291,0.0,0.0,0.0,0.0,0.0,0.0,0.0,0.0,0.0,0.0,0.0,0.0,0.0,0.0,0.0,0.0,0.0,0.0,0.0,0.0,0.0,0.0,0.0,0.0,0.0,0.0,0.0,0.0,0.0,0.0,0.0,0.0,0.0,0.0,0.0,0.0,0.0,0.0,0.0,0.0,0.0,0.0,0.0,0.0,0.0,0.0,0.0,0.0,0.0,0.0,1.756,1.8109,1.9916,2.0848,2.1581,2.3112,2.3745,2.4223,2.5387,2.5774,2.5902,2.5967,2.5388,2.4601,2.3889,2.2776,0.0,0.0,0.0,2.1126,2.1178,2.148,2.2195,2.3727,0.0,0.0,0.0,0.0,2.7894,0.0,0.0,0.0,0.0,0.0,0.0,0.0,0.0,0.0,2.7812,2.8124,2.8471,2.8865,2.884,2.8618,2.8287,2.8361,2.7985,2.7206,2.7206,2.7096,2.6935,2.6989,2.7287,2.7826,0.0,0.0,2.8291,2.8291,2.8291,2.8291,2.8291,2.8291,2.8291,2.8291,2.8291,2.8291,0.0,0.0,0.0,0.0,0.0,0.0,0.0,0.0,0.0,0.0,0.0,0.0,0.0,0.0,0.0,0.0,0.0,0.0,0.0,0.0,0.0,0.0,0.0,0.0,0.0,0.0,0.0,0.0,0.0,0.0,0.0,0.0,0.0,0.0,0.0,0.0,0.0,0.0,0.0,0.0,0.0,0.0,0.0,0.0,0.0,0.0,0.0,0.0,0.0,0.0,1.7284,1.8183,2.0402,2.1663,2.2474,2.3299,2.4149,2.4939,2.5517,2.5985,2.626,2.604,2.5232,2.4204,2.312,0.0,0.0,0.0,2.0784,2.0934,2.1333,0.0,0.0,0.0,0.0,0.0,0.0,0.0,0.0,0.0,0.0,0.0,0.0,0.0,0.0,0.0,0.0,0.0,2.8427,2.8619,2.8783,2.8975,2.9014,2.8792,2.8397,2.8397,2.8086,2.7509,2.7509,2.7492,2.741,2.741,2.7622,2.7962,0.0,0.0,2.8291,2.8291,2.8291,2.8291,2.8291,2.8291,2.8291,2.8291,2.8291,2.8291,0.0,0.0,0.0,0.0,0.0,0.0,0.0,0.0,0.0,0.0,0.0,0.0,0.0,0.0,0.0,0.0,0.0,0.0,0.0,0.0,0.0,0.0,0.0,0.0,0.0,0.0,0.0,0.0,0.0,0.0,0.0,0.0,0.0,0.0,0.0,0.0,0.0,0.0,0.0,0.0,0.0,0.0,0.0,0.0,0.0,0.0,0.0,0.0,0.0,0.0,1.6717,1.7633,1.9888,2.148,2.2565,2.2831,2.3953,2.5186,2.5453,2.5994,2.6361,2.5857,2.4973,2.381,2.2359,2.1242,0.0,0.0,2.0436,2.072,2.1443,0.0,0.0,0.0,0.0,0.0,0.0,0.0,0.0,0.0,0.0,0.0,0.0,0.0,0.0,0.0,0.0,0.0,0.0,2.9014,2.9014,2.9014,2.9014,2.8867,2.8526,2.8434,2.8223,2.7931,2.7839,2.7793,2.7793,2.7793,2.7901,2.8031,0.0,0.0,0.0,2.8303,2.8291,2.8291,2.8291,2.8291,2.8291,2.8291,2.8291,2.8291,0.0,0.0,0.0,0.0,0.0,0.0,0.0,0.0,0.0,0.0,0.0,0.0,0.0,0.0,0.0,0.0,0.0,0.0,0.0,0.0,0.0,0.0,0.0,0.0,0.0,0.0,0.0,0.0,0.0,0.0,0.0,0.0,0.0,0.0,0.0,0.0,0.0,0.0,0.0,0.0,0.0,0.0,0.0,0.0,0.0,0.0,0.0,0.0,0.0,0.0,0.0,1.6699,1.8384,1.9987,2.1471,2.2574,0.0,0.0,2.5663,2.6012,2.5866,2.5104,2.4544,2.3687,2.1667,0.0,0.0,2.0042,2.0243,2.0628,2.1059,0.0,0.0,0.0,0.0,2.3733,0.0,0.0,0.0,0.0,0.0,0.0,0.0,0.0,0.0,0.0,0.0,0.0,0.0,2.9014,2.9014,2.9014,2.9014,2.8966,2.8959,2.8572,2.837,2.8333,2.7977,2.7793,2.7793,2.7793,2.7945,2.8173,0.0,0.0,0.0,2.8349,2.8291,2.8291,2.8291,2.8291,2.8291,2.8291,2.8291,2.8291,0.0,0.0,0.0,0.0,0.0,0.0,0.0,0.0,0.0,0.0,0.0,0.0,0.0,0.0,0.0,0.0,0.0,0.0,0.0,0.0,0.0,0.0,0.0,0.0,0.0,0.0,0.0,0.0,0.0,0.0,0.0,0.0,0.0,0.0,0.0,0.0,0.0,0.0,0.0,0.0,0.0,0.0,0.0,0.0,0.0,0.0,0.0,0.0,0.0,0.0,0.0,0.0,1.6973,1.8192,0.0,0.0,2.2772,2.3749,2.5232,2.5828,2.5801,2.5003,2.428,2.3318,2.152,0.0,2.017,2.0243,2.039,2.0692,2.1343,2.1599,0.0,0.0,0.0,0.0,2.429,0.0,0.0,0.0,0.0,0.0,0.0,0.0,0.0,0.0,0.0,0.0,0.0,2.9014,2.9014,2.9014,2.9014,2.8865,2.8627,2.8471,2.8397,2.8397,2.8223,2.8298,2.8528,2.8528,2.8535,2.8536,0.0,0.0,0.0,2.8277,2.8303,2.8672,2.8672,2.8516,2.832,2.8574,2.8672,2.8633,0.0,0.0,0.0,0.0,0.0,0.0,0.0,0.0,0.0,0.0,0.0,0.0,0.0,0.0,0.0,0.0,0.0,0.0,0.0,0.0,0.0,0.0,0.0,0.0,0.0,0.0,0.0,0.0,0.0,0.0,0.0,0.0,0.0,0.0,0.0,0.0,0.0,0.0,0.0,0.0,0.0,0.0,0.0,0.0,0.0,0.0,0.0,0.0,0.0,0.0,0.0,0.0,0.0,0.0,0.0,0.0,2.1632,2.2849,2.428,2.5058,2.5315,2.4755,2.3886,2.2799,0.0,0.0,2.0161,2.0436,2.0592,2.0885,2.1568,2.1696,2.1696,2.1696,0.0,2.2071,2.3169,0.0,0.0,0.0,0.0,0.0,0.0,0.0,0.0,0.0,0.0,0.0,0.0,2.9014,2.9014,2.9014,2.9014,2.8847,2.8572,2.8572,2.8572,2.8572,2.8572,2.8718,2.9014,2.9014,2.8937,0.0,0.0,0.0,0.0,2.8471,2.847,2.8799,2.9008,2.8848,2.8525,2.8955,2.9111,2.9053,0.0,0.0,0.0,0.0,0.0,0.0,0.0,0.0,0.0,0.0,0.0,0.0,0.0,0.0,0.0,0.0,0.0,0.0,0.0,0.0,0.0,0.0,0.0,0.0,0.0,0.0,0.0,0.0,0.0,0.0,0.0,0.0,0.0,0.0,0.0,0.0,0.0,0.0,0.0,0.0,0.0,0.0,0.0,0.0,0.0,0.0,0.0,0.0,0.0,0.0,0.0,0.0,0.0,0.0,0.0,0.0,2.0152,2.1879,2.2702,2.3565,2.422,2.4211,2.3235,2.2103,0.0,0.0,2.0491,2.05,2.0833,2.1214,2.1636,2.1696,2.1696,2.1696,2.1696,0.0,2.2794,0.0,0.0,0.0,0.0,0.0,0.0,0.0,0.0,0.0,0.0,0.0,0.0,0.0,2.9014,2.9014,2.9014,2.9014,2.8975,2.8975,2.8975,2.8975,2.8975,2.9005,2.9014,2.9014,0.0,0.0,0.0,0.0,0.0,2.9003,2.8854,2.8582,2.9321,2.9297,2.8937,2.9432,2.9588,2.953,0.0,0.0,0.0,0.0,0.0,0.0,0.0,0.0,0.0,0.0,0.0,0.0,0.0,0.0,0.0,0.0,0.0,0.0,0.0,0.0,0.0,0.0,0.0,0.0,0.0,0.0,0.0,0.0,0.0,0.0,0.0,0.0,0.0,0.0,0.0,0.0,0.0,0.0,0.0,0.0,0.0,0.0,0.0,0.0,0.0,0.0,0.0,0.0,0.0,0.0,0.0,0.0,0.0,0.0,0.0,0.0,0.0,0.0,2.1705,2.2478,2.2841,2.2566,2.1975,2.126,2.0463,0.0,2.017,2.0445,2.0811,2.1214,2.1636,2.1696,2.1696,2.1696,2.1696,0.0,0.0,0.0,0.0,0.0,0.0,0.0,0.0,0.0,0.0,0.0,0.0,0.0,0.0,0.0,2.9014,2.9014,2.9014,2.9014,2.9014,2.9014,2.9014,2.9014,2.9014,2.9014,2.9014,2.9014,0.0,0.0,0.0,0.0,0.0,2.8709,2.854,2.8689,2.9202,2.9076,2.8731,2.9474,2.9839,2.9893,0.0,0.0,0.0,0.0,0.0,0.0,0.0,0.0,0.0,0.0,0.0,0.0,0.0,0.0,0.0,0.0,0.0,0.0,0.0,0.0,0.0,0.0,0.0,0.0,0.0,0.0,0.0,0.0,0.0,0.0,0.0,0.0,0.0,0.0,0.0,0.0,0.0,0.0,0.0,0.0,0.0,0.0,0.0,0.0,0.0,0.0,0.0,0.0,0.0,0.0,0.0,0.0,0.0,0.0,0.0,0.0,0.0,0.0,0.0,2.1434,2.1819,2.1714,2.1178,0.0,0.0,0.0,2.0207,2.0445,2.094,2.1407,2.1641,2.1696,2.1696,0.0,0.0,0.0,0.0,0.0,0.0,0.0,0.0,0.0,0.0,0.0,0.0,0.0,0.0,0.0,0.0,0.0,2.9014,2.9014,2.9014,2.9014,2.9014,2.9014,2.9014,2.9014,2.9014,2.9014,2.9014,0.0,0.0,0.0,0.0,0.0,0.0,2.8871,2.8707,2.8804,2.9324,2.9222,2.8906,2.9719,3.0142,3.0198,0.0,0.0,0.0,0.0,0.0,0.0,0.0,0.0,0.0,0.0,0.0,0.0,0.0,0.0,0.0,0.0,0.0,0.0,0.0,0.0,0.0,0.0,0.0,0.0,0.0,0.0,0.0,0.0,0.0,0.0,0.0,0.0,0.0,0.0,0.0,0.0,0.0,0.0,0.0,0.0,0.0,0.0,0.0,0.0,0.0,0.0,0.0,0.0,0.0,0.0,0.0,0.0,0.0,0.0,0.0,0.0,0.0,0.0,0.0,0.0,0.0,0.0,0.0,0.0,0.0,0.0,0.0,2.05,2.115,2.1696,2.1696,2.1696,2.1696,0.0,0.0,0.0,0.0,0.0,0.0,0.0,0.0,0.0,0.0,0.0,0.0,0.0,0.0,0.0,0.0,0.0,0.0,2.9014,2.9014,2.9014,2.9014,2.9014,2.9014,2.9014,2.9014,2.9014,2.9014,0.0,0.0,0.0,0.0,0.0,0.0,2.9331,2.9198,2.8833,2.9556,2.9588,2.9363,3.0092,3.0382,3.0373,0.0,0.0,0.0,0.0,0.0,0.0,0.0,0.0,0.0,0.0,0.0,0.0,0.0,0.0,0.0,0.0,0.0,0.0,0.0,0.0,0.0,0.0,0.0,0.0,0.0,0.0,0.0,0.0,0.0,0.0,0.0,0.0,0.0,0.0,0.0,0.0,0.0,0.0,0.0,0.0,0.0,0.0,0.0,0.0,0.0,0.0,1.4601,0.0,0.0,0.0,0.0,0.0,0.0,0.0,0.0,0.0,1.8027,0.0,0.0,0.0,0.0,0.0,0.0,0.0,0.0,0.0,0.0,0.0,0.0,2.1696,2.1696,2.1696,2.1696,0.0,0.0,0.0,0.0,0.0,0.0,0.0,0.0,0.0,0.0,0.0,0.0,0.0,0.0,0.0,0.0,0.0,0.0,2.9014,2.9014,2.9014,2.9014,2.9014,2.9014,2.9014,2.9014,2.9014,2.9014,0.0,0.0,0.0,0.0,0.0,2.9014,2.9103,2.8864,2.8542,2.9035,2.9081,2.8997,2.9741,3.0186,3.0305,0.0,0.0,0.0,0.0,0.0,0.0,0.0,0.0,0.0,0.0,0.0,0.0,0.0,0.0,0.0,0.0,0.0,0.0,0.0,0.0,0.0,0.0,0.0,0.0,0.0,0.0,0.0,0.0,0.0,0.0,0.0,0.0,0.0,0.0,0.0,0.0,0.0,0.0,0.0,0.0,0.0,0.0,0.0,0.0,0.0,0.0,1.4717,1.5175,0.0,1.5909,1.6395,1.6908,0.0,0.0,0.0,0.0,1.8109,0.0,0.0,0.0,0.0,0.0,0.0,0.0,0.0,0.0,0.0,0.0,0.0,2.1696,2.1696,2.1696,0.0,0.0,0.0,0.0,0.0,0.0,0.0,0.0,0.0,0.0,0.0,0.0,0.0,0.0,0.0,0.0,0.0,0.0,0.0,0.0,2.9014,2.9014,2.9014,2.9014,2.9014,2.9014,2.9014,2.9014,2.9014,0.0,0.0,0.0,0.0,0.0,2.9014,2.9014,2.8886,2.8711,2.8893,2.8965,2.8966,2.9513,2.9824,2.9944,0.0,0.0,0.0,0.0,0.0,0.0,0.0,0.0,0.0,0.0,0.0,0.0,0.0,0.0,0.0,0.0,0.0,0.0,0.0,0.0,0.0,0.0,0.0,0.0,0.0,0.0,0.0,0.0,0.0,0.0,0.0,0.0,0.0,0.0,0.0,0.0,0.0,0.0,0.0,0.0,0.0,0.0,0.0,0.0,0.0,0.0,0.0,0.0,0.0,1.6158,1.6561,1.6908,1.6908,0.0,0.0,0.0,0.0,0.0,0.0,0.0,0.0,0.0,0.0,0.0,0.0,0.0,0.0,0.0,0.0,0.0,0.0,0.0,0.0,0.0,0.0,0.0,0.0,0.0,0.0,0.0,0.0,0.0,0.0,0.0,0.0,0.0,0.0,0.0,0.0,0.0,0.0,0.0,2.9014,2.9014,2.9014,2.9014,2.9014,2.9014,2.9014,2.9014,2.9014,2.9014,0.0,0.0,0.0,0.0,2.9014,2.9014,2.9014,2.9014,2.9014,2.9014,2.9044,2.939,2.9499,2.952,0.0,0.0,0.0,0.0,0.0,0.0,0.0,0.0,0.0,0.0,0.0,0.0,0.0,0.0,0.0,0.0,0.0,0.0,0.0,0.0,0.0,0.0,0.0,0.0,0.0,0.0,0.0,0.0,0.0,0.0,0.0,0.0,0.0,0.0,0.0,0.0,0.0,0.0,0.0,0.0,0.0,0.0,0.0,0.0,0.0,0.0,0.0,0.0,0.0,1.6158,1.6561,1.6908,1.6908,0.0,0.0,0.0,0.0,0.0,1.9091,1.9547,1.9731,1.9393,1.9593,0.0,0.0,0.0,0.0,0.0,0.0,0.0,0.0,0.0,0.0,0.0,0.0,0.0,0.0,0.0,0.0,0.0,0.0,0.0,0.0,0.0,0.0,0.0,0.0,0.0,0.0,0.0,0.0,0.0,0.0,2.9014,2.9014,2.9014,2.9014,2.9014,2.9014,2.9014,2.9014,2.9014,2.9014,0.0,0.0,2.9014,2.9014,2.9014,2.9014,2.9014,2.9014,2.9014,2.9044,2.939,2.9499,2.9482,0.0,0.0,0.0,0.0,0.0,0.0,0.0,0.0,0.0,0.0,0.0,0.0,0.0,0.0,0.0,0.0,0.0,0.0,0.0,0.0,0.0,0.0,0.0,0.0,0.0,0.0,0.0,0.0,0.0,0.0,0.0,0.0,0.0,0.0,0.0,0.0,0.0,0.0,0.0,0.0,0.0,0.0,0.0,0.0,0.0,0.0,0.0,0.0,0.0,0.0,1.6762,1.6908,1.6908,0.0,0.0,0.0,0.0,0.0,1.9091,1.9419,1.9575,1.9611,0.0,2.0436,2.0005,0.0,0.0,0.0,0.0,0.0,0.0,0.0,0.0,0.0,0.0,0.0,0.0,0.0,0.0,0.0,0.0,0.0,0.0,0.0,0.0,0.0,0.0,0.0,0.0,0.0,0.0,0.0,0.0,0.0,2.9014,2.9014,2.9014,2.9014,2.9014,2.9014,2.9014,2.9014,2.9014,2.9014,0.0,2.9014,2.9014,2.9014,2.9014,2.9014,2.9014,2.9014,2.9014,2.9153,2.9242,2.9216,0.0,0.0,0.0,0.0,0.0,0.0,0.0,0.0,0.0,0.0,0.0,0.0,0.0,0.0,0.0,0.0,0.0,0.0,0.0,0.0,0.0,0.0,0.0,0.0,0.0,0.0,0.0,0.0,0.0,0.0,0.0,0.0,0.0,0.0,0.0,0.0,0.0,0.0,0.0,0.0,0.0,0.0,0.0,0.0,0.0,0.0,0.0,0.0,0.0,0.0,0.0,0.0,0.0,0.0,0.0,0.0,1.8109,1.8274,1.9091,1.9375,1.9483,0.0,0.0,2.0701,2.028,0.0,0.0,0.0,0.0,0.0,0.0,0.0,0.0,0.0,0.0,0.0,0.0,0.0,0.0,0.0,0.0,0.0,0.0,0.0,0.0,0.0,0.0,0.0,0.0,0.0,0.0,0.0,0.0,0.0,2.9014,2.9014,2.9014,2.9014,2.9014,2.9014,2.9014,2.9014,2.9014,2.9014,2.9014,2.9014,2.9014,2.9014,2.9014,2.9014,2.9014,2.9014,2.9014,2.9014,2.9014,2.8998,0.0,0.0,0.0,0.0,0.0,0.0,0.0,0.0,0.0,0.0,0.0,0.0,0.0,0.0,0.0,0.0,0.0,0.0,0.0,0.0,0.0,0.0,0.0,0.0,0.0,0.0,0.0,0.0,0.0,0.0,0.0,0.0,0.0,0.0,0.0,0.0,0.0,0.0,0.0,0.0,0.0,0.0,0.0,0.0,0.0,0.0,0.0,0.0,0.0,0.0,0.0,0.0,0.0,0.0,0.0,0.0,1.8109,1.8274,1.9091,1.9566,1.9776,1.9439,1.9666,0.0,2.0869,2.1654,0.0,2.2222,0.0,0.0,0.0,0.0,0.0,0.0,0.0,0.0,0.0,0.0,0.0,0.0,0.0,0.0,0.0,0.0,0.0,0.0,0.0,0.0,0.0,0.0,0.0,0.0,0.0,0.0,2.9014,2.9014,2.9014,2.9014,2.9014,2.9014,2.9014,2.9014,2.9014,2.9014,2.9014,2.9014,2.9014,2.9014,2.9014,2.9014,2.9014,2.9014,2.9014,2.9014,2.9014,2.9005,0.0,0.0,0.0,0.0,0.0,0.0,0.0,0.0,0.0,0.0,0.0,0.0,0.0,0.0,0.0,0.0,0.0,0.0,0.0,0.0,0.0,0.0,0.0,0.0,0.0,0.0,0.0,0.0,0.0,0.0,0.0,0.0,0.0,0.0,0.0,0.0,0.0,0.0,0.0,0.0,0.0,0.0,0.0,0.0,0.0,0.0,0.0,0.0,0.0,0.0,0.0,0.0,0.0,0.0,0.0,0.0,1.7734,1.7908,1.8715,1.9228,1.9602,1.995,2.0344,0.0,0.0,2.2112,2.2675,0.0,0.0,0.0,0.0,0.0,0.0,0.0,0.0,0.0,0.0,0.0,0.0,0.0,0.0,0.0,0.0,0.0,0.0,0.0,0.0,0.0,0.0,0.0,0.0,0.0,0.0,0.0,0.0,2.9014,2.9014,2.9014,2.9014,2.9014,2.9014,2.9014,2.9014,2.9014,2.9014,2.9014,2.9014,2.9014,2.9014,2.9014,2.9014,2.9014,2.9014,2.9014,2.9014,2.9014,0.0,0.0,0.0,0.0,0.0,0.0,0.0,0.0,0.0,0.0,0.0,0.0,0.0,0.0,0.0,0.0,0.0,0.0,0.0,0.0,0.0,0.0,0.0,0.0,0.0,0.0,0.0,0.0,0.0,0.0,0.0,0.0,0.0,0.0,0.0,0.0,0.0,0.0,0.0,0.0,0.0,0.0,0.0,0.0,0.0,0.0,0.0,0.0,0.0,0.0,0.0,0.0,0.0,0.0,0.0,0.0,1.7587,1.7844,1.8531,1.8979,1.9467,0.0,0.0,0.0,2.2075,2.2918,2.3541,0.0,0.0,0.0,0.0,0.0,0.0,0.0,0.0,0.0,0.0,0.0,0.0,0.0,0.0,0.0,0.0,0.0,0.0,0.0,0.0,0.0,0.0,0.0,0.0,0.0,0.0,0.0,0.0,2.9014,2.9014,2.9014,2.9014,2.9014,2.9014,2.9014,2.9014,2.9014,2.9014,2.9014,2.9014,2.9014,2.9014,2.9014,2.9014,2.9014,2.9014,2.9014,2.9014,2.9014,0.0,0.0,0.0,0.0,0.0,0.0,0.0,0.0,0.0,0.0,0.0,0.0,0.0,0.0,0.0,0.0,0.0,0.0,0.0,0.0,0.0,0.0,0.0,0.0,0.0,0.0,0.0,0.0,0.0,0.0,0.0,0.0,0.0,0.0,0.0,0.0,0.0,0.0,0.0,0.0,0.0,0.0,0.0,0.0,0.0,0.0,0.0,0.0,0.0,0.0,1.6908,1.6908,0.0,0.0,0.0,1.7376,1.7789,1.8192,1.8586,1.8999,0.0,0.0,0.0,0.0,2.3041,2.418,2.4902,0.0,0.0,0.0,0.0,0.0,0.0,0.0,0.0,0.0,0.0,0.0,0.0,0.0,0.0,0.0,0.0,0.0,0.0,0.0,0.0,0.0,0.0,0.0,0.0,0.0,0.0,0.0,0.0,2.9014,2.9014,2.9014,2.9014,2.9014,2.9014,2.9014,2.9014,2.9014,2.9014,2.9014,2.9014,2.9014,2.9014,2.9014,2.9014,2.9014,2.9014,2.9014,2.9014,2.9014,0.0,0.0,0.0,0.0,0.0,0.0,0.0,0.0,0.0,0.0,0.0,0.0,0.0,0.0,0.0,0.0,0.0,0.0,0.0,0.0,0.0,0.0,0.0,0.0,0.0,0.0,0.0,0.0,0.0,0.0,0.0,0.0,0.0,0.0,0.0,0.0,0.0,0.0,0.0,0.0,0.0,0.0,0.0,0.0,0.0,0.0,0.0,0.0,0.0,0.0,0.0,0.0,0.0,0.0,0.0,1.7128,1.756,1.8137,1.8247,0.0,0.0,0.0,0.0,0.0,0.0,2.3721,0.0,0.0,0.0,0.0,0.0,0.0,0.0,0.0,0.0,0.0,0.0,0.0,0.0,0.0,0.0,0.0,0.0,0.0,0.0,0.0,0.0,0.0,0.0,0.0,0.0,0.0,0.0,0.0,0.0,0.0,2.9014,2.9014,2.9014,2.9014,2.9014,2.9014,2.9014,2.9014,2.9014,2.9014,2.9014,2.9014,2.9014,2.9014,2.9014,2.9014,2.9014,2.9014,2.9014,2.9014,0.0,0.0,0.0,0.0,0.0,0.0,0.0,0.0,0.0,0.0,0.0,0.0,0.0,0.0,0.0,0.0,0.0,0.0,0.0,0.0,0.0,0.0,0.0,0.0,0.0,0.0,0.0,0.0,0.0,0.0,0.0,0.0,0.0,0.0,0.0,0.0,0.0,0.0,0.0,0.0,0.0,0.0,0.0,0.0,0.0,0.0,0.0,0.0,0.0,0.0,0.0,0.0,0.0,0.0,0.0,1.7165,1.7587,1.8137,1.8292,0.0,0.0,0.0,0.0,0.0,0.0,0.0,0.0,0.0,0.0,0.0,0.0,0.0,0.0,0.0,0.0,0.0,0.0,0.0,0.0,0.0,0.0,0.0,0.0,0.0,0.0,0.0,0.0,0.0,0.0,0.0,0.0,0.0,0.0,0.0,0.0,0.0,0.0,2.8746,2.8746,2.8867,2.9014,2.9014,2.9014,2.9014,2.9014,2.8707,2.8212,2.8212,2.7873,2.7414,2.7414,2.7414,2.7414,2.7414,2.7414,2.7414,0.0,0.0,0.0,0.0,0.0,0.0,0.0,0.0,0.0,0.0,0.0,0.0,0.0,0.0,0.0,0.0,0.0,0.0,0.0,0.0,0.0,0.0,0.0,0.0,0.0,0.0,0.0,0.0,0.0,0.0,0.0,0.0,0.0,0.0,0.0,0.0,0.0,0.0,0.0,0.0,0.0,0.0,0.0,0.0,0.0,0.0,0.0,0.0,0.0,0.0,0.0,0.0,1.6891,1.6946,1.7065,1.7394,1.7844,1.8292,0.0,0.0,0.0,0.0,0.0,0.0,0.0,0.0,0.0,0.0,0.0,0.0,0.0,0.0,0.0,0.0,0.0,0.0,0.0,0.0,0.0,0.0,0.0,0.0,0.0,0.0,0.0,0.0,0.0,0.0,0.0,0.0,0.0,0.0,0.0,0.0,0.0,0.0,2.8739,0.0,2.8235,2.8456,2.8959,2.8959,2.8888,2.8826,2.8826,2.8062,2.6831,2.6831,2.6103,2.4994,2.4994,2.4994,2.4994,2.4994,2.4994,2.4994,0.0,0.0,0.0,0.0,0.0,0.0,0.0,0.0,0.0,0.0,0.0,0.0,0.0,0.0,0.0,0.0,0.0,0.0,0.0,0.0,0.0,0.0,0.0,0.0,0.0,0.0,0.0,0.0,0.0,0.0,0.0,0.0,0.0,0.0,0.0,0.0,0.0,0.0,0.0,0.0,0.0,0.0,0.0,0.0,0.0,0.0,0.0,0.0,0.0,0.0,0.0,0.0,1.6856,1.7331,1.7798,1.7568,1.8229,0.0,0.0,1.9529,0.0,0.0,0.0,0.0,0.0,0.0,0.0,0.0,0.0,0.0,0.0,0.0,0.0,0.0,0.0,0.0,0.0,0.0,0.0,0.0,0.0,0.0,0.0,0.0,0.0,0.0,0.0,0.0,0.0,0.0,0.0,0.0,0.0,2.8627,2.8886,2.8335,2.8179,0.0,2.7135,2.7218,2.8526,2.8526,2.8142,2.7414,2.7414,2.668,2.5423,2.5423,2.527,2.4994,2.4994,2.4994,2.4994,2.4994,2.4994,2.4994,0.0,0.0,0.0,0.0,0.0,0.0,0.0,0.0,0.0,0.0,0.0,0.0,0.0,0.0,0.0,0.0,0.0,0.0,0.0,0.0,0.0,0.0,0.0,0.0,0.0,0.0,0.0,0.0,0.0,0.0,0.0,0.0,0.0,0.0,0.0,0.0,0.0,0.0,0.0,0.0,0.0,0.0,0.0,0.0,0.0,0.0,0.0,0.0,0.0,0.0,0.0,0.0,0.0,0.0,1.8063,1.7844,1.8375,0.0,0.0,0.0,0.0,0.0,0.0,0.0,0.0,0.0,0.0,0.0,0.0,0.0,0.0,0.0,0.0,0.0,0.0,0.0,0.0,0.0,0.0,0.0,0.0,0.0,0.0,0.0,0.0,0.0,0.0,0.0,0.0,0.0,0.0,0.0,2.8436,2.8225,2.8427,2.8004,2.7517,2.6953,2.6247,2.6044,2.6317,2.7287,2.7111,2.6034,2.6034,2.5301,2.4093,2.4093,2.3698,2.3146,2.3146,2.3146,2.3146,2.3146,2.3146,2.3124,0.0,0.0,0.0,0.0,0.0,0.0,0.0,0.0,0.0,0.0,0.0,0.0,0.0,0.0,0.0,0.0,0.0,0.0,0.0,0.0,0.0,0.0,0.0,0.0,0.0,0.0,0.0,0.0,0.0,0.0,0.0,0.0,0.0,0.0,0.0,0.0,0.0,0.0,0.0,0.0,0.0,0.0,0.0,0.0,0.0,0.0,0.0,0.0,0.0,1.6719,0.0,0.0,0.0,0.0,1.821,1.8154,0.0,0.0,0.0,0.0,2.1242,0.0,0.0,0.0,0.0,0.0,0.0,0.0,0.0,0.0,0.0,0.0,0.0,0.0,0.0,0.0,0.0,0.0,0.0,0.0,0.0,0.0,0.0,0.0,0.0,0.0,0.0,0.0,0.0,0.0,2.8618,2.8904,2.8188,2.7699,2.7499,2.7334,2.6532,2.5099,2.5319,2.4704,2.3403,2.5359,2.5631,2.4601,2.4655,2.3946,2.274,2.274,2.209,2.1109,2.1109,2.1109,2.1102,2.1049,2.1036,2.0995,0.0,0.0,0.0,0.0,0.0,0.0,0.0,0.0,0.0,0.0,0.0,0.0,0.0,0.0,0.0,0.0,0.0,0.0,0.0,0.0,0.0,0.0,0.0,0.0,0.0,0.0,0.0,0.0,0.0,0.0,0.0,0.0,0.0,0.0,0.0,0.0,0.0,0.0,0.0,0.0,0.0,0.0,0.0,0.0,0.0,0.0,0.0,0.0,0.0,0.0,1.7315,0.0,0.0,0.0,0.0,0.0,0.0,0.0,0.0,0.0,2.1883,0.0,0.0,0.0,0.0,0.0,0.0,0.0,0.0,0.0,0.0,0.0,0.0,0.0,0.0,0.0,0.0,0.0,0.0,0.0,0.0,0.0,0.0,0.0,0.0,0.0,0.0,0.0,0.0,2.8968,2.8773,2.848,2.8041,2.729,2.6258,2.5559,2.4752,2.3827,2.3876,2.278,2.0772,2.243,2.3079,2.2942,2.323,2.2584,2.1355,2.1355,2.126,2.1109,2.1109,2.1109,2.1082,2.0828,2.0766,2.0726,0.0,0.0,0.0,0.0,0.0,0.0,0.0,0.0,0.0,0.0,0.0,0.0,0.0,0.0,0.0,0.0,0.0,0.0,0.0,0.0,0.0,0.0,0.0,0.0,0.0,0.0,0.0,0.0,0.0,0.0,0.0,1.5517,1.5698,0.0,0.0,0.0,0.0,0.0,0.0,0.0,0.0,0.0,0.0,0.0,0.0,0.0,0.0,0.0,0.0,0.0,0.0,0.0,0.0,0.0,0.0,0.0,0.0,0.0,1.9863,2.0859,2.198,0.0,0.0,0.0,0.0,0.0,0.0,0.0,0.0,0.0,0.0,0.0,0.0,0.0,0.0,0.0,0.0,0.0,0.0,0.0,0.0,0.0,0.0,0.0,0.0,0.0,0.0,0.0,2.8645,2.7587,2.7006,2.7051,2.5803,0.0,2.4668,2.4079,2.3347,2.2479,2.1788,2.1027,2.0241,2.1135,2.1609,2.1776,2.1909,2.1632,2.1109,2.1109,2.1109,2.1109,2.1109,2.1109,2.1076,2.0782,2.0706,2.0639,0.0,0.0,0.0,0.0,0.0,0.0,0.0,0.0,0.0,0.0,0.0,0.0,0.0,0.0,0.0,0.0,0.0,0.0,0.0,0.0,0.0,0.0,0.0,0.0,0.0,0.0,0.0,0.0,0.0,0.0,1.5189,1.5734,1.5979,0.0,1.6009,0.0,0.0,0.0,0.0,0.0,0.0,0.0,0.0,0.0,0.0,0.0,0.0,0.0,0.0,0.0,0.0,0.0,0.0,0.0,0.0,0.0,0.0,0.0,0.0,0.0,2.1516,2.2734,2.3416,0.0,0.0,0.0,0.0,0.0,0.0,0.0,0.0,0.0,0.0,0.0,0.0,0.0,0.0,0.0,0.0,0.0,0.0,0.0,0.0,0.0,0.0,0.0,0.0,0.0,2.7799,2.6364,2.5492,2.5383,2.3943,2.3103,2.2983,2.2399,2.1721,2.1045,2.0196,1.9953,2.021,2.0376,2.0635,2.0883,2.0949,2.0982,2.0982,2.0894,2.0848,2.0876,2.0876,2.0861,2.0848,2.0561,2.0485,2.0411,0.0,0.0,0.0,0.0,0.0,0.0,0.0,0.0,0.0,0.0,0.0,0.0,0.0,0.0,0.0,0.0,0.0,0.0,0.0,0.0,0.0,0.0,0.0,0.0,0.0,0.0,0.0,0.0,0.0,0.0,1.5389,1.582,1.6088,1.6263,1.6158,1.6167,1.6272,0.0,0.0,0.0,0.0,0.0,0.0,0.0,0.0,0.0,0.0,0.0,0.0,0.0,0.0,0.0,0.0,0.0,0.0,0.0,0.0,0.0,0.0,1.9626,0.0,2.1475,0.0,0.0,0.0,0.0,0.0,0.0,0.0,0.0,0.0,0.0,0.0,0.0,0.0,0.0,0.0,0.0,0.0,0.0,0.0,0.0,0.0,0.0,0.0,0.0,0.0,0.0,2.6169,2.6019,2.5283,2.3781,2.3618,2.2858,2.1346,2.0169,1.9575,1.9508,1.9696,1.9953,2.0204,1.9957,1.9998,2.0255,2.0523,2.064,2.0609,2.0265,2.02,2.0242,2.0242,2.0251,2.021,1.9953,1.9846,1.98,0.0,0.0,0.0,0.0,0.0,0.0,0.0,0.0,0.0,0.0,0.0,0.0,0.0,0.0,0.0,0.0,0.0,0.0,0.0,0.0,0.0,0.0,0.0,0.0,0.0,0.0,0.0,0.0,0.0,1.558,1.5418,1.5938,1.6226,1.6289,1.6254,1.6202,1.6167,1.6202,0.0,0.0,0.0,0.0,0.0,0.0,0.0,0.0,0.0,0.0,0.0,0.0,0.0,0.0,0.0,0.0,0.0,0.0,0.0,0.0,0.0,0.0,0.0,2.1355,0.0,0.0,0.0,0.0,0.0,0.0,0.0,0.0,0.0,0.0,0.0,0.0,0.0,0.0,0.0,0.0,0.0,0.0,0.0,0.0,0.0,0.0,0.0,0.0,0.0,0.0,2.4466,2.3488,2.2655,2.2089,2.1313,2.0635,2.0046,1.962,1.9301,1.9091,1.9351,1.9423,1.9354,1.9451,1.9532,1.9628,1.9484,1.9559,1.9776,1.9652,1.9595,1.9622,1.9622,1.9748,1.9904,1.9601,1.9615,1.9733,0.0,0.0,0.0,0.0,0.0,0.0,0.0,0.0,0.0,0.0,0.0,0.0,0.0,0.0,0.0,0.0,0.0,0.0,0.0,0.0,0.0,0.0,0.0,0.0,0.0,0.0,0.0,0.0,0.0,0.0,0.0,0.0,1.6289,1.6289,1.6289,0.0,0.0,0.0,0.0,1.6074,0.0,0.0,1.681,0.0,0.0,0.0,0.0,0.0,0.0,0.0,0.0,0.0,0.0,0.0,0.0,0.0,0.0,0.0,1.9083,0.0,0.0,0.0,0.0,0.0,0.0,0.0,0.0,0.0,0.0,0.0,0.0,0.0,0.0,0.0,0.0,0.0,0.0,0.0,0.0,0.0,0.0,0.0,0.0,0.0,0.0,0.0,0.0,0.0,2.2785,2.1771,2.1002,2.0608,1.9822,1.9336,1.9243,1.9243,1.9062,1.8742,1.902,1.9073,1.8907,1.8971,1.8993,1.8963,1.8536,1.8659,1.9132,1.9016,1.899,1.9,1.9114,1.9275,1.9472,1.9358,1.9469,1.9586,0.0,0.0,0.0,0.0,0.0,0.0,0.0,0.0,0.0,0.0,0.0,0.0,0.0,0.0,0.0,0.0,0.0,0.0,0.0,0.0,0.0,0.0,0.0,0.0,0.0,0.0,0.0,0.0,0.0,0.0,0.0,0.0,1.6289,0.0,1.6289,1.6289,1.6272,0.0,1.6117,1.6591,0.0,1.6733,1.722,0.0,0.0,0.0,1.8184,1.8492,0.0,0.0,0.0,0.0,0.0,0.0,0.0,0.0,0.0,0.0,0.0,0.0,0.0,0.0,0.0,0.0,0.0,0.0,0.0,0.0,0.0,0.0,0.0,0.0,0.0,0.0,0.0,0.0,0.0,0.0,0.0,0.0,0.0,0.0,0.0,0.0,0.0,0.0,0.0,2.2353,2.1174,2.1117,2.0579,1.9424,1.9366,1.9214,1.8881,1.8881,1.8735,1.8392,1.8731,1.8858,1.8858,1.8506,1.8363,1.8344,1.7747,1.7989,1.8747,1.8417,1.8295,1.8386,1.8673,1.8804,1.891,1.9243,1.9366,1.9348,0.0,0.0,0.0,0.0,0.0,0.0,0.0,0.0,0.0,0.0,0.0,0.0,0.0,0.0,0.0,0.0,0.0,0.0,0.0,0.0,0.0,0.0,0.0,0.0,0.0,0.0,0.0,0.0,0.0,0.0,0.0,0.0,0.0,0.0,1.6289,1.6254,1.6167,1.6313,0.0,0.0,1.6822,1.714,0.0,0.0,0.0,0.0,0.0,1.8643,0.0,0.0,1.88,1.8942,0.0,0.0,0.0,0.0,0.0,0.0,1.8922,0.0,0.0,0.0,0.0,0.0,0.0,0.0,0.0,0.0,0.0,0.0,0.0,0.0,0.0,0.0,0.0,0.0,0.0,0.0,0.0,0.0,0.0,0.0,0.0,0.0,0.0,0.0,1.9817,1.9535,1.9194,1.9165,1.9026,1.8684,1.869,1.8625,1.8532,1.8532,1.8392,1.8112,1.8187,1.813,1.7888,1.78,1.7741,1.7741,1.7574,1.7628,1.7851,1.7768,1.7725,1.7771,1.7829,1.8022,1.8259,1.8346,1.8661,1.8954,0.0,0.0,0.0,0.0,0.0,0.0,0.0,0.0,0.0,0.0,0.0,0.0,0.0,0.0,0.0,0.0,0.0,0.0,0.0,0.0,0.0,0.0,0.0,0.0,0.0,0.0,0.0,0.0,0.0,0.0,0.0,0.0,0.0,0.0,0.0,0.0,0.0,0.0,0.0,0.0,1.712,0.0,0.0,1.814,1.834,0.0,0.0,0.0,1.894,1.8859,1.9012,0.0,0.0,0.0,0.0,0.0,0.0,0.0,0.0,0.0,0.0,0.0,0.0,0.0,0.0,2.1495,0.0,0.0,0.0,0.0,0.0,0.0,0.0,0.0,0.0,0.0,0.0,0.0,0.0,0.0,0.0,0.0,0.0,0.0,0.0,0.0,1.8509,1.8392,1.8392,1.8278,1.8271,1.8386,1.8278,1.822,1.8223,1.8223,1.8077,1.7784,1.7784,1.7696,1.7514,1.7514,1.7514,1.7514,1.7514,1.7514,1.7514,1.7514,1.7514,1.7514,1.7667,1.7813,1.7995,1.8142,1.8374,1.8633,0.0,0.0,0.0,0.0,0.0,0.0,0.0,0.0,0.0,0.0,0.0,0.0,0.0,0.0,0.0,0.0,0.0,0.0,0.0,0.0,0.0,0.0,0.0,0.0,0.0,0.0,0.0,0.0,0.0,0.0,0.0,0.0,0.0,0.0,0.0,0.0,0.0,0.0,0.0,1.6994,1.742,1.789,0.0,0.0,1.8509,0.0,1.8524,1.8839,1.9289,1.9182,1.938,0.0,0.0,0.0,0.0,0.0,1.9565,0.0,0.0,0.0,0.0,0.0,0.0,0.0,2.0631,2.0826,2.1157,0.0,0.0,0.0,0.0,0.0,0.0,0.0,0.0,0.0,0.0,0.0,0.0,0.0,0.0,0.0,0.0,0.0,1.8052,1.8293,1.8283,1.826,1.826,1.8026,1.802,1.8292,1.8008,1.7886,1.7937,1.7906,1.776,1.7514,1.7514,1.7514,1.7514,1.7514,1.7514,1.7514,1.7514,1.7514,1.7514,1.7514,1.7514,1.7543,1.7789,1.7893,1.7917,1.8135,1.8244,1.8257,0.0,0.0,0.0,0.0,0.0,0.0,0.0,0.0,0.0,0.0,0.0,0.0,0.0,0.0,0.0,0.0,0.0,0.0,0.0,0.0,0.0,0.0,0.0,0.0,0.0,0.0,0.0,0.0,0.0,0.0,0.0,0.0,0.0,0.0,0.0,0.0,0.0,0.0,0.0,1.7437,1.7993,0.0,1.81,1.8322,1.8484,1.865,1.8812,1.9139,1.9518,0.0,2.0021,2.0108,0.0,0.0,0.0,0.0,0.0,0.0,0.0,0.0,0.0,0.0,0.0,0.0,1.8501,1.8372,1.8557,0.0,0.0,0.0,0.0,0.0,0.0,0.0,0.0,0.0,0.0,0.0,0.0,0.0,0.0,0.0,0.0,0.0,1.7706,1.7756,1.751,1.7344,1.7344,1.7295,1.7415,1.7678,1.722,1.7151,1.7602,1.7396,1.7367,1.7514,1.7514,1.7514,1.7514,1.7514,1.7514,1.7514,1.7514,1.7514,1.7514,1.7514,1.7514,1.749,1.7336,1.7286,1.7262,1.71,1.7345,1.7698,0.0,0.0,0.0,0.0,0.0,0.0,0.0,0.0,0.0,0.0,0.0,0.0,0.0,0.0,0.0,0.0,0.0,0.0,0.0,0.0,0.0,0.0,0.0,0.0,0.0,0.0,0.0,0.0,0.0,0.0,0.0,0.0,0.0,0.0,0.0,0.0,0.0,0.0,1.7684,1.7775,1.8075,0.0,1.8011,1.8161,1.8365,1.8609,1.8742,1.8914,1.9092,1.944,1.9635,0.0,0.0,1.9835,2.0361,0.0,2.0498,2.0665,0.0,0.0,0.0,1.941,0.0,0.0,0.0,1.7701,1.7794,0.0,0.0,0.0,0.0,0.0,0.0,0.0,0.0,0.0,0.0,0.0,0.0,0.0,0.0,0.0,0.0,0.0,1.7148,1.7148,1.7134,1.7092,1.7092,1.7092,1.7213,1.7502,1.7098,1.7086,1.7508,1.7381,1.7381,1.7514,1.7514,1.7514,1.7514,1.7514,1.7514,1.7514,1.7514,1.7514,1.7514,1.7514,1.7514,1.7502,1.734,1.7207,1.7092,1.7092,1.7116,1.7173,0.0,0.0,0.0,0.0,0.0,0.0,0.0,0.0,0.0,0.0,0.0,0.0,0.0,0.0,0.0,0.0,0.0,0.0,0.0,0.0,0.0,0.0,0.0,1.6908,0.0,0.0,0.0,0.0,0.0,0.0,0.0,0.0,0.0,0.0,0.0,0.0,0.0,0.0,0.0,1.8,0.0,1.8143,1.8192,1.8183,1.8466,1.8903,1.8972,1.8771,1.8569,1.9173,0.0,1.9351,1.9043,1.951,0.0,0.0,0.0,0.0,0.0,0.0,0.0,0.0,0.0,1.7545,0.0,0.0,0.0,1.7312,0.0,0.0,0.0,0.0,0.0,0.0,0.0,0.0,0.0,0.0,0.0,0.0,0.0,0.0,0.0,0.0,1.6598,1.6549,1.6839,1.7014,1.7014,1.7062,1.7213,1.7502,1.7177,1.7165,1.7508,1.7466,1.7466,1.7514,1.7514,1.7514,1.7514,1.7514,1.7514,1.7514,1.7514,1.7514,1.7514,1.7514,1.7514,1.7502,1.7399,1.7201,1.7032,1.7135,1.6944,1.6697,1.4418,1.4405,0.0,0.0,0.0,0.0,0.0,0.0,0.0,0.0,0.0,0.0,0.0,0.0,0.0,0.0,0.0,0.0,1.6835,0.0,0.0,0.0,0.0,0.0,1.6908,0.0,0.0,0.0,0.0,0.0,0.0,0.0,0.0,0.0,1.7786,0.0,0.0,0.0,1.7977,0.0,1.8391,1.8661,0.0,1.8814,1.9266,1.9987,2.0332,1.942,1.8372,0.0,2.0553,2.0008,0.0,2.0685,0.0,0.0,0.0,0.0,0.0,0.0,0.0,0.0,1.6626,0.0,0.0,0.0,1.4765,1.501,0.0,0.0,0.0,0.0,0.0,0.0,0.0,0.0,0.0,0.0,0.0,0.0,0.0,0.0,0.0,0.0,0.0,1.6,1.6459,1.6748,1.6748,1.6966,1.7213,1.7502,1.7002,1.6984,1.7508,1.7249,1.7249,1.7514,1.7514,1.7514,1.7514,1.7514,1.7514,1.7514,1.7514,1.7514,1.7514,1.7514,1.7514,1.7436,1.6972,1.6773,1.6688,1.6235,1.6196,1.6381,1.45,1.45,0.0,0.0,0.0,0.0,0.0,0.0,0.0,0.0,0.0,0.0,0.0,0.0,0.0,0.0,0.0,1.6908,0.0,0.0,0.0,0.0,0.0,0.0,0.0,0.0,0.0,0.0,1.7413,0.0,0.0,0.0,0.0,0.0,1.8018,0.0,1.7809,0.0,0.0,0.0,0.0,0.0,0.0,1.8268,1.8178,1.8319,1.9898,1.8857,1.6962,0.0,1.8918,0.0,0.0,0.0,0.0,0.0,0.0,0.0,0.0,0.0,0.0,0.0,0.0,0.0,0.0,0.0,1.4322,0.0,0.0,0.0,0.0,0.0,0.0,0.0,0.0,0.0,0.0,0.0,0.0,0.0,0.0,0.0,0.0,0.0,0.0,0.0,0.0,1.6531,1.6688,1.6948,1.7213,1.7502,1.7267,1.7261,1.7508,1.7405,1.7405,1.7514,1.7514,1.7514,1.7514,1.7514,1.7514,1.7514,1.7514,1.7514,1.7514,1.7514,1.7514,1.7449,1.7074,1.6833,1.6688,1.6616,1.6368,1.6153,1.45,0.0,0.0,0.0,0.0,0.0,0.0,0.0,0.0,0.0,0.0,0.0,1.6872,1.711,0.0,0.0,0.0,1.7303,0.0,0.0,1.7064,0.0,0.0,0.0,0.0,0.0,0.0,0.0,0.0,0.0,0.0,0.0,0.0,0.0,0.0,1.8292,1.8186,0.0,0.0,1.7995,1.896,1.8768,1.7915,1.7812,1.7476,1.7287,1.9059,1.794,1.5805,1.7063,1.7545,0.0,1.6657,0.0,0.0,0.0,0.0,0.0,1.7569,0.0,0.0,0.0,0.0,0.0,0.0,0.0,0.0,0.0,0.0,0.0,0.0,0.0,0.0,0.0,0.0,0.0,0.0,0.0,0.0,0.0,0.0,0.0,0.0,0.0,0.0,0.0,1.616,0.0,1.6688,1.6948,1.7213,1.7502,1.7514,1.7514,1.7514,1.7514,1.7514,1.7514,1.7514,1.7514,1.7514,1.7514,1.7514,1.7514,1.7514,1.7514,1.7514,1.7514,1.7514,1.7455,1.7195,1.693,1.6712,1.6827,1.6453,1.5996,1.45,1.45,0.0,0.0,0.0,0.0,0.0,0.0,0.0,0.0,0.0,0.0,0.0,0.0,0.0,0.0,0.0,1.8302,1.7523,0.0,1.7477,0.0,0.0,1.7669,0.0,0.0,0.0,0.0,0.0,0.0,0.0,0.0,0.0,0.0,0.0,1.8829,1.8592,1.8808,1.8427,1.7842,1.9144,1.8899,1.7724,0.0,1.7987,1.7979,1.8118,0.0,0.0,1.732,1.7328,0.0,0.0,0.0,0.0,0.0,0.0,0.0,0.0,0.0,0.0,0.0,0.0,0.0,0.0,0.0,1.4298,0.0,0.0,0.0,0.0,0.0,0.0,0.0,0.0,0.0,0.0,0.0,0.0,0.0,0.0,0.0,0.0,0.0,0.0,1.5891,1.616,1.6432,1.6688,1.6948,1.7213,1.7502,1.7514,1.7514,1.7514,1.7514,1.7514,1.7514,1.7514,1.7514,1.7514,1.7514,1.7514,1.7514,1.7514,1.7514,1.7514,1.7514,1.7514,1.7455,1.7195,1.693,1.667,1.6432,1.616,1.5971,0.0,0.0,0.0,0.0,0.0,0.0,0.0,1.5835,0.0,0.0,0.0,0.0,0.0,0.0,1.8843,0.0,0.0,1.8871,1.8339,1.8302,0.0,0.0,0.0,1.7963,0.0,0.0,0.0,0.0,0.0,0.0,0.0,0.0,0.0,0.0,0.0,1.8916,0.0,0.0,0.0,0.0,0.0,1.835,1.8864,0.0,0.0,1.6268,1.7613,1.6824,0.0,1.6622,1.6936,1.6671,1.6237,1.6349,1.6546,1.5971,1.5527,0.0,0.0,0.0,1.486,1.4514,0.0,0.0,0.0,0.0,0.0,0.0,0.0,0.0,0.0,0.0,0.0,0.0,0.0,0.0,0.0,0.0,0.0,0.0,0.0,0.0,0.0,0.0,0.0,1.5891,1.597,1.6223,0.0,1.6785,1.7032,1.7502,1.7514,1.7514,1.7514,1.7514,1.7514,1.7514,1.7514,1.7514,1.7514,1.7514,1.7514,1.7514,1.7514,1.7514,1.7514,1.7514,1.7411,1.7213,1.7129,1.6821,1.641,1.6341,1.6142,1.5971,1.4702,0.0,0.0,0.0,0.0,0.0,0.0,0.0,0.0,0.0,1.8347,0.0,1.9246,0.0,1.9677,0.0,1.9758,1.965,1.8971,1.9044,0.0,1.8338,1.8448,0.0,0.0,0.0,0.0,0.0,0.0,1.9054,0.0,0.0,0.0,0.0,0.0,0.0,0.0,0.0,1.9255,0.0,0.0,1.7536,0.0,0.0,1.7274,0.0,0.0,1.644,1.5434,1.6015,1.6292,1.6261,1.5387,1.5564,1.593,1.4975,1.464,1.4538,1.4467,1.4443,0.0,0.0,1.4588,0.0,1.4588,0.0,0.0,0.0,0.0,0.0,0.0,0.0,0.0,0.0,0.0,0.0,0.0,0.0,0.0,0.0,0.0,0.0,0.0,0.0,1.5891,1.5891,1.5891,1.6127,0.0,0.0,1.6942,1.7467,1.7514,1.7514,1.7514,1.7514,1.7514,1.7514,1.7514,1.7514,1.7514,1.7514,1.7514,1.7514,1.7514,1.7514,1.7514,1.7514,1.7411,1.7213,1.7026,1.6736,1.6416,1.6353,1.5979,1.5639,0.0,0.0,0.0,0.0,1.4909,0.0,0.0,0.0,1.7688,0.0,1.8851,1.9375,1.9421,2.0097,2.0408,2.0012,2.0683,0.0,1.9467,1.9749,0.0,0.0,1.9146,1.9329,1.9329,0.0,0.0,0.0,0.0,0.0,0.0,0.0,0.0,0.0,1.925,0.0,1.9841,2.0071,1.9304,1.7848,1.6974,1.6612,1.6581,1.6534,0.0,1.8419,1.648,1.5784,1.573,1.5564,1.5493,1.5445,1.5202,1.4933,1.4718,1.4718,1.4526,1.4377,1.4617,1.4702,1.4768,1.5046,0.0,0.0,0.0,0.0,1.5125,0.0,0.0,0.0,0.0,0.0,0.0,0.0,0.0,0.0,0.0,0.0,0.0,0.0,0.0,0.0,0.0,1.5891,1.5891,1.5891,1.5891,1.6127,0.0,0.0,0.0,1.7467,1.7514,1.7514,1.7514,1.7514,1.7514,1.7514,1.7514,1.7514,1.7514,1.7514,1.7514,1.7514,1.7514,1.7514,1.7514,1.7514,1.7473,1.7442,1.6899,1.6682,1.6628,1.638,1.573,1.5013,1.5558,1.5558,1.5606,0.0,1.592,1.6057,0.0,0.0,0.0,0.0,1.9685,2.0418,2.1022,2.1279,2.1361,2.126,2.1434,0.0,0.0,0.0,0.0,2.006,1.985,1.9749,1.9749,1.9447,0.0,1.9301,0.0,0.0,1.9301,0.0,0.0,0.0,0.0,0.0,2.0071,1.9692,1.8534,1.6951,1.6699,1.6574,0.0,0.0,1.6143,1.6938,1.573,1.5267,1.5291,1.5452,1.5493,1.5516,1.5594,1.5339,1.5011,1.5011,1.4818,1.4599,1.4672,1.4859,1.4997,1.5089,1.5107,1.5107,0.0,0.0,0.0,0.0,0.0,0.0,0.0,0.0,0.0,0.0,0.0,0.0,0.0,0.0,0.0,0.0,0.0,0.0,0.0,1.5891,1.5891,1.5891,1.5891,1.6127,0.0,0.0,0.0,1.7467,1.7514,1.7514,1.7514,1.7514,1.7514,1.7514,1.7514,1.7514,1.7514,1.7514,1.7514,1.7514,1.7514,1.7514,1.7514,1.7514,1.737,1.7159,1.6827,1.6453,1.6091,1.6024,1.5565,1.5013,1.5964,0.0,0.0,1.6744,0.0,0.0,1.7092,0.0,0.0,1.9456,2.0253,0.0,2.1388,2.1577,2.1696,2.1696,2.1696,0.0,0.0,0.0,0.0,2.0527,2.0445,2.0344,2.017,1.9767,0.0,1.9556,0.0,0.0,1.9301,0.0,0.0,0.0,0.0,2.0071,0.0,1.9431,1.8476,1.7482,1.6504,0.0,0.0,1.5166,1.5183,1.5466,1.4944,1.4909,1.5131,1.5267,1.5339,1.5333,1.5452,1.522,1.4958,1.5078,1.4912,1.4744,1.4998,1.5167,1.5306,1.5421,1.5451,1.5451,1.5451,1.5565,1.5668,0.0,0.0,0.0,0.0,0.0,0.0,0.0,0.0,0.0,0.0,0.0,0.0,0.0,0.0,0.0,1.5891,1.5891,1.5891,1.5891,1.5891,1.6127,0.0,0.0,0.0,1.7467,1.7514,1.7514,1.7514,1.7514,1.7514,1.7514,1.7514,1.7514,1.7514,1.7514,1.7514,1.7514,1.7514,1.7514,1.7514,1.7514,1.7328,1.705,1.6664,1.626,1.5838,1.5351,1.4777,1.418,0.0,0.0,0.0,0.0,0.0,0.0,0.0,1.8677,0.0,1.9895,0.0,2.119,2.119,2.1498,2.1696,2.1696,0.0,2.1553,2.1187,2.1508,2.1398,2.0692,2.093,2.0943,2.0582,2.0143,0.0,0.0,0.0,0.0,1.9301,0.0,0.0,0.0,0.0,0.0,0.0,1.9212,1.8657,0.0,1.6285,1.5356,1.5124,1.4861,1.4616,1.4394,1.4394,1.4664,1.5005,1.5035,1.5059,1.5059,1.5083,1.4916,1.4743,1.501,1.493,1.4852,1.5366,1.5523,1.5608,1.5831,1.5891,1.5891,1.5891,1.5891,1.5891,1.5891,1.5891,0.0,0.0,0.0,0.0,0.0,0.0,0.0,0.0,0.0,0.0,0.0,0.0,0.0,0.0,0.0,1.5891,1.5891,1.5891,1.6109,0.0,0.0,0.0,0.0,1.7467,0.0,1.7514,0.0,1.7514,1.7514,1.7514,1.7514,1.7514,1.7514,1.7514,1.7514,1.7514,1.7514,1.7508,1.7449,1.7284,1.6942,1.6492,1.604,1.5538,1.4433,1.3624,1.2943,0.0,0.0,0.0,0.0,0.0,1.8824,1.9472,1.9932,2.0234,2.0372,2.1104,0.0,2.1577,2.165,2.1696,2.1696,2.1696,0.0,0.0,0.0,0.0,2.1508,2.1233,2.1071,2.1007,2.028,1.9914,0.0,1.9503,1.9301,0.0,0.0,0.0,0.0,0.0,0.0,1.9068,1.8878,0.0,1.6292,1.573,1.5469,1.5404,1.5124,1.5005,1.4963,1.4963,1.4742,1.4472,1.4688,1.4766,1.4814,1.5035,1.4916,1.4743,1.501,1.5059,1.5107,1.5415,1.5656,1.5831,1.5879,1.5891,1.5891,1.5891,1.5891,1.5891,1.5891,1.5891,1.5891,1.5891,0.0,0.0,0.0,0.0,0.0,0.0,0.0,0.0,0.0,0.0,0.0,0.0,0.0,0.0,0.0,0.0,0.0,0.0,0.0,0.0,0.0,0.0,0.0,0.0,0.0,0.0,1.7514,1.7514,1.7514,1.7514,1.7514,1.7514,1.7514,1.7514,1.7514,1.7467,1.7249,1.6869,1.6438,1.6341,1.5546,1.4379,1.3484,1.2617,1.1864,0.0,0.0,0.0,0.0,0.0,0.0,0.0,2.0866,0.0,2.083,2.115,2.1388,2.1388,2.1581,2.1696,2.1696,2.1696,2.1696,2.1696,2.1696,2.1696,2.1696,2.1517,0.0,2.1407,2.0619,2.0317,2.0518,1.9905,1.9602,0.0,0.0,0.0,0.0,0.0,1.9708,0.0,0.0,0.0,1.6504,1.5801,1.5493,1.5469,1.5196,1.5107,1.5107,1.5107,1.4838,1.4544,1.4664,1.4616,1.452,1.464,1.4697,1.4741,1.5034,1.5202,1.5366,1.5626,1.5795,1.5891,1.5891,1.5891,1.5954,1.6087,1.5988,1.5928,1.6093,1.6009,1.5891,1.5891,1.5783,0.0,0.0,0.0,0.0,0.0,0.0,0.0,0.0,0.0,0.0,0.0,0.0,0.0,0.0,0.0,0.0,0.0,0.0,0.0,0.0,0.0,0.0,0.0,0.0,0.0,1.7514,1.7514,1.7514,1.7514,1.7514,1.7514,1.7514,1.7514,1.7436,1.7249,1.6839,1.6519,1.6238,1.5503,1.4808,1.4029,1.2526,1.1801,1.1541,0.0,1.8485,0.0,0.0,1.9886,0.0,0.0,2.1443,2.1599,2.126,2.1224,2.1224,2.1224,2.1517,2.1696,2.1696,2.1696,2.1696,2.1696,2.1696,2.1696,2.1696,2.1696,2.1696,2.1696,2.0995,2.0729,0.0,2.0335,1.995,0.0,0.0,0.0,0.0,0.0,0.0,0.0,0.0,1.7185,1.6904,1.5944,1.5564,1.554,1.5339,1.525,1.525,1.525,1.51,1.4879,1.4879,1.4616,1.4298,1.4298,1.4491,1.4744,1.5028,1.5294,1.5559,1.5819,1.5891,1.5891,1.5891,1.5891,1.5958,1.6251,1.6148,1.603,1.6269,1.6099,1.5891,1.5891,1.5891,0.0,0.0,0.0,0.0,0.0,0.0,0.0,0.0,0.0,0.0,0.0,0.0,0.0,0.0,0.0,0.0,1.6214,1.6513,0.0,0.0,0.0,1.7514,1.7514,0.0,1.7514,0.0,1.7514,1.7514,1.7514,1.7514,1.7514,1.7514,1.7514,1.7333,1.6972,1.6511,1.6111,1.5734,1.4618,1.3894,1.3263,1.1764,1.1204,1.1131,0.0,0.0,0.0,0.0,0.0,0.0,0.0,2.1443,2.17,2.1641,2.1632,2.1632,2.1632,2.1691,2.1696,2.1696,2.1696,2.1696,2.1696,2.1696,2.1696,2.1696,2.1696,2.1696,2.1696,2.126,2.0875,0.0,0.0,2.006,0.0,0.0,0.0,0.0,0.0,0.0,0.0,1.7372,1.6763,1.592,1.5825,1.5784,1.5784,1.573,1.5737,1.5737,1.5737,1.5588,1.5421,1.5421,1.4921,1.4298,1.4298,1.4491,1.4744,1.5028,1.5294,1.5559,1.5819,1.5891,1.5891,1.5891,1.5891,1.5958,1.6251,1.6287,1.6281,1.6299,1.6099,1.5891,1.5891,1.5891,1.597,0.0,0.0,0.0,0.0,0.0,0.0,0.0,0.0,0.0,0.0,0.0,0.0,0.0,0.0,1.5897,1.5954,1.6416,1.6712,1.6736,0.0,1.7514,1.7514,1.7514,0.0,1.7514,1.7514,1.7514,1.7514,1.7514,1.7514,1.7514,1.7514,1.7201,1.6712,1.6404,1.5542,1.4385,1.4256,1.2911,1.1082,1.1423,1.088,1.0036,0.0,0.0,0.0,0.0,0.0,0.0,0.0,2.1608,2.1696,2.1696,2.1696,2.1696,2.1696,2.1696,2.1696,2.1696,2.1696,2.1696,2.1696,2.1696,2.1696,2.1696,2.1696,2.1696,2.1696,2.1297,2.1132,0.0,0.0,2.0704,2.0393,0.0,0.0,0.0,0.0,1.7842,1.7263,1.6652,1.618,1.5808,1.5808,1.5808,1.5808,1.5808,1.5808,1.5808,1.5808,1.5659,1.5493,1.5493,1.5064,1.4569,1.4728,1.485,1.4979,1.5264,1.5529,1.5759,1.5861,1.5891,1.5891,1.5891,1.6006,1.622,1.6471,1.6531,1.6579,1.6764,1.645,1.6154,1.6154,1.6,1.5954,0.0,0.0,0.0,0.0,0.0,0.0,0.0,0.0,0.0,0.0,0.0,0.0,0.0,0.0,1.5891,1.5891,1.6404,1.6622,1.648,0.0,1.7406,1.7249,1.7436,1.7514,1.7514,1.7514,1.7514,1.7514,1.7514,1.74,1.7237,1.708,1.643,1.5427,1.5145,1.4272,1.3046,1.2363,1.1628,1.0918,1.0633,1.0335,1.0174,2.0774,0.0,2.0909,0.0,2.1361,2.1544,2.1824,2.1883,2.1883,2.1883,2.176,2.1696,2.1696,2.1696,2.1696,2.1696,2.1696,2.1696,2.1696,2.1696,2.1696,2.1696,2.1696,0.0,2.1696,2.1425,2.1361,2.1526,2.1361,0.0,0.0,0.0,0.0,0.0,1.7939,1.7145,1.6817,1.6109,1.5808,1.5808,1.5808,1.5808,1.5808,1.5808,1.5808,1.5808,1.5808,1.5706,1.5588,1.5588,1.536,1.5054,1.5078,1.5108,1.5161,1.5421,1.5686,1.5891,1.5891,1.5891,1.591,1.6009,1.6172,1.6402,1.6736,1.6815,1.6869,1.705,1.6752,1.6432,1.6432,1.6254,1.6151,0.0,0.0,0.0,0.0,0.0,0.0,0.0,0.0,0.0,0.0,0.0,0.0,0.0,0.0,0.0,1.5891,1.6404,0.0,0.0,0.0,0.0,0.0,1.7423,1.7514,1.7514,1.7514,1.7514,1.7508,1.7436,1.7088,1.654,1.6212,1.5316,1.4051,1.3767,1.2965,1.1819,1.1,1.0648,1.0543,1.0005,1.0009,1.0339,2.1455,2.1497,2.1541,2.168,2.203,2.2295,2.2295,2.2295,2.2295,2.2295,2.1956,2.1696,2.1696,2.1696,2.1696,2.1696,2.1696,2.1696,2.1696,2.1696,2.1696,0.0,0.0,2.1696,2.1696,2.1709,2.1508,2.1117,0.0,0.0,2.0518,0.0,2.0289,1.8811,1.8788,1.7677,1.5825,1.5808,1.5808,1.5808,1.5808,1.5808,1.5808,1.5808,1.5808,1.5808,1.5808,1.5808,1.5808,1.5808,1.5851,1.5795,1.5256,1.5108,1.5161,1.5421,1.5686,1.5891,1.5891,1.5891,1.5952,1.6238,1.6305,1.645,1.6966,1.7086,1.7086,1.7092,1.6881,1.6694,1.6694,1.6694,1.6779,1.7038,0.0,0.0,0.0,0.0,0.0,0.0,0.0,0.0,0.0,0.0,0.0,0.0,0.0,0.0,0.0,0.0,0.0,1.6694,1.7207,0.0,1.7508,1.7514,1.7514,1.7514,1.7514,1.7514,1.7502,1.7213,1.6443,1.5297,1.4831,1.3928,1.2789,1.253,1.176,1.0726,1.0699,1.019,0.9461,0.9706,1.0009,1.0339,2.2105,2.2001,2.1916,2.1967,2.1931,2.1901,2.1901,2.213,2.2204,2.1938,2.202,2.1989,2.1723,2.1696,2.1696,0.0,2.1696,2.1696,0.0,2.1696,2.1696,2.1696,2.1696,2.1696,2.1696,2.1696,2.1645,2.1517,0.0,0.0,0.0,2.0793,2.0295,1.9749,1.838,1.7412,1.6793,1.6086,1.5808,1.5808,1.5808,1.5808,1.5808,1.5808,1.5808,1.5808,1.5808,1.5808,1.5835,1.6059,1.604,1.5941,1.6137,1.5947,1.5666,1.5745,1.5825,1.5891,1.5891,1.6018,1.6202,1.6287,1.6561,1.6875,1.705,1.7231,1.7358,1.7358,1.7153,1.6966,1.6966,1.6821,1.6724,1.6809,0.0,0.0,0.0,0.0,0.0,0.0,0.0,0.0,0.0,1.6081,0.0,0.0,0.0,0.0,0.0,0.0,0.0,0.0,1.7207,0.0,1.7219,1.7423,1.7514,1.7514,1.7514,1.6967,1.5996,1.5918,1.5031,1.359,1.3451,1.2612,1.1355,1.1267,1.0539,0.9509,0.973,0.9757,0.9706,1.0036,1.0312,1.0582,2.2432,2.2287,2.2163,2.1985,2.1949,2.1938,2.1938,2.214,2.2268,2.2153,2.2121,2.2048,2.1947,2.1778,0.0,2.1696,2.1696,2.1696,2.1696,2.1696,2.1696,2.1696,2.1696,2.1696,2.1696,0.0,0.0,2.1696,2.1696,2.1696,2.1696,2.1109,2.0439,1.9681,1.8427,1.7435,1.6692,1.6062,1.5808,1.5808,1.5808,1.5808,1.5808,1.5808,1.5808,1.5808,1.5808,1.5875,1.6025,1.6237,1.6339,1.641,1.6625,1.6561,1.6343,1.6115,1.6044,1.6042,1.6036,1.6263,1.6459,1.6589,1.6839,1.7117,1.7213,1.7393,1.7514,1.7514,1.7381,1.7237,1.7237,1.7105,1.6996,1.6996,0.0,1.7207,0.0,0.0,0.0,0.0,0.0,0.0,0.0,1.6278,0.0,0.0,0.0,0.0,0.0,0.0,0.0,1.6845,1.682,0.0,1.653,1.624,1.6077,1.6077,1.6012,1.5471,1.459,1.4419,1.356,1.2167,1.2058,1.127,1.0021,1.0021,0.9588,0.8937,0.9268,0.9572,0.9844,1.0174,1.0476,1.0692,2.252,2.2419,0.0,0.0,2.202,0.0,2.2259,2.2304,2.2469,2.2776,2.2208,2.1897,2.2222,2.1906,2.1696,2.1696,0.0,0.0,0.0,2.1696,2.1696,2.1696,2.1696,0.0,2.1696,2.1696,2.1696,2.1696,2.1696,2.1696,2.1696,2.162,2.0628,1.8903,1.8765,1.7661,1.5896,1.5832,1.5808,1.5808,1.5808,1.5808,1.5808,1.5808,1.5808,1.5808,1.5808,1.6019,1.6304,1.6317,1.673,1.7154,1.6839,1.6958,1.71,1.651,1.6333,1.6329,1.6338,1.6529,1.6785,1.7032,1.7133,1.7212,1.746,1.7514,1.7543,1.7514,1.7514,1.7514,1.7514,1.7514,1.7514,1.7514,1.7467,1.7399,1.7129,0.0,0.0,0.0,0.0,0.0,0.0,1.6561,1.661,0.0,0.0,0.0,0.0,0.0,1.6845,1.7111,1.6137,1.5604,1.5604,1.4351,1.3685,1.3671,1.3497,1.3329,1.3229,1.2843,1.2051,1.0928,1.0666,0.9943,0.8912,0.8912,0.8912,0.8968,0.9296,0.9596,0.9871,1.0202,1.05,1.0688,0.0,0.0,2.2375,2.2264,2.2015,2.1833,2.1833,2.2355,2.2574,2.2044,2.2355,2.2419,2.1888,2.1773,2.1696,2.1696,2.1696,2.1696,2.1696,2.1696,2.1696,2.1696,2.1696,2.1696,2.1696,2.1696,2.1696,2.1696,2.1696,2.1696,2.1674,2.0966,2.0393,1.9886,1.8334,1.7396,1.688,1.6133,1.5808,1.5808,1.5808,1.5808,1.5808,1.5808,1.5808,1.5808,1.5808,1.6019,1.633,1.6526,1.6872,1.7214,1.7356,1.7298,1.712,1.671,1.6617,1.6624,1.6618,1.6807,1.7014,1.7074,1.7452,1.774,1.7525,1.7696,1.782,1.7543,1.7514,1.7514,1.7514,1.7514,1.7514,1.7514,1.7345,1.7165,1.7098,0.0,0.0,0.0,1.6779,1.6821,1.6622,1.6839,1.6887,0.0,0.0,0.0,0.0,0.0,1.7117,1.7411,1.6227,1.5604,1.5604,1.4351,1.3614,1.3478,1.3426,1.2774,1.1637,1.1547,1.0735,0.9429,0.9362,0.9154,0.8912,0.8912,0.9047,0.9296,0.9596,0.9899,1.0229,1.05,1.0637,1.0672,2.2991,2.2903,2.2783,2.2559,2.2322,2.2119,2.1984,2.2181,2.2254,2.202,2.219,2.2254,2.1989,2.1984,2.1888,2.1727,2.1696,2.1696,2.1696,2.1696,2.1696,2.1696,2.1696,2.1696,2.1696,2.1696,2.1696,2.1696,2.1696,2.1477,2.1042,2.0529,1.9818,1.888,1.7785,1.7044,1.6581,1.6038,1.5808,1.5808,1.5808,1.5808,1.5808,1.5808,1.5808,1.5808,1.5808,1.6082,1.6524,1.6653,1.6994,1.7401,1.7555,1.751,1.7378,1.7296,1.7218,1.7112,1.7112,1.74,1.7702,1.7702,1.7855,1.7937,1.7755,1.7755,1.7726,1.7543,1.7514,1.7514,1.7514,1.7514,1.7514,1.7514,1.7261,1.705,1.693,1.6791,0.0,1.6537,1.6857,1.7038,1.6893,1.7117,1.7159,1.6899,0.0,0.0,1.7092,1.7207,1.7072,1.6644,1.5391,1.4441,1.3814,1.2552,1.1834,1.1652,1.1595,1.1097,1.022,1.0144,0.9652,0.8912,0.8912,0.8912,0.8912,0.8912,0.9103,0.9434,0.9706,1.0009,1.0331,1.0494,1.0547,1.055,2.2969,2.3153,2.3207,2.2866,2.2739,2.2625,2.2396,2.2098,2.197,2.2268,2.2011,2.1911,2.2185,2.2213,2.2075,2.1723,2.1696,2.1696,2.1696,2.1696,2.1696,2.1696,2.1696,2.1696,2.1696,2.1696,2.1696,2.1696,2.1696,2.1298,2.0506,2.0204,1.9155,1.7512,1.7209,1.6605,1.5808,1.5808,1.5808,1.5808,1.5808,1.5808,1.5808,1.5808,1.5808,1.5808,1.5808,1.6182,1.6707,1.6707,1.7094,1.7608,1.7608,1.7608,1.7642,1.7929,1.7873,1.774,1.7729,1.8056,1.8392,1.8392,1.8282,1.8112,1.8031,1.7813,1.7596,1.7508,1.7514,1.7514,1.7514,1.7514,1.7514,1.7514,1.7231,1.6966,1.6785,0.0,1.6634,1.6447,1.6857,1.7153,1.7153,1.7381,1.7423,1.7165,1.7358,0.0,0.0,1.7183,1.6614,1.5362,1.4262,1.2946,1.142,1.0334,0.9721,0.9608,0.9479,0.9352,0.9207,0.9025,0.8929,0.8912,0.8912,0.8912,0.8912,0.8968,0.9158,0.9489,0.9761,1.006,1.0378,1.0417,1.043,1.0381,2.3569,2.3225,2.2983,2.3249,2.2966,2.2702,2.2647,2.2668,2.2611,2.2341,2.2249,2.2112,2.1815,2.1778,2.1782,2.1718,2.1696,2.1696,2.1696,2.1696,2.1696,2.1696,2.1696,2.1696,2.1696,2.1696,2.1696,2.1696,2.1696,2.162,2.1463,1.9803,1.8857,1.8496,1.6779,1.5944,1.5808,1.5808,1.5808,1.5808,1.5808,1.5808,1.5808,1.5808,1.5808,1.5808,1.5808,1.6182,1.6707,1.6707,1.7094,1.7608,1.7608,1.7608,1.7642,1.7929,1.8175,1.8349,1.8292,1.8339,1.8392,1.8392,1.859,1.8625,1.8112,1.8135,1.8123,1.7596,1.7514,1.7514,1.7514,1.7514,1.7514,1.7514,1.7074,1.6827,1.7008,0.0,1.6767,1.6948,1.7237,1.7448,1.7448,1.749,1.7467,1.7454,1.749,1.7467,1.7454,1.6444,1.5302,1.4053,1.3814,1.2526,1.0122,0.9913,0.9721,0.9608,0.9585,0.9425,0.921,0.9158,0.9052,0.8912,0.8912,0.8912,0.8912,0.9213,0.9489,0.9761,1.0091,1.039,1.0633,1.066,1.0558,1.0381,2.3376,2.3378,2.3354,2.338,2.3305,2.3115,2.2753,2.2631,2.2419,2.2039,2.1984,2.1993,2.203,2.203,2.203,2.203,2.203,2.1938,2.1705,2.1696,2.1696,2.1696,2.1696,2.1696,2.1696,2.1696,2.1696,2.1696,2.1696,2.1163,2.0121,1.9224,1.8211,1.7147,1.6197,1.5808,1.5808,1.5808,1.5808,1.5808,1.5808,1.5808,1.5808,1.5808,1.5808,1.5828,1.6012,1.6339,1.6734,1.6919,1.7254,1.7608,1.7608,1.7608,1.7642,1.7929,1.8343,1.8756,1.89,1.8934,1.8952,1.8952,1.8771,1.8561,1.8282,1.8071,1.7837,1.7573,1.7514,1.7514,1.7514,1.7514,1.7514,1.7514,1.7159,0.0,0.0,1.699,1.6954,1.708,1.7351,1.7514,1.7514,1.7514,1.7514,1.7514,1.7514,1.7514,1.7514,1.629,1.5006,1.3725,1.2316,1.1023,0.9822,0.9792,0.9721,0.9608,0.9608,0.9449,0.921,0.921,0.9104,0.8912,0.8912,0.8912,0.8937,0.9268,0.9572,0.9844,1.0174,1.0445,1.0668,1.0504,1.0382,1.0249,2.3249,2.3454,2.3605,2.3522,2.3528,2.3357,2.2854,2.251,2.2195,2.1892,2.1833,2.1906,2.214,2.2249,2.2268,2.2176,2.2167,2.2039,2.1714,2.1696,2.1696,2.1696,2.1696,2.1696,2.1696,2.1696,2.1696,2.1696,2.1696,2.0817,1.9132,1.8903,1.7847,1.6133,1.5896,1.5808,1.5808,1.5808,1.5808,1.5808,1.5808,1.5848,1.5901,1.5828,1.5888,1.6028,1.6244,1.6531,1.6866,1.71,1.7367,1.7608,1.7608,1.7608,1.7642,1.7929,1.8436,1.8963,1.9314,1.9336,1.9272,1.9272,1.8829,1.8392,1.8305,1.796,1.7602,1.7514,1.7514,1.7514,1.7514,1.7514,1.7514,1.7514,0.0,0.0,0.0,1.7129,1.7117,1.7177,1.7358,1.7514,1.7514,1.7514,1.7514,1.7514,1.7244,1.7067,1.7067,1.554,1.4108,1.2826,1.0842,0.9792,0.9792,0.9792,0.9737,0.9659,0.9625,0.9466,0.9233,0.9224,0.9104,0.8912,0.8912,0.8937,0.9047,0.9351,0.9651,0.9954,1.0284,1.0476,1.0599,1.0353,1.0198,1.0084,2.3662,2.3415,2.3266,2.3698,2.337,2.304,2.2979,2.2592,2.2295,2.2268,2.2259,2.213,2.1769,2.2085,2.2149,2.1791,2.1733,2.1723,2.1696,2.1696,2.1696,2.1696,2.1696,2.1696,2.1696,2.1696,2.1696,2.1696,2.1696,2.1177,2.0158,1.9247,1.8218,1.7138,1.6228,1.5808,1.5808,1.5808,1.5808,1.5808,1.5808,1.5999,1.6237,1.5908,1.6142,1.6607,1.6384,1.6665,1.7172,1.7192,1.7367,1.7608,1.7608,1.7608,1.7642,1.7929,1.8436,1.8963,1.9314,1.9185,1.8939,1.8939,1.8677,1.8334,1.8083,1.8002,1.7878,1.7573,1.7514,1.7514,1.7514,1.7514,1.7514,1.7514,0.0,0.0,1.7448,1.7272,1.7183,1.7454,1.7502,1.7514,1.7514,1.7514,1.7514,1.7514,1.6408,1.5752,1.5752,1.3366,1.1386,1.0122,0.9913,0.9792,0.9792,0.9792,0.9785,0.9771,0.9673,0.9523,0.939,0.9247,0.9104,0.8912,0.8912,0.9075,0.9379,0.9651,0.9954,1.0284,1.0555,1.0567,1.0422,1.0397,1.0197,0.9926,2.3327,2.323,2.3171,2.3337,2.3147,2.2917,2.2662,2.2435,2.2213,2.1975,2.1938,2.1952,2.2066,2.1993,2.1975,2.2075,2.1833,2.1696,2.1696,2.1696,2.1696,2.1696,2.1696,2.1696,2.1696,2.1696,2.1696,2.1696,2.1696,2.0907,1.9361,1.8972,1.7932,1.6346,1.5967,1.5808,1.5808,1.5808,1.5808,1.5808,1.5808,1.5875,1.6005,1.6079,1.6239,1.6498,1.6752,1.6866,1.6959,1.7321,1.7401,1.7367,1.7548,1.7608,1.7649,1.7918,1.8304,1.8673,1.877,1.8975,1.9156,1.8939,1.8648,1.8334,1.8054,1.7849,1.7667,1.7543,1.7514,1.7514,1.7514,1.7514,1.7514,1.7514,0.0,1.737,1.7502,1.74,1.7399,1.7502,1.7514,1.7514,1.7514,1.6797,1.6319,1.6319,1.5154,1.4411,1.4411,1.2676,1.1118,0.9849,0.9707,0.9704,0.9792,0.9792,0.9792,0.9788,0.9676,0.953,0.9403,0.925,0.9104,0.8912,0.8912,0.9103,0.9434,0.9678,1.0009,1.0339,1.061,1.0586,1.0393,1.0306,1.0129,0.9868,2.3091,2.3091,2.3091,2.3091,2.2936,2.2718,2.2435,2.223,2.202,2.1733,2.1797,2.1956,2.2103,2.1984,2.1956,2.2103,2.1874,2.1696,2.1696,2.1696,2.1696,2.1696,2.1696,2.1696,2.1696,2.1696,2.1696,2.1696,2.1696,2.0704,1.8788,1.8788,1.7731,1.5808,1.5808,1.5808,1.5808,1.5808,1.5808,1.5815,1.5908,1.6001,1.6095,1.6233,1.6471,1.6725,1.6878,1.6886,1.6894,1.7201,1.72,1.7086,1.7381,1.7602,1.7769,1.8076,1.8294,1.8471,1.8548,1.8829,1.901,1.8713,1.8363,1.8071,1.7872,1.7667,1.7514,1.7514,1.7514,1.7514,1.7514,1.7514,1.7455,1.7399,1.746,1.7484,1.7399,1.746,1.7514,1.7514,1.7514,1.7332,1.6944,1.6113,1.5421,1.5035,1.3814,1.2886,1.2496,1.1549,1.0654,0.9754,0.9659,0.9632,0.9683,0.9683,0.9683,0.9683,0.9585,0.9459,0.9335,0.923,0.9104,0.8912,0.9023,0.9241,0.9541,0.9844,1.0147,1.0441,1.0549,1.0505,1.0327,1.017,0.9987,0.9786,2.3091,2.3091,2.3091,2.3091,2.2696,2.2397,2.2397,2.1998,2.1696,2.1696,2.2057,2.2149,2.1733,2.2066,2.214,2.1723,2.1696,2.1696,2.1696,2.1696,2.1709,2.1709,2.1696,2.1696,2.1696,2.1696,2.1696,2.1687,2.1687,2.0696,1.8788,1.8788,1.7731,1.5801,1.5808,1.5808,1.5808,1.5808,1.5808,1.5828,1.6177,1.6471,1.6667,1.6411,1.6846,1.7488,1.6618,1.6678,1.7146,1.6807,1.6707,1.6754,1.708,1.7562,1.8069,1.8404,1.846,1.8474,1.8796,1.8648,1.8334,1.8054,1.7755,1.7514,1.7508,1.7514,1.7514,1.7508,1.7514,1.7514,1.7508,1.7514,1.74,1.7135,1.7345,1.7423,1.7129,1.7322,1.7514,1.7479,1.7479,1.6973,1.5717,1.5569,1.503,1.378,1.2436,1.1144,0.9879,0.9683,0.9608,0.9608,0.9605,0.9534,0.941,0.941,0.941,0.941,0.941,0.9328,0.921,0.9207,0.91,0.8912,0.9268,0.9541,0.9844,1.0174,1.0445,1.0676,1.0474,1.0322,1.0192,0.9978,0.9774,0.9603,2.3091,2.3091,2.3057,2.2904,2.2618,2.2353,2.2207,2.1919,2.1696,2.1696,2.1797,2.1824,2.1705,2.1797,2.1824,2.1705,2.1966,2.2121,2.2121,2.159,2.1269,2.1269,2.1819,2.1993,2.1718,2.1984,2.1667,2.0718,2.0718,1.9593,1.747,1.7672,1.6945,1.5531,1.5715,1.5808,1.5821,1.6052,1.6019,1.5848,1.6373,1.6506,1.6464,1.6792,1.6946,1.6961,1.6933,1.679,1.6578,1.6667,1.6567,1.6518,1.7045,1.7301,1.7529,1.8023,1.8141,1.8097,1.8011,1.8037,1.8062,1.7776,1.7788,1.7735,1.7313,1.7346,1.746,1.7272,1.7358,1.7424,1.7243,1.7358,1.7455,1.7376,1.746,1.7455,1.7376,1.7466,1.7185,1.6255,1.6166,1.5622,1.4187,1.3262,1.2531,1.2045,1.0823,0.9921,0.9543,0.9473,0.9449,0.9449,0.9373,0.9294,0.925,0.9356,0.941,0.941,0.9301,0.9226,0.9207,0.9049,0.9089,0.9268,0.9351,0.9682,1.0174,1.0257,1.0445,1.0676,1.0474,1.0322,1.0192,0.9978,0.9774,0.9603,2.3091,2.3091,2.3035,2.2847,2.2574,2.2331,2.2119,2.1874,2.1696,2.1696,2.1696,2.1696,2.1696,2.1696,2.1696,2.1696,2.2075,2.2304,2.2304,2.1691,2.1333,2.1333,2.1645,2.1636,2.122,2.1471,2.1011,1.9857,1.9857,1.8768,1.6698,1.6858,1.6341,1.526,1.5404,1.5484,1.5498,1.5702,1.5675,1.5524,1.5999,1.6079,1.6003,1.6471,1.6587,1.6547,1.6632,1.6504,1.6304,1.6339,1.6319,1.6357,1.6737,1.7012,1.7255,1.7602,1.7756,1.7833,1.7782,1.7789,1.7762,1.7639,1.7697,1.7712,1.7344,1.7286,1.7315,1.7123,1.7219,1.728,1.7123,1.7304,1.7478,1.7346,1.7442,1.7442,1.7201,1.6844,1.6308,1.5445,1.4935,1.4087,1.2708,1.1861,1.118,1.059,0.9838,0.941,0.941,0.941,0.9383,0.9322,0.923,0.9155,0.9069,0.9161,0.9205,0.9205,0.9199,0.9152,0.9066,0.9035,0.9158,0.9406,0.9517,0.9844,1.0312,1.0417,1.0515,1.057,1.0396,1.0213,1.0056,0.9851,0.9692,0.9603,2.3091,2.3101,2.3013,2.2794,2.2552,2.2309,2.2097,2.1852,2.1696,2.1696,2.1696,2.1696,2.1696,2.1696,2.1696,2.1696,2.2011,2.2204,2.2249,2.181,2.1531,2.1531,2.115,2.0735,2.0285,2.0385,1.9989,1.9063,1.8977,1.8027,1.6228,1.6257,1.5807,1.4952,1.4995,1.5008,1.5008,1.5035,1.5013,1.5035,1.5327,1.5438,1.5471,1.5735,1.6039,1.6264,1.5941,1.6025,1.6217,1.5895,1.6012,1.6264,1.629,1.669,1.7139,1.7213,1.7384,1.7623,1.7875,1.7773,1.7545,1.7511,1.752,1.7501,1.7448,1.7231,1.705,1.7026,1.7038,1.705,1.7026,1.7266,1.7369,1.7129,1.7267,1.7226,1.6656,1.5812,1.5124,1.4715,1.3686,1.2537,1.1241,1.111,1.0593,0.9456,0.9344,0.9344,0.9344,0.9344,0.9305,0.9165,0.9162,0.9097,0.8912,0.8912,0.8912,0.8912,0.9097,0.9066,0.8916,0.9129,0.9286,0.9461,0.9734,1.0036,1.0339,1.061,1.059,1.0389,1.0259,1.0076,0.9889,0.9668,0.9603,0.9599,2.3091,2.2969,2.2794,2.253,2.2318,2.2074,2.183,2.1741,2.1696,2.1696,2.1696,2.1696,2.1696,2.1696,2.1696,2.1696,2.1489,2.1489,2.1797,2.0854,2.0278,2.0278,1.9895,1.9318,1.856,1.9481,1.9323,1.8027,1.7339,1.6301,1.4915,1.5176,1.5052,1.4629,1.4885,1.5008,1.4999,1.5227,1.5193,1.5033,1.5524,1.5708,1.5748,1.6066,1.6244,1.629,1.6223,1.6072,1.5888,1.5828,1.5848,1.5941,1.6223,1.6384,1.6625,1.7314,1.7371,1.7269,1.761,1.7794,1.773,1.7067,1.7238,1.7461,1.6974,1.6827,1.6724,1.6529,1.6628,1.6718,1.6495,1.6682,1.6917,1.7068,1.6966,1.6581,1.5731,1.5277,1.4316,1.2355,1.1864,1.1179,0.9777,0.9514,0.9307,0.9035,0.9007,0.9007,0.9007,0.9007,0.8994,0.896,0.8956,0.8943,0.8912,0.8912,0.8912,0.8912,0.8943,0.894,0.8912,0.922,0.949,0.9734,1.0064,1.0335,1.061,1.0692,1.059,1.0389,1.0259,1.0076,0.9889,0.9668,0.9603,0.9583,2.2947,2.2772,2.253,2.2287,2.2163,2.2008,2.1741,2.1696,2.1696,2.1696,2.1696,2.1636,2.1434,2.1416,2.1416,2.1416,2.1214,2.1178,2.1398,2.0647,2.0189,2.0189,1.921,1.8756,1.889,1.8099,1.7336,1.6603,1.6163,1.5362,1.4315,1.4497,1.4484,1.4322,1.4497,1.4571,1.4578,1.4732,1.4705,1.4598,1.4877,1.4997,1.503,1.5324,1.5438,1.5471,1.5775,1.5845,1.5778,1.5689,1.5713,1.5787,1.573,1.5996,1.6359,1.6688,1.6846,1.6977,1.7323,1.7386,1.7312,1.7017,1.6959,1.6936,1.6728,1.6598,1.6459,1.6335,1.6501,1.6616,1.6359,1.6616,1.6887,1.6905,1.6791,1.6301,1.5129,1.4373,1.3212,1.1241,1.051,0.9863,0.9139,0.8956,0.8912,0.8912,0.9001,0.9011,0.8916,0.9001,0.9011,0.8912,0.8912,0.8912,0.8912,0.8912,0.8912,0.8912,0.8912,0.8992,0.913,0.9323,0.9627,1.0064,1.0229,1.0445,1.0692,1.0692,1.0538,1.0294,1.0227,1.0023,0.975,0.9636,0.9547,0.9474,2.2737,2.2552,2.2331,2.2141,2.2052,2.1963,2.1731,2.1632,2.1608,2.1608,2.1553,2.137,2.1022,2.1007,2.1007,2.1007,2.0921,2.0885,2.0885,2.0509,2.0227,2.0081,1.8749,1.8354,1.9103,1.6692,1.5477,1.5622,1.5311,1.4803,1.4109,1.4109,1.4109,1.4109,1.4109,1.4109,1.4109,1.4109,1.4109,1.4109,1.4109,1.4136,1.4188,1.4429,1.4534,1.4663,1.515,1.5504,1.5711,1.5598,1.5666,1.5737,1.5339,1.5678,1.6213,1.6008,1.6275,1.6698,1.7042,1.6952,1.6825,1.7005,1.6704,1.6411,1.6553,1.638,1.6238,1.6238,1.6398,1.6489,1.626,1.6607,1.6827,1.6658,1.6424,1.5795,1.448,1.3223,1.1943,1.0555,0.9509,0.8912,0.8912,0.8912,0.8912,0.8912,0.9049,0.9062,0.8919,0.9052,0.9062,0.8916,0.8912,0.8912,0.8912,0.8912,0.8912,0.8912,0.8968,0.913,0.9406,0.9434,0.9765,1.0312,1.0339,1.05,1.0688,1.066,1.0483,1.0212,1.0154,0.9912,0.9599,0.9567,0.9466,0.9311,2.2508,2.2419,2.2331,2.2141,2.1919,2.1741,2.1718,2.1407,2.119,2.119,2.0875,2.0637,2.0582,2.0573,2.0573,2.0573,2.0271,2.0069,2.0069,1.9696,1.9137,1.8374,1.8109,1.7375,1.6035,1.5603,1.576,1.6514,1.5005,1.4215,1.4109,1.4109,1.4109,1.4109,1.4109,1.4109,1.4109,1.4109,1.4109,1.4109,1.4109,1.4242,1.4447,1.4481,1.4676,1.4939,1.5013,1.5233,1.5491,1.5698,1.5784,1.5778,1.5737,1.5822,1.5996,1.6188,1.631,1.6406,1.6686,1.694,1.7024,1.6539,1.659,1.6602,1.6129,1.597,1.594,1.594,1.5976,1.5988,1.5946,1.6,1.6142,1.6335,1.533,1.4184,1.3178,1.1852,1.0539,0.9296,0.8992,0.8912,0.8912,0.8912,0.8912,0.8912,0.8929,0.8929,0.8912,0.8929,0.8929,0.8912,0.8912,0.8912,0.8912,0.8912,0.8912,0.8912,0.9185,0.9351,0.9406,0.9651,0.9954,1.0312,1.0555,1.0665,1.068,1.0503,1.0347,1.0174,1.0011,0.9803,0.9583,0.9474,0.9307,0.9104,2.1638,2.1618,2.1571,2.1272,2.1105,2.104,2.104,2.0875,2.0756,2.0756,2.0601,2.0408,2.0198,1.996,1.9822,1.9822,1.9657,1.9556,1.9556,1.8934,1.8399,1.8017,1.7066,1.6412,1.6124,1.5172,1.511,1.5966,1.4727,1.4109,1.4109,1.4109,1.4109,1.4109,1.4109,1.4109,1.4109,1.4109,1.4109,1.4109,1.4109,1.4162,1.4282,1.4282,1.4369,1.4528,1.4705,1.5068,1.5423,1.524,1.5445,1.5763,1.549,1.5839,1.6381,1.6526,1.6549,1.6551,1.6672,1.6585,1.6413,1.6135,1.6196,1.6225,1.5969,1.5891,1.5891,1.5891,1.6006,1.6087,1.5942,1.5495,1.517,1.5141,1.4034,1.2831,1.1766,1.1078,1.0237,0.9047,0.8912,0.8912,0.8912,0.8912,0.8912,0.8912,0.8912,0.8912,0.8912,0.8912,0.8912,0.8912,0.8912,0.8912,0.8912,0.8912,0.8992,0.9185,0.9323,0.9489,0.9623,0.9954,1.0229,1.0527,1.0637,1.0692,1.068,1.0478,1.0327,1.017,0.9983,0.9742,0.9478,0.9299,0.9096,0.893]}]]